     2              OBSERVATION DATA    G (GPS)             RINEX VERSION / TYPE
ASRINEXO V2.9.9 LH AIUB 01-FEB- 1 16:17                     PGM / RUN BY / DATE
BERN ASHTECH Z-12                                           COMMENT
BIT 2 OF LLI (+4) FLAGS DATA COLLECTED UNDER "AS" CONDITION COMMENT
USNB                                                        MARKER NAME
                                                            OBSERVER / AGENCY
? ASHTECH Z-XII3 1D15                                       REC # / TYPE / VERS
? CHOKE RING                                                ANT # / TYPE
  1112166.0600 -4843008.7100  3985555.9900                  APPROX POSITION XYZ
        0.0000        0.0000        0.0000                  ANTENNA: DELTA H/E/N
     1     1                                                WAVELENGTH FACT L1/2
     5    C1    L1    L2    P1    P2                        # / TYPES OF OBSERV
  2000     3    29     0     0   30.000000                  TIME OF FIRST OBS
                                                            END OF HEADER
 00  3 29  0  0 30.0000000  0  7 13 17 26 06 24 10 30
  22425719.474   -11824562.491 9  -9191108.85847  22425721.215    22425731.3574
  24112671.156    -4505623.543 8  -3492115.74445  24112673.231    24112688.6774
  21643062.990   -17580979.102 8 -13677256.61347  21643061.143    21643073.2594
  21217873.361   -20010681.984 9 -15581477.82147  21217873.457    21217884.1944
  21653663.207   -16483033.274 9 -12819566.81447  21653666.182    21653677.8954
  20685258.501   -22078583.335 9 -16898965.72248  20685260.292    20685270.5974
  24677416.995      -39774.037 8    -11021.35945  24677416.598    24677436.2854
 00  3 29  0  1  0.0000000  0  7 13 17 26 06 24 10 30
  22436791.513   -11766398.841 9  -9145786.53547  22436789.301    22436798.8384
  24095779.127    -4594381.694 8  -3561277.69945  24095783.712    24095798.4844
  21625042.268   -17675653.321 8 -13751028.53947  21625045.695    21625057.7294
  21210865.107   -20047492.755 9 -15610161.46747  21210868.236    21210879.4124
  21663056.856   -16433667.127 9 -12781099.69847  21663059.946    21663072.0114
  20693689.008   -22034272.282 9 -16864437.61748  20693692.030    20693702.9604
  24692109.649       37441.832 8     49146.71545  24692112.339    24692130.0804
 00  3 29  0  1 30.0000000  0  7 13 17 26 06 24 10 30
  22447949.910   -11707742.984 9  -9100080.67547  22447950.832    22447960.5704
  24078888.331    -4683170.338 8  -3630463.45045  24078887.798    24078902.5784
  21607100.631   -17769951.093 8 -13824507.14347  21607101.114    21607112.9684
  21203965.218   -20083751.699 9 -15638415.12547  21203968.942    21203979.9504
  21672496.841   -16384062.807 9 -12742446.98547  21672500.022    21672511.1584
  20702177.516   -21989686.271 9 -16829695.26448  20702176.307    20702187.4354
  24706808.588      114734.016 7    109374.22345  24706818.929    24706839.1944
 00  3 29  0  2  0.0000000  0  7 13 17 26 06 24 10 30
  22459206.803   -11648593.734 9  -9053990.35547  22459206.410    22459216.6104
  24061979.030    -4771990.222 8  -3699673.50645  24061984.551    24061999.7714
  21589222.984   -17863872.989 8 -13897692.85847  21589228.187    21589241.1324
  21197173.216   -20119446.986 9 -15666229.55547  21197176.348    21197187.5944
  21681983.431   -16334216.372 9 -12703605.60547  21681984.556    21681996.1504
  20710707.129   -21944852.552 9 -16794759.88348  20710707.954    20710718.6814
  24721544.767      192110.163 7    169667.19545  24721543.129    24721563.3124
 00  3 29  0  2 30.0000000  0  6 13 17 26 06 24 10
  22470557.488   -11588951.351 8  -9007515.77346  22470555.447    22470566.1924
  24045070.277    -4860828.436 7  -3768897.83845  24045079.010    24045095.5354
  21571427.132   -17957420.380 9 -13970586.73447  21571426.361    21571438.6324
  21190492.677   -20154558.750 9 -15693589.30947  21190494.509    21190505.1784
  21691512.921   -16284123.561 9 -12664572.24947  21691517.224    21691528.6734
  20719283.529   -21899769.493 9 -16759630.23248  20719287.044    20719297.8504
 00  3 29  0  3  0.0000000  0  6 13 17 26 06 24 10
  22481997.736   -11528815.639 9  -8960656.80046  22481999.915    22482009.5624
  24028168.782    -4949690.409 8  -3838140.70945  24028169.773    24028185.8234
  21553687.840   -18050601.968 8 -14043195.57647  21553694.259    21553706.2564
  21183921.041   -20189097.565 9 -15720502.60547  21183922.359    21183932.8244
  21701089.525   -16233781.477 9 -12625344.66147  21701096.680    21701109.2574
  20727913.512   -21854430.405 9 -16724301.07348  20727915.236    20727925.3254
 00  3 29  0  3 30.0000000  0  6 13 17 26 06 24 10
  22493531.668   -11468200.669 8  -8913424.35246  22493533.989    22493544.3194
  24011248.566    -5038568.872 7  -3907396.42545  24011256.775    24011272.2804
  21536029.014   -18143414.203 9 -14115516.63047  21536032.875    21536044.2754
  21177453.883   -20223078.120 9 -15746980.88647  21177455.741    21177466.0734
  21710721.939   -16183182.285 9 -12585916.73147  21710725.678    21710737.2154
  20736588.801   -21808831.330 9 -16688769.31448  20736591.507    20736602.5354
 00  3 29  0  4  0.0000000  0  6 13 17 26 06 24 10
  22505154.847   -11407109.160 8  -8865820.58846  22505159.448    22505169.9704
  23994329.252    -5127456.606 8  -3976659.35945  23994340.697    23994356.8644
  21518440.435   -18235846.370 9 -14187541.51347  21518443.286    21518455.6044
  21171091.127   -20256515.940 9 -15773036.26347  21171092.850    21171103.1334
  21720396.410   -16132326.172 8 -12546288.58447  21720403.036    21720414.8844
  20745319.507   -21762962.448 9 -16653027.31748  20745320.334    20745331.1694
 00  3 29  0  4 30.0000000  0  6 13 17 26 06 24 10
  22516868.258   -11345548.353 8  -8817851.13846  22516874.543    22516883.7644
  23977425.239    -5216340.265 8  -4045919.13745  23977426.894    23977442.4474
  21500925.184   -18327896.839 9 -14259268.96947  21500926.850    21500938.5504
  21164827.716   -20289422.644 9 -15798677.78347  21164830.920    21164840.8544
  21730128.921   -16081210.779 9 -12506458.42047  21730129.901    21730142.0074
  20754103.986   -21716799.742 9 -16617056.36848  20754105.289    20754115.6904
 00  3 29  0  5  0.0000000  0  6 13 17 26 06 24 10
  22528676.567   -11283523.637 8  -8769520.19446  22528677.003    22528686.8964
  23960508.447    -5305217.778 8  -4115174.11545  23960514.115    23960531.1464
  21483481.026   -18419553.959 9 -14330689.93347  21483484.714    21483496.8084
  21158665.765   -20321811.823 9 -15823916.03647  21158667.375    21158677.9244
  21739901.800   -16029844.948 9 -12466433.11047  21739905.419    21739916.0014
  20762946.503   -21670343.779 9 -16580856.90948  20762945.684    20762956.1154
 00  3 29  0  5 30.0000000  0  6 13 17 26 06 24 10
  22540563.164   -11221037.682 8  -8720829.87546  22540567.796    22540578.3464
  23943601.350    -5394088.946 8  -4184424.15245  23943603.952    23943619.2024
  21466117.309   -18510802.249 9 -14401792.31647  21466120.817    21466132.4464
  21152604.218   -20353662.049 9 -15848734.31947  21152606.176    21152616.9834
  21749727.752   -15978227.673 9 -12426211.86547  21749727.198    21749739.1614
  20771839.849   -21623605.039 9 -16544437.10648  20771839.733    20771850.3564
 00  3 29  0  6  0.0000000  0  6 13 17 26 06 24 10
  22552544.286   -11158086.137 8  -8671776.72446  22552547.184    22552557.6364
  23926691.827    -5482959.984 8  -4253674.09845  23926691.473    23926707.0674
  21448831.548   -18601644.673 8 -14472578.45047  21448833.189    21448844.7724
  21146647.070   -20384959.587 9 -15873121.95747  21146650.347    21146661.0374
  21759592.411   -15926365.226 8 -12385799.58047  21759595.955    21759608.9264
  20780787.053   -21576580.655 9 -16507794.72148  20780787.918    20780798.4704
 00  3 29  0  6 30.0000000  0  6 13 17 26 06 24 10
  22564608.345   -11094669.610 8  -8622361.27546  22564614.155    22564624.8924
  23909776.976    -5571830.470 8  -4322923.60345  23909778.372    23909795.2494
  21431624.530   -18692076.512 8 -14543044.65147  21431624.756    21431636.7134
  21140798.431   -20415696.992 9 -15897073.11647  21140800.923    21140811.5354
  21769509.830   -15874255.806 8 -12345194.86347  21769512.360    21769525.3544
  20789788.211   -21529277.217 9 -16470934.88448  20789789.760    20789799.6844
 00  3 29  0  7  0.0000000  0  6 13 17 26 06 24 10
  22576773.607   -11030778.236 8  -8572575.80546  22576772.848    22576782.8154
  23892859.136    -5660713.319 8  -4392182.76645  23892863.517    23892879.8634
  21414489.679   -18782099.966 9 -14613192.61347  21414494.036    21414505.2934
  21135057.220   -20445871.696 9 -15920585.81047  21135058.718    21135069.4724
  21779473.707   -15821900.489 9 -12304398.53647  21779475.805    21779487.4584
  20798837.758   -21481721.310 9 -16433878.32648  20798839.187    20798849.5004
 00  3 29  0  7 30.0000000  0  6 13 17 26 06 24 10
  22589019.394   -10966407.297 8  -8522416.63446  22589021.849    22589032.4664
  23875948.728    -5749618.641 8  -4461459.44045  23875946.366    23875962.6214
  21397437.545   -18871721.895 9 -14683027.72247  21397439.581    21397450.5454
  21129422.378   -20475482.071 9 -15943658.77347  21129424.177    21129435.0994
  21789486.226   -15769290.398 9 -12263403.67647  21789487.505    21789498.6604
  20807932.627   -21433924.297 9 -16396633.88848  20807934.144    20807945.0064
 00  3 29  0  8  0.0000000  0  6 13 17 26 06 24 10
  22601357.153   -10901549.777 8  -8471878.32046  22601363.873    22601374.4924
  23859026.769    -5838542.559 8  -4530750.60645  23859024.600    23859040.3224
  21380460.299   -18960949.098 9 -14752555.23647  21380460.183    21380471.1644
  21123892.524   -20504541.076 9 -15966302.08947  21123894.863    21123905.0414
  21799542.265   -15716433.977 9 -12222216.85447  21799545.087    21799556.8824
  20817073.681   -21385890.236 9 -16359204.73848  20817074.865    20817085.6884
 00  3 29  0  8 30.0000000  0  6 13 17 26 06 24 10
  22613794.202   -10836204.730 8  -8420960.10346  22613798.132    22613808.7794
  23842098.985    -5927476.975 8  -4600049.91745  23842101.214    23842116.9064
  21363553.936   -19049770.281 9 -14821766.36947  21363557.824    21363569.8414
  21118468.917   -20533046.788 9 -15988514.26647  21118469.978    21118480.5954
  21809647.321   -15663328.899 9 -12180836.29247  21809650.529    21809662.2614
  20826257.789   -21337623.898 9 -16321594.59648  20826259.966    20826270.3504
 00  3 29  0  9  0.0000000  0  6 13 17 26 06 24 10
  22626323.731   -10770380.019 8  -8369668.14846  22626324.461    22626335.8504
  23825176.416    -6016418.002 8  -4669354.41045  23825176.027    23825191.5094
  21346730.971   -19138176.786 9 -14890654.37947  21346734.787    21346745.7924
  21113149.718   -20560984.802 9 -16010284.08447  21113153.263    21113164.0064
  21819801.607   -15609972.194 9 -12139259.65747  21819804.352    21819816.6434
  20835486.942   -21289122.747 9 -16283801.48948  20835489.388    20835500.1734
 00  3 29  0  9 30.0000000  0  6 13 17 26 06 24 10
  22638938.251   -10704083.007 8  -8318008.15246  22638940.307    22638950.7404
  23808247.582    -6105365.736 8  -4738664.12345  23808248.257    23808266.4674
  21329989.273   -19226163.639 9 -14959215.40647  21329990.955    21330002.5244
  21107944.789   -20588340.251 9 -16031599.96747  21107947.735    21107958.6924
  21830004.101   -15556369.136 9 -12097491.06047  21830004.950    21830016.5894
  20844763.550   -21240376.661 9 -16245817.51148  20844765.074    20844776.0154
 00  3 29  0 10  0.0000000  0  6 13 17 26 06 24 10
  22651642.748   -10637320.773 8  -8265985.64046  22651644.888    22651656.3494
  23791324.428    -6194313.569 8  -4807973.97545  23791323.140    23791338.8674
  21313325.768   -19313713.683 9 -15027436.05747  21313330.406    21313341.6804
  21102849.478   -20615115.152 9 -16052463.46647  21102852.499    21102863.5134
  21840247.956   -15502520.182 8 -12055530.84047  21840251.714    21840263.2604
  20854087.883   -21191379.171 9 -16207637.64248  20854088.583    20854100.0264
 00  3 29  0 10 30.0000000  0  6 13 17 26 06 24 10
  22664431.918   -10570116.386 8  -8213618.62446  22664433.926    22664445.1054
  23774399.243    -6283258.834 8  -4877281.75945  23774397.038    23774413.0554
  21296755.199   -19400807.333 9 -15095301.07847  21296757.193    21296768.5384
  21097863.411   -20641313.038 9 -16072877.35047  21097867.350    21097878.2104
  21850547.023   -15448417.507 8 -12013372.93647  21850546.573    21850558.4404
  20863455.824   -21142129.170 9 -16169261.00847  20863460.561    20863471.7994
 00  3 29  0 11  0.0000000  0  6 13 17 26 06 24 10
  22677306.431   -10502480.308 8  -8160915.19546  22677304.740    22677315.3414
  23757470.218    -6372211.650 8  -4946595.45445  23757470.301    23757486.4154
  21280266.305   -19487445.201 9 -15162810.94347  21280270.598    21280281.9444
  21092990.011   -20666939.343 9 -16092845.84847  21092991.094    21093001.5734
  21860885.945   -15394069.020 8 -11971023.47547  21860888.470    21860900.8484
  20872877.533   -21092629.819 9 -16130690.07748  20872880.329    20872891.4434
 00  3 29  0 11 30.0000000  0  6 13 17 26 06 24 10
  22690252.610   -10434407.091 8  -8107871.15346  22690259.230    22690269.8974
  23740541.580    -6461166.689 8  -5015910.86345  23740541.771    23740557.6074
  21263870.963   -19573631.470 9 -15229968.91847  21263869.698    21263880.3584
  21088215.870   -20692014.800 9 -16112385.10647  21088218.941    21088229.2394
  21871272.587   -15339478.699 8 -11928485.59947  21871276.577    21871289.2884
  20882344.210   -21042882.675 9 -16091926.05847  20882346.325    20882357.8064
 00  3 29  0 12  0.0000000  0  6 13 17 26 06 24 10
  22703290.210   -10365909.425 8  -8054496.37346  22703293.811    22703303.6954
  23723610.266    -6550112.061 8  -5085218.82045  23723615.523    23723631.2124
  21247552.178   -19659360.744 9 -15296770.79247  21247555.232    21247566.4654
  21083547.151   -20716552.948 9 -16131505.69147  21083549.231    21083560.0574
  21881712.784   -15284632.716 8 -11885748.50147  21881714.335    21881726.0004
  20891860.713   -20992879.538 9 -16052962.56647  20891862.160    20891872.8164
 00  3 29  0 12 30.0000000  0  6 13 17 26 06 24 10
  22716404.090   -10296988.026 8  -8000791.39746  22716408.527    22716418.6194
  23706686.161    -6639046.966 8  -5154518.56646  23706692.372    23706707.5664
  21231321.999   -19744655.747 9 -15363234.27347  21231324.484    21231335.1334
  21078981.570   -20740537.990 9 -16150195.27947  21078985.558    21078995.9954
  21892195.184   -15229535.553 8 -11842815.66947  21892198.530    21892211.1434
  20901425.363   -20942624.266 9 -16013802.59947  20901425.878    20901436.0514
 00  3 29  0 13  0.0000000  0  6 13 17 26 06 24 10
  22729603.165   -10227632.689 8  -7946748.28246  22729607.055    22729617.3274
  23689771.927    -6727963.157 8  -5223803.71346  23689772.436    23689787.7544
  21215173.178   -19829532.036 9 -15429371.49247  21215173.081    21215183.4014
  21074527.190   -20763952.646 9 -16168440.40947  21074529.789    21074540.7764
  21902729.686   -15174181.336 8 -11799682.52347  21902732.216    21902744.1094
  20911036.777   -20892112.697 9 -15974442.92847  20911037.761    20911048.4314
 00  3 29  0 13 30.0000000  0  6 13 17 26 06 24 10
  22742881.615   -10157842.214 8  -7892366.12946  22742886.832    22742898.0404
  23672854.765    -6816845.324 8  -5293062.36446  23672857.632    23672873.6014
  21199099.144   -19913984.615 9 -15495178.54447  21199102.255    21199112.7854
  21070180.465   -20786790.360 9 -16186235.98947  21070183.912    21070194.3714
  21913316.028   -15118551.461 9 -11756334.60047  21913318.747    21913329.9734
  20920696.388   -20841338.401 9 -15934878.53047  20920699.374    20920710.1424
 00  3 29  0 14  0.0000000  0  6 13 17 26 06 24 10
  22756247.040   -10087626.990 8  -7837652.97446  22756249.104    22756260.0034
  23655949.855    -6905705.554 8  -5362303.94146  23655948.341    23655962.7614
  21183112.154   -19998003.686 9 -15560647.80347  21183113.501    21183124.1674
  21065949.267   -20809032.569 9 -16203567.52747  21065951.615    21065961.4894
  21923953.513   -15062637.834 8 -11712765.56047  21923958.265    21923969.7554
  20930407.829   -20790302.496 9 -15895110.28247  20930411.199    20930422.2484
 00  3 29  0 14 30.0000000  0  6 13 17 26 06 24 10
  22769690.336   -10016972.231 8  -7782597.36046  22769692.981    22769705.1444
  23639037.619    -6994553.664 8  -5431536.06546  23639041.696    23639055.6644
  21167205.714   -20081584.302 9 -15625775.42147  21167208.562    21167219.6064
  21061830.572   -20830668.578 9 -16220426.70547  21061833.978    21061844.3074
  21934643.789   -15006452.708 8 -11668984.96447  21934649.947    21934661.8884
  20940172.800   -20739013.666 9 -15855144.95047  20940171.328    20940182.2544
 00  3 29  0 15  0.0000000  0  6 13 17 26 06 24 10
  22783221.293    -9945871.591 8  -7727194.29346  22783223.412    22783234.8134
  23622130.409    -7083394.246 8  -5500762.30046  23622135.783    23622150.1234
  21151389.898   -20164699.738 9 -15690540.55647  21151392.722    21151402.9114
  21057825.269   -20851718.904 9 -16236829.51447  21057828.334    21057838.7774
  21945395.264   -14949993.079 8 -11624990.47147  21945393.979    21945405.8704
  20949978.135   -20687472.715 9 -15814983.17547  20949979.282    20949989.8964
 00  3 29  0 15 30.0000000  0  6 13 17 26 06 24 10
  22796837.524    -9874318.080 8  -7671438.32746  22796840.579    22796852.0494
  23605220.413    -7172249.729 8  -5570000.15646  23605225.650    23605241.9944
  21135662.642   -20247339.875 9 -15754935.32947  21135666.714    21135676.9394
  21053930.292   -20872192.528 9 -16252782.93747  21053932.400    21053942.1944
  21956184.843   -14893269.794 8 -11580790.54347  21956188.213    21956199.8264
  20959830.663   -20635695.027 9 -15774636.91047  20959832.520    20959842.9434
 00  3 29  0 16  0.0000000  0  6 13 17 26 06 24 10
  22810535.785    -9802309.853 8  -7615328.04946  22810541.886    22810553.8384
  23588310.590    -7261128.173 8  -5639255.90946  23588313.058    23588328.4944
  21120027.470   -20329509.351 9 -15818963.37047  21120029.957    21120040.2444
  21050144.295   -20892092.383 9 -16268289.26647  21050145.541    21050155.3254
  21967024.120   -14836309.345 8 -11536405.79747  21967027.661    21967038.9604
  20969723.846   -20583699.903 9 -15734121.22047  20969726.408    20969737.3794
 00  3 29  0 16 30.0000000  0  6 13 17 26 06 24 10
  22824331.733    -9729844.980 8  -7558861.95646  22824332.251    22824343.3484
  23571402.027    -7350015.397 8  -5708518.48346  23571399.192    23571412.8034
  21104480.427   -20411210.249 9 -15882626.28147  21104482.407    21104493.3284
  21046464.553   -20911429.902 9 -16283357.41947  21046466.012    21046476.0224
  21977908.492   -14779123.071 8 -11491845.09547  21977909.308    21977921.7584
  20979659.345   -20531495.194 9 -15693442.22847  20979660.716    20979671.4144
 00  3 29  0 17  0.0000000  0  6 13 17 26 06 24 10
  22838204.984    -9656945.091 8  -7502056.86246  22838204.542    22838215.9854
  23554478.960    -7438906.975 8  -5777784.46346  23554483.796    23554498.3304
  21089021.972   -20492443.083 9 -15945924.46447  21089024.293    21089035.3954
  21042892.538   -20930204.712 9 -16297987.08847  21042893.184    21042903.3944
  21988831.739   -14721703.318 8 -11447102.46547  21988836.268    21988848.4834
  20989631.969   -20479088.245 9 -15652605.64047  20989633.597    20989643.9554
 00  3 29  0 17 30.0000000  0  6 13 17 26 06 24 10
  22852144.110    -9583638.414 8  -7444934.83046  22852154.176    22852165.4624
  23537565.135    -7527794.260 8  -5847047.09046  23537568.119    23537582.8574
  21073651.998   -20573219.573 9 -16008867.03547  21073653.204    21073663.7654
  21039429.717   -20948393.995 9 -16312160.50447  21039431.493    21039441.9214
  21999804.521   -14664047.583 8 -11402175.94947  21999808.478    21999819.5604
  20999645.287   -20426476.644 9 -15611609.58747  20999645.776    20999655.6904
 00  3 29  0 18  0.0000000  0  6 13 17 26 06 24 10
  22866170.027    -9509954.030 8  -7387518.43946  22866176.449    22866187.4454
  23520654.694    -7616655.079 8  -5916289.09246  23520658.454    23520671.9594
  21058370.508   -20653542.946 9 -16071456.54747  21058368.185    21058378.6644
  21036082.665   -20965989.486 9 -16325871.23547  21036083.294    21036093.4184
  22010818.998   -14606151.753 8 -11357062.34547  22010825.028    22010836.9214
  21009697.144   -20373648.964 9 -15570445.15747  21009698.294    21009708.3304
 00  3 29  0 18 30.0000000  0  6 13 17 26 06 24 10
  22880267.535    -9435898.966 8  -7329813.23046  22880269.093    22880279.5614
  23503757.013    -7705481.026 8  -5985503.94046  23503755.654    23503769.9034
  21043163.037   -20733412.144 9 -16133692.15147  21043168.797    21043179.7244
  21032847.411   -20982979.076 9 -16339109.83147  21032849.967    21032860.5504
  22021889.162   -14548000.309 8 -11311749.56447  22021890.419    22021902.8614
  21019793.455   -20320583.260 9 -15529095.25847  21019796.049    21019806.3774
 00  3 29  0 19  0.0000000  0  6 13 17 26 06 24 10
  22894434.708    -9361471.814 8  -7271818.07746  22894432.159    22894442.7844
  23486859.040    -7794273.142 8  -6054692.39646  23486858.539    23486873.5024
  21028056.585   -20812829.611 9 -16195575.76847  21028056.843    21028067.1454
  21029732.130   -20999356.396 9 -16351871.33647  21029733.717    21029743.6444
  22033001.265   -14489590.644 9 -11266235.57647  22033006.480    22033018.4974
  21029939.320   -20267273.210 9 -15487554.95547  21029940.792    21029951.6604
 00  3 29  0 19 30.0000000  0  6 13 17 26 06 24 10
  22908665.696    -9286651.101 8  -7213516.26646  22908669.502    22908680.1664
  23469966.646    -7883026.758 8  -6123850.86446  23469969.304    23469982.8854
  21013028.665   -20891786.670 9 -16257100.61647  21013030.795    21013041.9554
  21026730.376   -21015128.115 9 -16364160.93947  21026732.673    21026742.7014
  22044167.106   -14430932.874 8 -11220528.26147  22044168.498    22044180.9804
  21040133.050   -20213711.473 9 -15445818.53147  21040133.097    21040144.0544
 00  3 29  0 20  0.0000000  0  6 13 17 26 06 24 10
  22922989.498    -9211402.539 8  -7154881.05446  22922988.969    22922999.5494
  23453083.137    -7971740.889 8  -6192978.56546  23453086.976    23453102.2414
  20998092.937   -20970269.420 9 -16318255.87847  20998096.746    20998107.4774
  21023839.818   -21030310.501 9 -16375991.32947  21023843.302    21023853.4984
  22055370.685   -14372034.570 8 -11174633.52247  22055375.931    22055388.0634
  21050372.091   -20159902.771 9 -15403889.68247  21050372.756    21050383.3674
 00  3 29  0 20 30.0000000  0  6 13 17 26 06 24 10
  22937392.431    -9135702.297 8  -7095893.88546  22937393.973    22937404.9964
  23436205.146    -8060426.040 8  -6262083.70646  23436211.139    23436224.3374
  20983254.065   -21048263.719 9 -16379030.53147  20983254.707    20983265.1044
  21021063.191   -21044918.067 9 -16387373.80647  21021063.702    21021073.7844
  22066627.716   -14312886.914 8 -11128544.47847  22066632.020    22066644.3004
  21060657.415   -20105852.582 9 -15361772.66047  21060658.142    21060668.2664
 00  3 29  0 21  0.0000000  0  6 13 17 26 06 24 10
  22951884.629    -9059552.847 8  -7036556.70746  22951884.997    22951895.0354
  23419336.958    -8149102.844 8  -6331182.37546  23419336.681    23419350.5684
  20968506.087   -21125754.126 9 -16439412.54947  20968508.657    20968519.0054
  21018389.784   -21058960.527 9 -16398315.94547  21018391.410    21018401.4554
  22077934.436   -14253488.956 8 -11082260.38647  22077935.038    22077946.8074
  21070983.464   -20051587.694 9 -15319488.32647  21070983.983    21070994.4194
 00  3 29  0 21 30.0000000  0  6 13 17 26 06 24 10
  22966458.069    -8982968.127 8  -6976880.31846  22966459.331    22966467.9594
  23402457.026    -8237779.902 8  -6400281.20246  23402460.165    23402475.7624
  20953855.782   -21202735.272 9 -16499397.73847  20953859.207    20953869.6864
  21015826.989   -21072431.185 9 -16408812.52847  21015828.312    21015838.3324
  22089284.526   -14193830.532 8 -11035773.34547  22089287.161    22089299.4304
  21081348.389   -19997117.438 9 -15277043.96747  21081349.578    21081359.9384
 00  3 29  0 22  0.0000000  0  6 13 17 26 06 24 10
  22981112.786    -8905972.528 8  -6916883.76846  22981111.078    22981120.5814
  23385581.244    -8326456.571 8  -6469379.71546  23385586.743    23385601.9194
  20939301.574   -21279221.643 9 -16558997.38247  20939304.276    20939314.6184
  21013374.657   -21085317.372 9 -16418853.67047  21013376.171    21013386.2354
  22100691.496   -14133899.522 8 -10989073.88646  22100691.764    22100703.2094
  21091752.135   -19942448.494 9 -15234444.78647  21091753.121    21091763.2254
 00  3 29  0 22 30.0000000  0  6 13 17 26 06 24 10
  22995830.613    -8828597.757 8  -6856591.80446  22995833.829    22995844.7304
  23368710.671    -8415140.195 8  -6538483.67546  23368712.149    23368725.7654
  20924841.611   -21355218.294 9 -16618215.42247  20924842.995    20924853.2044
  21011033.371   -21097610.788 9 -16428432.91647  21011036.421    21011046.6924
  22112147.108   -14073692.561 8 -10942159.40646  22112148.880    22112160.8024
  21102189.170   -19887590.296 9 -15191698.14647  21102192.038    21102202.4194
 00  3 29  0 23  0.0000000  0  6 13 17 26 06 24 10
  23010625.061    -8750859.637 8  -6796016.67346  23010627.571    23010637.6324
  23351833.358    -8503821.375 8  -6607585.77046  23351835.673    23351849.4394
  20910471.041   -21430730.084 9 -16677055.65447  20910473.130    20910483.8484
  21008810.694   -21109300.109 9 -16437541.43947  21008811.922    21008821.9594
  22123648.171   -14013223.594 8 -10895040.76146  22123655.176    22123668.0694
  21112663.458   -19832546.729 9 -15148807.05347  21112666.314    21112676.7874
 00  3 29  0 23 30.0000000  0  6 13 17 26 06 24 10
  23025489.719    -8672768.612 8  -6735166.54546  23025487.354    23025499.1254
  23334961.434    -8592472.471 8  -6676664.35746  23334965.174    23334980.4344
  20896191.413   -21505761.399 9 -16735521.49647  20896194.963    20896205.3454
  21006700.940   -21120382.158 9 -16446176.76947  21006702.867    21006713.1444
  22135211.084   -13952494.958 8 -10847719.79446  22135211.854    22135224.1804
  21123178.258   -19777305.067 9 -15105761.59047  21123178.514    21123189.0274
 00  3 29  0 24  0.0000000  0  6 13 17 26 06 24 10
  23040416.231    -8594318.011 8  -6674036.27546  23040417.059    23040427.9164
  23318101.353    -8681080.442 8  -6745709.38546  23318104.707    23318118.4554
  20882006.863   -21580307.648 9 -16793609.36347  20882008.631    20882019.3334
  21004706.554   -21130864.656 9 -16454344.90747  21004708.470    21004718.6004
  22146813.063   -13891516.140 8 -10800203.86246  22146815.867    22146828.7114
  21133726.329   -19721857.068 9 -15062555.35747  21133729.812    21133740.0444
 00  3 29  0 24 30.0000000  0  6 13 17 26 06 24 10
  23055412.241    -8515496.117 8  -6612616.65446  23055416.400    23055426.6144
  23301241.945    -8769654.295 8  -6814727.80746  23301248.283    23301262.3824
  20867914.594   -21654350.501 9 -16851304.97347  20867919.077    20867929.0794
  21002824.698   -21140753.971 9 -16462050.82547  21002826.663    21002836.6184
  22158462.681   -13830285.787 8 -10752491.95146  22158467.092    22158479.9764
  21144318.235   -19666205.883 9 -15019190.80447  21144319.737    21144330.4864
 00  3 29  0 25  0.0000000  0  6 13 17 26 06 24 10
  23070481.180    -8436292.734 8  -6550899.75746  23070488.074    23070498.2674
  23284397.169    -8858188.859 8  -6883715.60146  23284399.896    23284413.5014
  20853922.660   -21727894.834 9 -16908612.13147  20853924.236    20853934.0734
  21001055.280   -21150049.598 9 -16469294.12647  21001057.247    21001067.4224
  22170166.731   -13768806.801 8 -10704586.31046  22170167.076    22170179.0774
  21154949.399   -19610343.161 9 -14975661.41747  21154949.692    21154960.9834
 00  3 29  0 25 30.0000000  0  6 13 17 26 06 24 10
  23085625.226    -8356705.952 8  -6488884.12046  23085633.179    23085643.9864
  23267551.690    -8946683.992 8  -6952672.64446  23267560.382    23267573.1904
  20840023.839   -21800938.137 9 -16965528.88047  20840024.415    20840034.5654
  20999399.991   -21158753.241 9 -16476076.14947  20999400.705    20999411.2424
  22181906.691   -13707076.476 8 -10656484.78146  22181913.480    22181925.3794
  21165616.819   -19554266.021 9 -14931964.94547  21165620.389    21165632.2484
 00  3 29  0 26  0.0000000  0  6 13 17 26 06 24 10
  23100850.738    -8276727.395 8  -6426563.22646  23100852.836    23100862.2344
  23250725.902    -9035152.089 8  -7021608.64346  23250725.724    23250738.1404
  20826217.673   -21873482.295 9 -17022056.69247  20826219.649    20826229.6904
  20997852.465   -21166875.168 9 -16482404.89147  20997855.242    20997865.4664
  22193706.725   -13645108.493 8 -10608198.07846  22193705.876    22193717.6294
  21176331.196   -19497979.867 9 -14888105.60747  21176332.033    21176342.7094
 00  3 29  0 26 30.0000000  0  6 13 17 26 06 24 10
  23116137.227    -8196365.402 8  -6363943.53846  23116144.779    23116153.5844
  23233886.266    -9123603.802 8  -7090531.86246  23233892.654    23233906.8064
  20812507.627   -21945526.246 9 -17078194.72047  20812510.097    20812519.9464
  20996418.331   -21174416.032 9 -16488280.84147  20996420.244    20996430.5124
  22205541.826   -13582911.306 8 -10559732.77546  22205541.928    22205553.9454
  21187077.639   -19441496.641 9 -14844092.69747  21187080.167    21187091.3164
 00  3 29  0 27  0.0000000  0  6 13 17 26 06 24 10
  23131504.901    -8115635.146 8  -6301036.89146  23131507.002    23131516.2184
  23217066.734    -9212015.821 8  -7159424.10946  23217068.372    23217081.9554
  20798894.738   -22017067.405 9 -17133940.96347  20798895.724    20798905.8744
  20995092.601   -21181374.884 9 -16493703.28647  20995096.046    20995105.9754
  22217416.380   -13520493.839 8 -10511095.83546  22217419.545    22217431.2234
  21197868.319   -19384809.160 9 -14799920.63447  21197867.766    21197878.6324
 00  3 29  0 27 30.0000000  0  6 13 17 26 06 24 10
  23146937.033    -8034535.743 8  -6237842.60346  23146940.061    23146949.7524
  23200251.457    -9300381.688 8  -7228280.41446  23200254.428    23200265.4674
  20785378.066   -22088086.806 9 -17189280.64647  20785381.622    20785391.6114
  20993881.413   -21187748.709 9 -16498669.85747  20993883.144    20993893.0094
  22229333.546   -13457845.356 8 -10462278.86546  22229340.644    22229352.6754
  21208692.417   -19327917.429 9 -14755589.41447  21208694.126    21208704.4944
 00  3 29  0 28  0.0000000  0  6 13 17 26 06 24 10
  23162438.334    -7953061.773 8  -6174356.43346  23162443.998    23162454.3384
  23183444.012    -9388708.320 8  -7297106.17046  23183445.970    23183458.0814
  20771965.819   -22158577.819 9 -17244208.59547  20771967.882    20771977.6774
  20992779.494   -21193533.310 9 -16503177.29947  20992782.232    20992792.6814
  22241303.729   -13394953.016 8 -10413271.88846  22241308.655    22241320.2524
  21219559.585   -19270814.042 9 -14711093.26647  21219560.584    21219571.2884
 00  3 29  0 28 30.0000000  0  6 13 17 26 06 24 10
  23178012.007    -7871216.673 8  -6110581.07846  23178018.588    23178029.0174
  23166641.440    -9476993.293 8  -7365899.41846  23166644.855    23166658.0874
  20758652.533   -22228527.771 9 -17298714.95047  20758656.151    20758666.5234
  20991793.981   -21198721.124 9 -16507219.71147  20991795.182    20991805.2584
  22253329.692   -13331791.369 8 -10364055.07646  22253328.269    22253340.6284
  21230466.664   -19213494.458 9 -14666428.64947  21230467.921    21230478.5574
 00  3 29  0 29  0.0000000  0  6 13 17 26 06 24 10
  23193667.125    -7788992.753 8  -6046510.55446  23193665.818    23193676.2834
  23149854.497    -9565227.797 8  -7434653.36146  23149854.427    23149868.4644
  20745443.847   -22297940.883 9 -17352802.98047  20745447.178    20745457.3354
  20990922.655   -21203307.601 9 -16510793.55647  20990922.415    20990932.4054
  22265397.932   -13268345.633 8 -10314616.88846  22265401.421    22265413.6804
  21241416.881   -19155960.450 9 -14621596.95447  21241416.581    21241426.7584
 00  3 29  0 29 30.0000000  0  7 13 17 26 06 24 08 10
  23209384.790    -7706388.366 8  -5982143.55446  23209384.595    23209395.2114
  23133069.738    -9653432.595 8  -7503384.14646  23133070.067    23133083.6054
  20732337.947   -22366818.999 9 -17406474.14447  20732340.352    20732350.0704
  20990163.024   -21207291.442 9 -16513897.80447  20990164.576    20990174.1184
  22277527.192   -13204611.156 8 -10264953.70946  22277530.179    22277541.4144
  24401286.006    -3678905.79717  -2855574.46455  24401274.202    24401289.2124
  21252403.357   -19098222.376 9 -14576606.24847  21252404.057    21252414.2714
 00  3 29  0 30  0.0000000  0  7 13 17 26 06 24 08 10
  23225167.872    -7623430.497 8  -5917501.11646  23225170.940    23225180.9284
  23116282.564    -9741611.010 8  -7572094.38246  23116289.750    23116303.4764
  20719329.555   -22435175.663 9 -17459738.98347  20719332.231    20719342.1964
  20989519.297   -21210674.953 9 -16516534.26347  20989520.485    20989530.6114
  22289709.367   -13140595.698 8 -10215071.57146  22289711.715    22289723.2644
  24395892.429    -3707163.478 7  -2877593.31545  24395896.260    24395910.9364
  21263425.864   -19040296.027 9 -14531468.83347  21263426.550    21263437.7304
 00  3 29  0 30 30.0000000  0  7 13 17 26 06 24 08 10
  23241019.708    -7540139.590 8  -5852599.15446  23241020.899    23241031.0784
  23099517.311    -9829745.753 8  -7640770.58346  23099518.515    23099531.4414
  20706421.596   -22503016.545 9 -17512601.90248  20706422.680    20706432.6274
  20988991.603   -21213447.260 9 -16518694.46447  20988992.627    20989003.0924
  22301942.301   -13076313.106 8 -10164981.26246  22301944.491    22301956.0994
  24390611.450    -3734925.251 7  -2899225.79445  24390615.081    24390629.2614
  21274477.910   -18982204.876 9 -14486203.00147  21274481.226    21274491.7744
 00  3 29  0 31  0.0000000  0  7 13 17 26 06 24 08 10
  23256930.055    -7456521.379 8  -5787442.16246  23256932.814    23256943.5454
  23082755.299    -9917827.688 8  -7709405.64746  23082756.582    23082769.8024
  20693608.432   -22570342.738 9 -17565063.76447  20693610.506    20693620.8994
  20988580.499   -21215598.571 9 -16520370.78447  20988583.007    20988593.4384
  22314225.749   -13011773.855 8 -10114690.97446  22314225.587    22314237.9584
  24385427.417    -3762194.605 7  -2920474.53045  24385425.023    24385439.6604
  21285563.872   -18923951.470 9 -14440810.73047  21285566.550    21285576.6384
 00  3 29  0 31 30.0000000  0  7 13 17 26 06 24 08 10
  23272900.175    -7372592.044 8  -5722042.72546  23272903.977    23272914.6204
  23066006.954   -10005854.666 8  -7777997.88846  23066005.543    23066018.4564
  20680896.950   -22637145.238 9 -17617117.55848  20680898.747    20680908.4034
  20988289.858   -21217127.921 9 -16521562.45947  20988292.271    20988302.2684
  22326549.971   -12946983.224 8 -10064204.83046  22326555.222    22326567.0774
  24380326.175    -3788975.725 7  -2941342.80545  24380328.160    24380343.5064
  21296682.916   -18865521.749 9 -14395281.07047  21296685.635    21296695.6644
 00  3 29  0 32  0.0000000  0  7 13 17 26 06 24 08 10
  23288933.242    -7288345.989 8  -5656396.49646  23288935.612    23288946.4394
  23049271.689   -10093811.697 8  -7846535.64346  23049268.046    23049280.9614
  20668282.339   -22703423.824 9 -17668763.10947  20668285.873    20668296.0404
  20988116.280   -21218044.815 9 -16522276.88647  20988117.654    20988127.8614
  22338924.589   -12881947.828 8 -10013527.93846  22338930.616    22338943.9594
  24375313.288    -3815293.945 7  -2961850.45845  24375318.882    24375335.2044
  21307838.771   -18806915.616 9 -14349613.95547  21307837.746    21307848.2704
 00  3 29  0 32 30.0000000  0  7 13 17 26 06 24 08 10
  23305030.013    -7203759.873 8  -5590485.29246  23305032.233    23305042.6054
  23032536.212   -10181696.345 8  -7915016.98246  23032542.893    23032557.3404
  20655774.049   -22769166.563 9 -17719991.12947  20655775.844    20655785.1044
  20988054.300   -21218355.363 9 -16522518.84047  20988058.508    20988068.9744
  22351346.689   -12816666.153 8  -9962659.16946  22351353.271    22351365.3404
  24370395.055    -3841162.576 7  -2982007.74645  24370397.195    24370409.8624
  21319025.410   -18748113.825 9 -14303794.37447  21319027.067    21319037.4744
 00  3 29  0 33  0.0000000  0  7 13 17 26 06 24 08 10
  23321202.826    -7118828.564 8  -5524305.12046  23321194.405    23321205.1394
  23015830.137   -10269526.753 8  -7983456.06346  23015830.924    23015843.4454
  20643363.772   -22834366.240 9 -17770795.98447  20643368.260    20643377.9844
  20988107.423   -21218078.098 9 -16522302.75947  20988111.482    20988121.7104
  22363819.778   -12751134.981 8  -9911595.97546  22363823.159    22363836.1824
  24365556.987    -3866579.191 7  -3001812.79645  24365561.005    24365575.2714
  21330258.746   -18689102.330 9 -14257811.38547  21330256.704    21330267.3724
 00  3 29  0 33 30.0000000  0  7 13 17 26 06 24 08 10
  23337418.412    -7033552.628 8  -5457856.41346  23337421.769    23337432.7654
  22999123.307   -10357311.473 8  -8051859.56946  22999124.686    22999136.9704
  20631059.130   -22899020.356 9 -17821175.71847  20631064.586    20631074.6144
  20988271.498   -21217223.150 9 -16521636.53947  20988273.583    20988284.1364
  22376331.670   -12685365.067 8  -9860346.75046  22376339.059    22376352.3764
  24360819.852    -3891542.077 7  -3021264.30045  24360809.492    24360824.5384
  21341520.131   -18629885.815 9 -14211668.64347  21341524.470    21341535.8494
 00  3 29  0 34  0.0000000  0  7 13 17 26 06 24 08 10
  23353714.932    -6947923.180 8  -5391132.21646  23353716.109    23353727.3024
  22982422.697   -10445055.001 8  -8120230.97846  22982427.629    22982440.9234
  20618863.462   -22963124.087 9 -17871126.58447  20618866.100    20618876.2294
  20988543.456   -21215793.508 9 -16520522.50547  20988545.949    20988555.8264
  22388901.321   -12619355.557 8  -9808910.83746  22388901.226    22388913.0364
  24356148.780    -3916042.298 7  -3040355.28945  24356148.609    24356161.9364
  21352830.449   -18570475.113 9 -14165374.59547  21352830.235    21352840.8104
 00  3 29  0 34 30.0000000  0  7 13 17 26 06 24 08 10
  23370070.362    -6861946.574 8  -5324137.51446  23370076.452    23370087.6374
  22965737.541   -10532763.179 8  -8188574.85146  22965737.609    22965750.4734
  20606772.274   -23026666.093 9 -17920639.73748  20606774.797    20606784.4174
  20988929.062   -21213771.029 9 -16518946.51347  20988931.264    20988941.1474
  22401506.533   -12553095.323 8  -9757279.54246  22401509.899    22401522.1234
  24351579.291    -3940059.221 7  -3059069.67145  24351578.684    24351592.7604
  21364168.348   -18510883.698 9 -14118939.72347  21364170.434    21364180.6694
 00  3 29  0 35  0.0000000  0  7 13 17 26 06 24 08 10
  23386505.047    -6775633.158 8  -5256880.36646  23386502.172    23386512.4754
  22949051.166   -10620430.759 8  -8256887.07046  22949053.530    22949068.3164
  20594786.155   -23089648.455 9 -17969716.81948  20594789.685    20594799.0674
  20989427.016   -21211151.969 9 -16516905.65647  20989429.496    20989439.5824
  22414163.425   -12486585.433 8  -9705453.71946  22414167.002    22414177.9934
  24347099.098    -3963562.438 7  -3077383.78145  24347106.247    24347120.2184
  21375540.253   -18451131.223 9 -14072379.34247  21375541.184    21375551.4444
 00  3 29  0 35 30.0000000  0  8 13 23 17 26 06 24 08 10
  23402988.179    -6688985.900 8  -5189363.05446  23402990.916    23403001.3944
  24835285.225     -778474.58317   -581159.31154  24835283.377    24835302.3004
  22932377.319   -10708043.015 8  -8325156.19046  22932381.349    22932395.3534
  20582907.231   -23152077.359 9 -18018362.62848  20582909.037    20582918.8454
  20990039.611   -21207937.258 9 -16514400.66547  20990040.986    20990051.2824
  22426863.278   -12419821.787 8  -9653430.14346  22426870.905    22426884.0574
  24342723.917    -3986558.965 7  -3095303.07245  24342729.034    24342743.3614
  21386940.451   -18391224.769 9 -14025698.97847  21386940.916    21386951.2774
 00  3 29  0 36  0.0000000  0  8 13 23 17 26 06 24 08 10
  23419540.710    -6602006.209 8  -5121586.75446  23419542.479    23419552.9124
  24820747.939     -854870.294 7   -640688.00744  24820746.952    24820765.1884
  22915722.830   -10795595.840 8  -8393379.03946  22915721.801    22915734.0484
  20571132.409   -23213963.165 9 -18066585.24548  20571133.202    20571142.7524
  20990762.961   -21204127.976 9 -16511432.36547  20990765.847    20990776.2234
  22439627.647   -12352783.895 8  -9601192.89846  22439627.727    22439639.5474
  24338441.538    -4009044.837 7  -3112824.48545  24338449.921    24338465.0054
  21398365.060   -18331177.422 9 -13978908.82547  21398366.857    21398377.6994
 00  3 29  0 36 30.0000000  0  8 13 23 17 26 06 24 08 10
  23436156.763    -6514701.753 8  -5053557.37146  23436156.401    23436165.8584
  24806209.592     -931167.442 7   -700140.03244  24806229.567    24806250.2284
  22899068.875   -10883090.482 8  -8461556.54846  22899071.777    22899084.3554
  20559453.042   -23275313.065 9 -18114390.27448  20559458.185    20559467.9274
  20991601.480   -21199721.093 9 -16507998.40747  20991604.392    20991614.5054
  22452436.570   -12285476.683 8  -9548745.77746  22452436.233    22452449.3854
  24334275.467    -4031020.889 7  -3129948.60145  24334269.121    24334282.5664
  21409821.419   -18270982.771 9 -13932003.89547  21409821.910    21409833.1164
 00  3 29  0 37  0.0000000  0  8 13 23 17 26 06 24 08 10
  23452830.233    -6427080.850 8  -4985281.40046  23452829.790    23452840.1574
  24791734.718    -1007356.011 7   -759507.44744  24791730.884    24791747.5794
  22882427.069   -10970536.406 8  -8529696.08946  22882430.409    22882443.5084
  20547880.144   -23336136.387 9 -18161784.98148  20547884.083    20547893.6424
  20992553.437   -21194730.257 9 -16504109.41747  20992554.238    20992564.4924
  22465289.665   -12217913.525 8  -9496099.21246  22465292.828    22465304.7264
  24330174.289    -4052499.507 7  -3146685.08545  24330181.311    24330194.9724
  21421307.827   -18210613.541 9 -13884962.93647  21421309.740    21421320.9664
 00  3 29  0 37 30.0000000  0  8 13 23 17 26 06 24 08 10
  23469558.783    -6339143.737 8  -4916759.04146  23469563.234    23469573.9734
  24777257.110    -1083422.386 7   -818779.66945  24777256.564    24777272.1524
  22865797.015   -11057951.384 8  -8597811.51146  22865796.438    22865809.9794
  20536408.467   -23396432.172 9 -18208768.62848  20536410.725    20536419.5494
  20993614.456   -21189149.266 9 -16499760.56647  20993616.086    20993625.9374
  22478195.748   -12150097.466 8  -9443255.60546  22478197.898    22478210.1654
  24326189.286    -4073501.147 7  -3163049.90545  24326185.274    24326198.1414
  21432832.231   -18150060.646 9 -13837778.85947  21432832.311    21432843.3054
 00  3 29  0 38  0.0000000  0  8 13 23 17 26 06 24 08 10
  23486345.622    -6250885.635 8  -4847986.57146  23486357.963    23486368.7394
  24762803.099    -1159361.967 7   -877953.05645  24762805.006    24762822.4594
  22849164.827   -11145339.204 8  -8665905.78646  22849167.568    22849179.5124
  20525037.812   -23456186.451 9 -18255330.32248  20525039.396    20525048.7824
  20994792.469   -21182959.219 9 -16494937.12647  20994794.442    20994804.7494
  22491145.931   -12082040.721 8  -9390224.44246  22491148.481    22491160.6124
  24322275.926    -4094004.010 7  -3179026.12145  24322282.263    24322297.8384
  21444391.216   -18089314.420 9 -13790444.13947  21444392.385    21444402.8974
 00  3 29  0 38 30.0000000  0  8 13 23 17 26 06 24 08 10
  23503204.965    -6162314.479 8  -4778970.14946  23503212.467    23503223.2454
  24748366.299    -1235167.908 7   -937022.28745  24748377.581    24748397.0074
  22832538.426   -11232697.547 8  -8733977.09246  22832542.852    22832556.1544
  20513774.875   -23515375.409 9 -18301451.49748  20513776.164    20513785.6224
  20996087.015   -21176157.126 9 -16489636.76547  20996088.673    20996098.8414
  22504137.884   -12013759.457 8  -9337018.33046  22504142.420    22504154.9284
  24318472.231    -4114009.843 7  -3194615.03145  24318476.626    24318489.4574
  21455988.569   -18028365.378 9 -13742951.38047  21455990.407    21456001.2504
 00  3 29  0 39  0.0000000  0  8 13 23 17 26 06 24 08 10
  23520121.656    -6073434.962 8  -4709713.45146  23520125.746    23520136.5704
  24733986.174    -1310831.927 7   -995980.89745  24733978.855    24733998.2704
  22815927.825   -11320004.693 8  -8802008.49246  22815929.176    22815942.1304
  20502619.465   -23573992.190 9 -18347126.81348  20502621.239    20502631.2914
  20997494.833   -21168747.255 9 -16483862.81147  20997498.267    20997508.7924
  22517174.808   -11945247.566 8  -9283632.49546  22517179.301    22517191.2794
  24314773.757    -4133510.566 8  -3209810.29145  24314764.581    24314778.1984
  21467622.750   -17967236.074 9 -13695318.15647  21467622.957    21467633.8334
 00  3 29  0 39 30.0000000  0  8 13 23 17 26 06 24 08 10
  23537093.884    -5984234.349 8  -4640206.54446  23537100.201    23537110.7194
  24719602.680    -1386362.934 7  -1054835.88845  24719606.778    24719625.5924
  22799325.537   -11407228.066 8  -8869974.62046  22799330.374    22799343.8924
  20491574.305   -23632030.468 9 -18392351.36348  20491576.992    20491586.4484
  20999023.449   -21160726.536 9 -16477612.88247  20999025.005    20999034.9834
  22530258.757   -11876497.450 8  -9230061.05246  22530261.892    22530275.2644
  24311153.497    -4152486.301 7  -3224596.48845  24311154.925    24311168.1424
  21479286.258   -17905950.521 9 -13647563.19047  21479285.309    21479295.9414
 00  3 29  0 40  0.0000000  0  8 13 23 17 26 06 24 08 10
  23554132.937    -5894713.849 8  -4570450.36646  23554135.651    23554146.3994
  24705255.956    -1461765.293 7  -1113590.62045  24705258.587    24705275.6874
  22782754.389   -11494333.890 8  -8937849.17746  22782754.924    22782768.3764
  20480645.037   -23689476.772 9 -18437114.62748  20480645.247    20480654.6864
  21000664.880   -21152097.938 9 -16470889.26947  21000667.165    21000677.0114
  22543388.701   -11807495.702 8  -9176293.53146  22543393.479    22543405.2884
  24307636.192    -4170937.149 7  -3238973.68145  24307642.619    24307657.7264
  21490974.190   -17844518.306 9 -13599693.93447  21490975.612    21490986.3684
 00  3 29  0 40 30.0000000  0  8 13 23 17 26 06 24 08 10
  23571230.417    -5804894.122 8  -4500461.03546  23571228.246    23571238.8094
  24690934.273    -1537042.712 7  -1172248.01745  24690933.501    24690950.7284
  22766198.837   -11581314.833 8  -9005626.41246  22766202.841    22766216.2224
  20469822.995   -23746336.027 9 -18481420.45948  20469825.289    20469834.8094
  21002418.746   -21142881.483 9 -16463707.60047  21002420.618    21002430.5814
  22556572.006   -11738229.302 8  -9122319.77346  22556574.692    22556586.8624
  24304226.974    -4188873.621 7  -3252950.07645  24304227.145    24304244.6294
  21502694.010   -17782944.426 9 -13551714.29447  21502692.450    21502703.4374
 00  3 29  0 41  0.0000000  0  8 13 23 17 26 06 24 08 10
  23588378.252    -5714770.729 8  -4430235.10046  23588377.849    23588388.4834
  24676630.042    -1612198.202 7  -1230810.36645  24676632.562    24676649.7894
  22749669.431   -11668169.542 8  -9073305.27446  22749674.295    22749688.8024
  20459109.138   -23802631.607 9 -18525287.06448  20459112.314    20459122.0204
  21004284.874   -21133070.681 9 -16456062.78747  21004287.472    21004297.4174
  22569804.905   -11668693.615 8  -9068136.19746  22569807.051    22569819.1014
  24300910.911    -4206286.688 7  -3266518.61745  24300915.449    24300930.1574
  21514437.300   -17721217.163 9 -13503615.13747  21514438.311    21514449.4464
 00  3 29  0 41 30.0000000  0  8 13 23 17 26 06 24 08 10
  23605579.792    -5624352.853 8  -4359779.69246  23605583.846    23605594.1174
  24662351.725    -1687249.035 7  -1289291.18245  24662349.079    24662366.1604
  22733158.991   -11754923.856 8  -9140905.89646  22733164.713    22733179.2514
  20448506.827   -23858353.093 9 -18568706.31048  20448509.089    20448518.3364
  21006265.916   -21122662.154 9 -16447952.21447  21006268.567    21006278.3644
  22583090.152   -11598893.141 8  -9013746.30046  22583089.507    22583102.3784
  24297700.243    -4223190.611 7  -3279690.40745  24297699.330    24297713.2954
  21526217.100   -17659319.624 9 -13455383.30747  21526217.424    21526228.6994
 00  3 29  0 42  0.0000000  0  8 13 23 17 26 06 24 08 10
  23622838.476    -5533675.132 8  -4289121.78146  23622839.695    23622850.1334
  24648087.143    -1762191.452 7  -1347687.54345  24648088.149    24648105.2794
  22716670.000   -11841606.185 8  -9208450.45946  22716670.430    22716684.0674
  20438012.507   -23913501.608 9 -18611679.09148  20438014.499    20438024.3044
  21008360.921   -21111656.531 9 -16439376.38147  21008362.527    21008372.7664
  22596418.559   -11528834.261 8  -8959155.03146  22596420.421    22596432.7064
  24294569.815    -4239593.390 7  -3292471.73145  24294577.522    24294591.9444
  21538028.279   -17597240.370 9 -13407009.88147  21538030.854    21538041.7204
 00  3 29  0 42 30.0000000  0  8 13 23 17 26 06 24 08 10
  23640144.385    -5442741.857 8  -4218264.74746  23640143.009    23640154.1754
  24633839.511    -1837020.508 7  -1405995.53645  24633848.880    24633863.7274
  22700179.489   -11928245.285 8  -9275961.30746  22700183.567    22700197.0524
  20427624.403   -23968091.924 9 -18654216.91348  20427626.075    20427635.6334
  21010568.900   -21100049.398 9 -16430331.84947  21010571.294    21010581.2554
  22609796.281   -11458536.313 8  -8904377.46146  22609798.196    22609810.4734
  24291552.426    -4255480.852 7  -3304851.46445  24291554.139    24291569.3284
  21549878.851   -17534973.086 9 -13358489.94647  21549880.021    21549890.7974
 00  3 29  0 43  0.0000000  0  8 13 23 17 26 06 24 08 10
  23657493.786    -5351539.090 8  -4147197.71745  23657498.409    23657509.4794
  24619627.719    -1911720.546 7  -1464203.02545  24619631.545    24619649.1514
  22683702.695   -12014845.090 8  -9343441.56346  22683704.447    22683717.3604
  20417342.602   -24022115.446 9 -18696313.07848  20417345.708    20417355.1314
  21012896.716   -21087824.481 9 -16420805.92047  21012897.301    21012907.5754
  22623216.381   -11388008.303 8  -8849420.65246  22623219.639    22623231.2244
  24288628.269    -4270855.113 7  -3316831.36745  24288628.915    24288642.2474
  21561761.130   -17472530.630 9 -13309833.49547  21561761.998    21561773.1734
 00  3 29  0 43 30.0000000  0  8 13 23 17 26 06 24 08 10
  23674899.660    -5260073.481 8  -4075925.86346  23674904.404    23674915.4574
  24605443.124    -1986288.164 7  -1522307.32345  24605442.332    24605459.6214
  22667228.647   -12101400.399 8  -9410887.10046  22667232.363    22667245.8154
  20407173.983   -24075559.964 9 -18737958.08048  20407175.706    20407184.6004
  21015333.776   -21074990.957 9 -16410805.76047  21015338.902    21015349.6954
  22636678.172   -11317252.991 8  -8794286.70946  22636683.483    22636696.2814
  24285803.500    -4285729.582 7  -3328421.78545  24285798.830    24285812.3804
  21573675.931   -17409923.543 9 -13261048.76847  21573675.803    21573687.1824
 00  3 29  0 44  0.0000000  0  8 13 23 17 26 06 24 08 10
  23692353.340    -5168336.939 8  -4004442.93046  23692360.129    23692372.4424
  24591277.655    -2060713.963 7  -1580301.11445  24591278.648    24591296.3744
  22650774.194   -12187893.924 8  -9478284.51646  22650773.088    22650786.1104
  20397107.777   -24128446.751 9 -18779168.48948  20397111.592    20397121.0014
  21017895.466   -21061544.750 9 -16400328.17747  21017897.586    21017907.9594
  22650187.932   -11246265.341 8  -8738971.74646  22650192.284    22650204.9644
  24283062.854    -4300095.762 7  -3339616.14045  24283064.105    24283077.0984
  21585618.369   -17347156.112 9 -13212139.10747  21585620.611    21585631.2874
 00  3 29  0 44 30.0000000  0  8 13 23 17 26 06 24 08 10
  23709871.949    -5076310.787 8  -3932734.30746  23709872.998    23709884.3574
  24577138.415    -2135004.680 7  -1638189.64345  24577141.740    24577159.0144
  22634326.177   -12274309.438 8  -9545621.14846  22634329.666    22634341.5354
  20387151.556   -24180778.492 9 -18819946.39148  20387153.107    20387162.3244
  21020572.880   -21047484.275 9 -16389371.93947  21020573.516    21020583.8334
  22663746.085   -11175032.286 8  -8683465.54746  22663747.222    22663760.9464
  24280434.961    -4313955.488 7  -3350415.87345  24280426.664    24280440.2834
  21597594.586   -17284235.295 9 -13163109.91847  21597594.544    21597604.4184
 00  3 29  0 45  0.0000000  0  8 13 23 17 26 06 24 08 10
  23727432.160    -4984014.260 8  -3860814.97446  23727436.257    23727446.9444
  24563014.635    -2209170.728 7  -1695981.00445  24563027.105    24563047.2534
  22617903.957   -12360632.561 8  -9612885.80146  22617903.079    22617915.1244
  20377299.829   -24232546.810 9 -18860285.26348  20377301.960    20377311.3094
  21023361.998   -21032828.810 9 -16377952.08647  21023362.771    21023372.6734
  22677350.664   -11103541.952 8  -8627758.88746  22677351.286    22677364.0784
  24277877.475    -4327317.185 7  -3360827.51845  24277884.098    24277898.4664
  21609593.122   -17221174.249 9 -13113971.43447  21609594.349    21609604.5054
 00  3 29  0 45 30.0000000  0  8 13 23 17 26 06 24 08 10
  23745047.510    -4891454.749 8  -3788690.71545  23745049.178    23745060.9474
  24548932.576    -2283229.124 7  -1753688.47745  24548934.732    24548950.5634
  22601490.297   -12446863.226 8  -9680078.40546  22601494.048    22601506.1364
  20367556.733   -24283755.227 9 -18900187.84148  20367557.293    20367566.5384
  21026260.470   -21017589.337 9 -16366077.16047  21026262.691    21026273.1194
  22691003.106   -11031784.414 8  -8571844.01946  22691007.075    22691019.7604
  24275439.523    -4340182.855 7  -3370852.64645  24275436.519    24275449.6564
  21621621.532   -17157972.795 9 -13064723.55847  21621620.871    21621631.0494
 00  3 29  0 46  0.0000000  0  8 13 23 17 26 06 24 08 10
  23762709.208    -4798627.338 8  -3716357.73745  23762714.092    23762725.1294
  24534851.982    -2357179.505 7  -1811311.79645  24534861.388    24534879.8284
  22585100.464   -12533002.019 8  -9747199.36946  22585100.899    22585114.4084
  20357917.265   -24334396.072 9 -18939648.16748  20357920.657    20357930.0464
  21029274.019   -21001763.972 9 -16353745.70147  21029273.984    21029284.3274
  22704716.109   -10959752.164 8  -8515715.08446  22704714.334    22704726.8534
  24273082.626    -4352535.075 8  -3380477.71145  24273085.717    24273099.5104
  21633667.562   -17094653.987 9 -13015384.24147  21633669.672    21633680.1944
 00  3 29  0 46 30.0000000  0  8 13 23 17 26 06 24 08 10
  23780425.405    -4705530.273 8  -3643814.62945  23780429.414    23780441.1844
  24520814.285    -2431019.751 7  -1868849.34145  24520811.072    24520828.2874
  22568728.611   -12619044.209 8  -9814245.11646  22568729.322    22568739.6174
  20348395.934   -24384444.410 9 -18978646.79548  20348396.949    20348406.0734
  21032391.712   -20985370.128 9 -16340971.26847  21032393.436    21032403.6614
  22718469.977   -10887449.851 8  -8459375.69546  22718472.850    22718485.3344
  24270832.243    -4364376.263 7  -3389704.55345  24270831.679    24270845.5034
  21645738.887   -17031230.094 9 -12965963.04947  21645738.973    21645749.8174
 00  3 29  0 47  0.0000000  0  8 13 23 17 26 06 24 08 10
  23798196.718    -4612156.572 8  -3571055.97045  23798198.018    23798209.2114
  24506777.887    -2504732.027 7  -1926287.14045  24506782.995    24506799.1044
  22552372.574   -12704986.876 8  -9881213.28846  22552374.719    22552385.9464
  20338986.739   -24433882.317 9 -19017169.77348  20338989.123    20338998.4924
  21035618.132   -20968413.374 9 -16327758.19947  21035620.466    21035630.6464
  22732278.842   -10814884.659 8  -8402831.46546  22732281.403    22732294.2674
  24268672.349    -4375708.031 7  -3398534.45645  24268675.483    24268688.5724
  21657828.077   -16967691.074 9 -12916452.13547  21657830.187    21657840.9644
 00  3 29  0 47 30.0000000  0  8 13 23 17 26 06 24 08 10
  23816016.904    -4518484.195 8  -3498064.56145  23816023.833    23816034.4884
  24492783.806    -2578310.500 7  -1983620.69145  24492781.144    24492799.0134
  22536036.635   -12790821.169 8  -9948097.02046  22536040.128    22536051.2134
  20329693.995   -24482717.102 9 -19055222.77548  20329695.774    20329704.8804
  21038955.206   -20950875.423 9 -16314092.25247  21038957.419    21038967.7104
  22746137.843   -10742057.514 8  -8346083.13146  22746140.450    22746152.8114
  24266623.016    -4386519.858 7  -3406959.17645  24266617.845    24266631.2664
  21669940.954   -16904024.997 9 -12866842.21147  21669945.840    21669956.3904
 00  3 29  0 48  0.0000000  0  8 13 23 17 26 06 24 08 10
  23833905.951    -4424515.175 8  -3424841.99545  23833905.272    23833916.8594
  24478809.697    -2651747.151 7  -2040843.67345  24478807.911    24478823.2764
  22519719.992   -12876546.730 8 -10014896.01146  22519726.347    22519739.0924
  20320516.015   -24530947.089 9 -19092804.51148  20320517.808    20320526.9914
  21042404.247   -20932760.109 9 -16299976.41147  21042404.773    21042415.0754
  22760045.050   -10668978.792 8  -8289138.76246  22760046.651    22760059.3814
  24264659.488    -4396799.826 7  -3414969.51045  24264662.484    24264675.2314
  21682088.085   -16840216.705 9 -12817121.48147  21682087.796    21682098.7014
 00  3 29  0 48 30.0000000  0  8 13 23 17 26 06 24 08 10
  23851837.470    -4330263.522 8  -3351399.22446  23851840.477    23851853.1434
  24464865.627    -2725034.084 8  -2097950.06645  24464861.784    24464877.7444
  22503434.437   -12962160.568 8 -10081607.94946  22503435.061    22503447.0334
  20311455.805   -24578565.451 9 -19129909.65148  20311456.512    20311465.6234
  21045962.040   -20914061.551 9 -16285406.09147  21045963.347    21045973.3544
  22773998.867   -10595658.054 8  -8232005.81046  22773999.073    22774011.4524
  24262803.783    -4406549.005 7  -3422566.19845  24262806.607    24262819.7524
  21694261.365   -16776223.121 9 -12767256.36147  21694265.034    21694275.8754
 00  3 29  0 49  0.0000000  0  8 13 23 17 26 06 24 08 10
  23869816.527    -4235742.560 8  -3277746.58845  23869827.084    23869839.7484
  24450935.734    -2798174.593 7  -2154942.35445  24450943.132    24450960.1044
  22487160.943   -13047665.053 8 -10148234.69346  22487164.388    22487176.1514
  20302508.027   -24625580.352 9 -19166544.57148  20302509.550    20302518.7254
  21049633.344   -20894761.604 9 -16270367.16747  21049635.825    21049646.3214
  22787994.945   -10522100.269 8  -8174688.16246  22787997.126    22788008.4234
  24261053.958    -4415755.312 7  -3429739.90045  24261053.935    24261067.6534
  21706479.765   -16712027.308 9 -12717233.64647  21706481.240    21706491.6324
 00  3 29  0 49 30.0000000  0  8 13 23 17 26 06 24 08 10
  23887854.948    -4140974.271 8  -3203901.24045  23887861.008    23887873.8144
  24437046.424    -2871185.013 7  -2211833.28345  24437048.559    24437066.0784
  22470909.780   -13133066.743 8 -10214781.30346  22470912.088    22470923.7804
  20293672.133   -24672005.411 9 -19202719.86748  20293674.863    20293684.3314
  21053420.962   -20874857.320 9 -16254857.34047  21053423.773    21053433.5634
  22802038.256   -10448316.383 8  -8117194.31046  22802038.029    22802050.5384
  24259412.461    -4424407.033 8  -3436481.42845  24259408.565    24259422.5524
  21718730.940   -16647645.841 9 -12667066.28647  21718732.567    21718743.2934
 00  3 29  0 50  0.0000000  0  8 13 23 17 26 06 24 08 10
  23905929.726    -4045976.213 8  -3129876.85145  23905937.855    23905951.0054
  24423181.024    -2944068.056 7  -2268624.97045  24423178.883    24423194.7414
  22454673.291   -13218378.848 8 -10281258.10346  22454678.124    22454689.0504
  20284953.813   -24717827.410 9 -19238425.24648  20284955.359    20284964.7594
  21057321.080   -20854361.457 9 -16238886.51947  21057324.199    21057333.9914
  22816120.119   -10374308.180 8  -8059525.69346  22816121.441    22816134.6814
  24257860.701    -4432510.084 7  -3442795.44845  24257866.452    24257879.9864
  21731017.833   -16583081.308 8 -12616756.27447  21731018.577    21731029.2134
 00  3 29  0 50 30.0000000  0  8 13 23 17 26 06 24 08 10
  23924060.761    -3950746.937 8  -3055672.29745  23924060.285    23924072.2404
  24409330.909    -3016832.311 7  -2325324.10145  24409333.527    24409349.1434
  22438460.130   -13303591.738 8 -10347657.60646  22438461.690    22438473.9264
  20276347.679   -24763052.946 9 -19273665.85448  20276349.266    20276358.4374
  21061334.807   -20833273.849 9 -16222454.60447  21061336.349    21061346.4514
  22830241.809   -10300071.166 8  -8001678.76646  22830247.982    22830260.9224
  24256425.109    -4440076.534 7  -3448691.33645  24256425.335    24256440.6294
  21743334.777   -16518345.881 9 -12566313.08147  21743337.498    21743347.9014
 00  3 29  0 51  0.0000000  0  8 13 23 17 26 06 24 08 10
  23942229.217    -3855278.237 8  -2981281.17445  23942227.956    23942239.7924
  24395503.749    -3089497.294 8  -2381945.86945  24395504.276    24395521.3684
  22422261.579   -13388724.685 8 -10413994.80746  22422261.496    22422273.5134
  20267851.789   -24807698.633 9 -19308454.63348  20267853.070    20267862.3584
  21065454.544   -20811609.484 9 -16205573.27347  21065458.858    21065468.9564
  22844416.814   -10225598.275 8  -7943648.03746  22844420.276    22844432.6734
  24255084.029    -4447116.728 7  -3454177.12945  24255086.266    24255099.1284
  21755681.241   -16453479.279 9 -12515767.68247  21755681.961    21755692.1414
 00  3 29  0 51 30.0000000  0  8 13 23 17 26 06 24 08 10
  23960435.521    -3759564.274 8  -2906698.93745  23960442.149    23960453.2564
  24381698.385    -3162059.360 8  -2438487.50245  24381695.780    24381712.4274
  22406074.764   -13473780.850 8 -10480272.17146  22406076.783    22406087.3694
  20259465.211   -24851767.970 9 -19342794.31048  20259467.008    20259476.2944
  21069687.912   -20789381.209 9 -16188252.53147  21069689.200    21069698.7354
  22858637.605   -10150880.716 8  -7885426.62546  22858637.856    22858650.2544
  24253854.403    -4453638.673 7  -3459259.04045  24253846.347    24253859.8704
  21768047.340   -16388507.569 9 -12465140.37847  21768046.183    21768055.2414
 00  3 29  0 52  0.0000000  0  8 13 23 17 26 06 24 08 10
  23978704.858    -3663593.919 8  -2831916.90045  23978705.183    23978716.1754
  24367907.691    -3234504.436 7  -2494937.92845  24367909.059    24367926.7694
  22389907.284   -13558746.427 8 -10546478.97946  22389907.965    22389919.2234
  20251191.141   -24895247.367 9 -19376674.29348  20251193.672    20251202.3234
  21074025.593   -20766586.063 9 -16170490.06647  21074027.170    21074036.9324
  22872899.705   -10075907.425 8  -7827005.98646  22872905.234    22872918.3824
  24252704.536    -4459650.164 7  -3463943.30045  24252701.177    24252714.3684
  21780425.360   -16323429.742 9 -12414430.38747  21780429.312    21780439.5234
 00  3 29  0 52 30.0000000  0  8 13 23 17 26 06 24 08 10
  23997015.039    -3567370.268 8  -2756937.48945  23997015.845    23997027.2464
  24354147.962    -3306820.376 8  -2551287.73345  24354149.636    24354165.2374
  22373757.970   -13643607.218 8 -10612604.11746  22373759.284    22373770.5664
  20243029.026   -24938135.629 9 -19410093.65248  20243031.935    20243041.2554
  21078470.273   -20743215.252 9 -16152279.03847  21078474.342    21078483.9114
  22887217.324   -10000686.847 8  -7768392.65446  22887219.247    22887231.6534
  24251649.676    -4465142.802 7  -3468223.21645  24251656.357    24251669.7294
  21792830.008   -16258253.307 9 -12363643.56447  21792831.645    21792842.2334
 00  3 29  0 53  0.0000000  0  8 13 23 17 26 06 24 08 10
  24015366.480    -3470911.315 8  -2681774.72345  24015370.897    24015383.0434
  24340412.070    -3378990.973 8  -2607524.29945  24340416.168    24340431.9214
  22357626.824   -13728369.149 8 -10678652.22246  22357628.664    22357640.5494
  20234981.778   -24980428.019 9 -19443048.70048  20234984.100    20234993.2594
  21083029.083   -20719264.545 9 -16133616.14547  21083032.186    21083041.2394
  22901578.095    -9925227.980 8  -7709593.63446  22901578.667    22901591.0094
  24250714.737    -4470091.352 7  -3472079.16045  24250712.929    24250727.4644
  21805251.292   -16192981.068 8 -12312782.08347  21805252.464    21805263.6384
 00  3 29  0 53 30.0000000  0  8 13 23 17 26 06 24 08 10
  24033772.771    -3374228.075 8  -2606437.20845  24033768.525    24033782.0404
  24326710.659    -3450997.364 8  -2663632.90545  24326712.736    24326728.9194
  22341522.873   -13812999.533 8 -10744597.82547  22341524.377    22341536.7164
  20227046.938   -25022115.374 9 -19475532.28648  20227051.250    20227060.1134
  21087700.953   -20694725.214 9 -16114494.57247  21087702.113    21087710.9624
  22915976.498    -9849536.241 8  -7650613.17046  22915982.337    22915995.0214
  24249881.544    -4474480.746 7  -3475499.43345  24249879.323    24249892.8094
  21817691.770   -16127593.330 9 -12261830.60447  21817695.742    21817706.2404
 00  3 29  0 54  0.0000000  0  8 13 23 17 26 06 24 08 10
  24052204.467    -3277336.301 8  -2530937.21045  24052206.562    24052220.0644
  24313037.010    -3522855.047 8  -2719625.65045  24313037.378    24313053.5124
  22325440.074   -13897498.493 8 -10810441.02047  22325445.341    22325456.7274
  20219231.655   -25063189.760 9 -19507538.24448  20219234.871    20219243.7384
  21092480.263   -20669594.479 9 -16094912.16447  21092483.898    21092493.4334
  22930431.101    -9773614.434 8  -7591453.42746  22930429.735    22930442.7244
  24249152.384    -4478306.341 7  -3478480.36845  24249151.070    24249164.8784
  21830165.069   -16062066.408 8 -12210770.67447  21830164.842    21830175.4924
 00  3 29  0 54 30.0000000  0  8 13 23 17 26 06 24 08 10
  24070674.220    -3180239.005 8  -2455277.07545  24070683.806    24070696.9034
  24299385.609    -3594585.578 8  -2775519.34245  24299388.059    24299403.8844
  22309389.199   -13981879.081 8 -10876191.99147  22309387.938    22309399.9374
  20211530.133   -25103666.038 9 -19539078.14848  20211532.257    20211541.7914
  21097376.092   -20643881.894 9 -16074876.38147  21097376.454    21097386.5974
  22944917.330    -9697466.407 8  -7532117.38746  22944920.233    22944933.7834
  24248532.569    -4481568.207 7  -3481022.01545  24248531.529    24248543.6974
  21842663.463   -15996392.675 9 -12159596.35247  21842662.114    21842672.9594
 00  3 29  0 55  0.0000000  0  8 13 23 17 26 06 24 08 10
  24089205.279    -3082930.092 8  -2379452.01545  24089201.557    24089213.6624
  24285749.019    -3666201.900 8  -2831324.04445  24285759.248    24285774.7974
  22293350.309   -14066145.402 8 -10941853.93447  22293352.732    22293363.7624
  20203940.206   -25143546.374 9 -19570153.67148  20203943.408    20203952.3534
  21102377.376   -20617596.141 9 -16054393.96947  21102378.864    21102388.4564
  22959460.553    -9621076.193 8  -7472592.65646  22959457.486    22959469.5744
  24248006.270    -4484277.828 7  -3483133.31445  24248014.237    24248028.3454
  21855188.401   -15930567.181 9 -12108303.77047  21855188.531    21855199.4604
 00  3 29  0 55 30.0000000  0  8 13 23 17 26 06 24 08 10
  24107759.222    -2985399.333 8  -2303454.06445  24107761.389    24107773.2624
  24272153.646    -3737714.964 8  -2887048.31745  24272152.659    24272165.8314
  22277336.497   -14150296.670 8 -11007426.21747  22277338.986    22277351.0424
  20196467.376   -25182819.861 9 -19600756.33048  20196469.768    20196479.0574
  21107488.971   -20590732.052 9 -16033460.90047  21107490.644    21107500.8024
  22974034.160    -9544432.427 8  -7412870.33146  22974041.860    22974054.6454
  24247600.955    -4486463.591 7  -3484836.45245  24247598.215    24247612.3294
  21867741.933   -15864585.304 9 -12056889.33847  21867744.491    21867755.5224
 00  3 29  0 56  0.0000000  0  8 13 23 17 26 06 24 08 10
  24126358.051    -2887642.311 8  -2227279.80045  24126363.452    24126375.5064
  24258561.436    -3809128.340 8  -2942694.84645  24258562.678    24258578.1814
  22261341.637   -14234351.137 8 -11072923.07647  22261343.109    22261355.6234
  20189108.376   -25221493.221 9 -19630891.36148  20189110.646    20189119.5904
  21112709.469   -20563281.966 9 -16012071.21647  21112714.495    21112724.1794
  22988679.256    -9467536.816 8  -7352951.77246  22988674.816    22988686.7574
  24247270.894    -4488143.800 7  -3486145.66345  24247276.844    24247291.4544
  21880330.620   -15798449.320 9 -12005354.82547  21880329.614    21880339.7574
 00  3 29  0 56 30.0000000  0  8 13 23 17 26 06 24 08 10
  24145011.475    -2789649.678 8  -2150921.96745  24145010.844    24145023.6924
  24244999.547    -3880413.201 8  -2998241.29145  24244997.006    24245011.6924
  22245361.926   -14318296.067 8 -11138334.58347  22245368.947    22245380.9884
  20181859.560   -25259578.568 9 -19660568.19848  20181863.031    20181872.1034
  21118048.491   -20535239.398 9 -15990219.85347  21118050.754    21118060.3504
  23003352.400    -9390385.783 8  -7292834.18046  23003356.228    23003369.8894
  24247060.675    -4489306.341 7  -3487051.47945  24247057.046    24247071.1734
  21892944.619   -15732172.476 9 -11953710.54847  21892942.303    21892952.3984
 00  3 29  0 57  0.0000000  0  8 13 23 17 26 06 24 08 10
  24163693.989    -2691435.266 8  -2074391.33045  24163700.626    24163713.4854
  24231457.443    -3951547.609 8  -3053670.52745  24231459.925    24231474.5594
  22229415.469   -14402121.059 8 -11203652.64547  22229417.719    22229429.2964
  20174728.859   -25297064.271 9 -19689777.77748  20174729.788    20174738.4564
  21123499.720   -20506591.780 9 -15967897.03447  21123502.378    21123512.0524
  23018089.575    -9312982.664 8  -7232520.16346  23018086.079    23018099.1464
  24246936.524    -4489935.401 7  -3487541.59545  24246938.485    24246952.2594
  21905581.445   -15665759.178 9 -11901959.94547  21905580.138    21905590.5654
 00  3 29  0 57 30.0000000  0  8 13 23 17 26 06 24 08 10
  24182434.511    -2593006.502 8  -1997693.64445  24182431.943    24182443.2604
  24217941.036    -4022533.804 8  -3108984.24645  24217950.205    24217965.9494
  22213489.184   -14485818.421 8 -11268871.26147  22213491.003    22213502.7544
  20167706.391   -25333956.601 9 -19718524.99348  20167709.116    20167717.7664
  21129068.685   -20477337.025 9 -15945101.10847  21129069.309    21129079.2054
  23032861.740    -9235343.068 8  -7172021.88746  23032860.381    23032872.9894
  24246921.784    -4490016.349 7  -3487604.62645  24246922.714    24246935.1974
  21918242.883   -15599210.435 8 -11850103.79247  21918243.378    21918254.5594
 00  3 29  0 58  0.0000000  0  8 13 23 17 26 06 24 08 10
  24201188.468    -2494367.956 8  -1920832.50345  24201201.436    24201213.3864
  24204468.580    -4093373.208 8  -3164183.57045  24204471.029    24204485.8134
  22197584.712   -14569379.090 8 -11333983.34347  22197588.780    22197601.8304
  20160799.591   -25370260.008 9 -19746813.30648  20160801.097    20160809.4604
  21134746.844   -20447497.621 9 -15921849.61447  21134747.519    21134757.3094
  23047671.626    -9157470.030 8  -7111341.72346  23047678.549    23047691.6704
  24247010.563    -4489523.543 7  -3487220.60745  24247015.974    24247028.7764
  21930931.351   -15532530.804 8 -11798145.65047  21930932.148    21930943.4204
 00  3 29  0 58 30.0000000  0  8 13 23 17 26 06 24 08 10
  24220008.541    -2395534.038 8  -1843819.09745  24220008.796    24220020.9514
  24191014.043    -4164084.622 8  -3219283.20245  24191015.405    24191029.6264
  22181712.850   -14652792.910 8 -11398981.00447  22181715.729    22181728.9854
  20154006.663   -25405953.277 9 -19774626.18648  20154008.687    20154017.5004
  21140532.117   -20417093.264 9 -15898157.90247  21140533.168    21140543.3274
  23062542.755    -9079365.511 8  -7050481.16046  23062541.875    23062555.2124
  24247230.202    -4488442.030 7  -3486377.79545  24247221.887    24247235.6414
  21943641.696   -15465729.995 8 -11746093.09947  21943644.019    21943655.2404
 00  3 29  0 59  0.0000000  0  8 13 23 17 26 06 24 08 10
  24238843.338    -2296513.047 7  -1766659.93645  24238851.346    24238863.8414
  24177581.182    -4234691.440 8  -3274301.29545  24177577.532    24177593.7614
  22165867.376   -14736069.331 8 -11463871.61247  22165869.496    22165881.3844
  20147335.829   -25441014.288 9 -19801946.39648  20147336.781    20147345.5184
  21146422.304   -20386143.843 9 -15874041.47547  21146422.970    21146432.7344
  23077446.476    -9001035.253 8  -6989444.70146  23077447.481    23077460.9554
  24247521.679    -4486801.228 7  -3485099.22945  24247534.873    24247548.7884
  21956376.521   -15398804.683 8 -11693943.52547  21956379.412    21956390.0284
 00  3 29  0 59 30.0000000  0  8 13 23 17 26 06 24 08 10
  24257728.858    -2197296.172 8  -1689348.15445  24257732.098    24257745.7904
  24164160.787    -4305207.768 8  -3329248.86545  24164159.831    24164174.9034
  22150045.737   -14819208.716 8 -11528655.43547  22150047.755    22150059.9234
  20140783.191   -25475443.894 9 -19828774.60148  20140784.944    20140793.8154
  21152411.403   -20354663.554 9 -15849511.37547  21152413.358    21152423.3684
  23092392.272    -8922475.829 8  -6928229.68946  23092397.150    23092410.5394
  24247953.753    -4484623.326 7  -3483402.13845  24247948.214    24247960.8444
  21969135.747   -15331769.961 8 -11641708.70547  21969135.793    21969146.4174
 00  3 29  1  0  0.0000000  0  8 13 23 17 26 06 24 08 10
  24276642.664    -2097887.780 8  -1611887.12145  24276648.986    24276662.2734
  24150752.198    -4375624.900 8  -3384119.16345  24150758.484    24150776.1574
  22134247.444   -14902211.076 8 -11593332.48947  22134252.682    22134265.1744
  20134350.866   -25509234.497 9 -19855104.88148  20134354.547    20134363.5674
  21158503.971   -20322642.500 9 -15824559.90247  21158506.371    21158516.3834
  23107387.837    -8843685.367 8  -6866834.65546  23107390.335    23107402.8984
  24248449.917    -4481923.616 7  -3481298.41145  24248461.063    24248475.9914
  21981910.679   -15264641.340 9 -11589400.70647  21981910.485    21981920.5654
 00  3 29  1  0 30.0000000  0  8 13 23 17 26 06 24 08 10
  24295601.686    -1998297.965 8  -1534284.72445  24295600.476    24295613.3694
  24137378.567    -4445935.356 8  -3438906.30045  24137379.294    24137395.3184
  22118483.225   -14985081.104 8 -11657906.42947  22118483.501    22118496.0454
  20128044.154   -25542388.923 9 -19880939.45148  20128045.677    20128054.3444
  21164703.121   -20290059.931 9 -15799170.89047  21164706.473    21164716.9324
  23122423.617    -8764663.255 8  -6805259.09046  23122428.475    23122440.8984
  24249068.701    -4478719.291 7  -3478801.47045  24249071.994    24249085.0234
  21994700.134   -15197422.614 8 -11537022.49047  21994701.580    21994712.1744
 00  3 29  1  1  0.0000000  0  8 13 23 17 26 06 24 08 10
  24314582.553    -1898518.538 8  -1456534.57645  24314587.599    24314600.2854
  24124025.970    -4516119.869 8  -3493595.31045  24124024.252    24124039.1964
  22102738.654   -15067820.773 8 -11722378.77147  22102738.561    22102750.8134
  20121852.956   -25574914.095 9 -19906283.68348  20121856.383    20121865.1104
  21171010.290   -20256908.683 9 -15773338.75247  21171014.806    21171025.0834
  23137515.363    -8685404.226 8  -6743498.91046  23137510.947    23137522.7544
  24249782.979    -4475019.401 7  -3475918.43045  24249776.684    24249789.5934
  22007508.104   -15130117.220 8 -11484576.75747  22007509.009    22007520.2984
 00  3 29  1  1 30.0000000  0  8 13 23 17 26 06 24 08 10
  24333605.677    -1798554.015 8  -1378640.21745  24333610.092    24333623.3234
  24110683.281    -4586172.882 8  -3548181.90145  24110692.179    24110707.1114
  22087016.969   -15150414.791 8 -11786737.61547  22087020.455    22087033.3174
  20115783.154   -25606819.909 9 -19931145.30248  20115784.869    20115793.5584
  21177429.881   -20223178.010 9 -15747055.11647  21177433.496    21177444.3484
  23152637.935    -8605906.186 8  -6681552.51746  23152637.544    23152652.0344
  24250580.310    -4470798.695 7  -3472629.52145  24250579.812    24250593.3634
  22020331.654   -15062729.850 8 -11432067.13647  22020332.674    22020344.0074
 00  3 29  1  2  0.0000000  0  8 13 23 17 26 06 24 08 10
  24352659.080    -1698414.396 8  -1300609.41445  24352667.132    24352678.6514
  24097387.946    -4656087.923 8  -3602660.92445  24097388.792    24097401.8394
  22071328.644   -15232867.723 8 -11850986.54447  22071330.326    22071342.7364
  20109829.923   -25638102.878 9 -19955521.58848  20109832.103    20109840.7584
  21183959.347   -20188863.731 9 -15720316.72347  21183963.135    21183973.7614
  23167805.362    -8526163.205 8  -6619415.27146  23167812.209    23167826.8714
  24251480.948    -4466033.973 7  -3468916.71945  24251484.789    24251497.9074
  22033174.265   -14995241.711 8 -11379479.00247  22033175.556    22033186.4684
 00  3 29  1  2 30.0000000  0  8 13 23 17 26 06 24 08 10
  24371749.321    -1598090.978 8  -1222435.37245  24371758.155    24371769.6004
  24084106.019    -4725868.418 8  -3657035.13645  24084109.935    24084123.5314
  22055666.690   -15315175.772 8 -11915122.55347  22055668.509    22055680.0564
  20103993.354   -25668763.434 9 -19979412.87248  20103997.161    20104006.0964
  21190595.984   -20153988.520 9 -15693141.24447  21190599.950    21190610.3114
  23183032.882    -8446168.613 8  -6557081.94646  23183035.275    23183049.7214
  24252501.059    -4460714.906 7  -3464771.94345  24252498.700    24252511.7214
  22046041.543   -14927634.150 9 -11326797.80047  22046040.866    22046051.9124
 00  3 29  1  3  0.0000000  0  8 13 23 17 26 06 24 08 10
  24390881.451    -1497580.845 8  -1144115.82845  24390883.680    24390896.4004
  24070851.619    -4795520.571 8  -3711309.30245  24070854.259    24070869.9484
  22040034.205   -15397325.959 8 -11979135.56847  22040035.802    22040047.1784
  20098278.939   -25698804.571 9 -20002821.50148  20098280.560    20098289.3324
  21197341.496   -20118562.385 9 -15665536.47547  21197341.685    21197351.4294
  23198308.083    -8365928.547 8  -6494557.38446  23198305.036    23198318.8624
  24253621.584    -4454822.414 7  -3460180.34245  24253619.335    24253631.9564
  22058928.482   -14859899.609 9 -11274017.64847  22058930.124    22058940.9744
 00  3 29  1  3 30.0000000  0  8 13 23 17 26 06 24 08 10
  24410043.014    -1396888.883 8  -1065654.64645  24410044.805    24410057.7954
  24057629.721    -4865043.535 8  -3765482.81945  24057625.812    24057640.1844
  22024430.539   -15479308.075 8 -12043017.61047  22024434.585    22024447.2104
  20092676.245   -25728240.466 9 -20025758.50548  20092678.804    20092688.0134
  21204187.156   -20082582.313 9 -15637500.05647  21204188.606    21204198.5414
  23213612.685    -8285441.234 8  -6431840.11746  23213621.752    23213634.6764
  24254851.557    -4448352.535 7  -3455138.85145  24254850.354    24254864.7664
  22071847.997   -14792024.289 8 -11221127.81247  22071846.307    22071856.9154
 00  3 29  1  4  0.0000000  0  8 13 23 17 26 06 24 08 10
  24429234.991    -1296009.677 8   -987047.54445  24429241.260    24429254.1334
  24044423.172    -4934431.237 8  -3819550.92445  24044421.231    24044436.8244
  22008862.082   -15561124.864 8 -12106770.82347  22008865.449    22008876.9824
  20087191.260   -25757067.585 9 -20048221.14848  20087193.443    20087202.2924
  21211136.683   -20046050.876 9 -15609034.01247  21211140.590    21211150.5364
  23228975.026    -8204712.409 8  -6368934.68646  23228983.395    23228997.9014
  24256173.982    -4441315.565 7  -3449655.42845  24256190.247    24256203.1814
  22084787.347   -14724009.325 8 -11168129.15547  22084788.920    22084799.4804
 00  3 29  1  4 30.0000000  0  8 13 23 17 26 06 24 08 10
  24448462.307    -1194945.842 8   -908296.58245  24448473.524    24448486.3394
  24031237.590    -5003688.225 8  -3873517.17545  24031241.279    24031256.9674
  21993322.575   -15642768.572 8 -12170389.17847  21993328.801    21993339.5474
  20081822.692   -25785278.485 9 -20070203.62248  20081825.086    20081833.6504
  21218190.004   -20008985.656 9 -15580152.03747  21218193.605    21218203.4664
  23244388.790    -8123758.257 8  -6305853.65646  23244388.557    23244402.5934
  24257642.677    -4433729.376 7  -3443744.13545  24257633.407    24257647.2064
  22097752.763   -14655863.876 8 -11115028.82147  22097756.568    22097767.5204
 00  3 29  1  5  0.0000000  0  8 13 23 17 26 06 24 08 10
  24467741.808    -1093705.475 8   -829408.04845  24467738.878    24467751.8594
  24018082.639    -5072813.935 8  -3927381.14345  24018086.925    24018101.2894
  21977823.306   -15724254.992 8 -12233884.98047  21977823.130    21977834.2754
  20076573.746   -25812867.753 9 -20091701.70748  20076575.083    20076583.5714
  21225350.528   -19971371.894 9 -15550842.61547  21225351.753    21225361.0354
  23259828.605    -8042588.421 8  -6242604.57846  23259834.894    23259847.9464
  24259184.578    -4425603.112 7  -3437411.96445  24259181.478    24259190.7654
  22110743.029   -14587600.008 8 -11061836.20447  22110746.552    22110757.8904
 00  3 29  1  5 30.0000000  0  8 13 23 17 26 06 24 08 10
  24487038.465     -992277.458 7   -750373.30145  24487041.298    24487052.5424
  24004953.695    -5141804.280 8  -3981139.60045  24004957.697    24004972.4664
  21962340.512   -15805608.777 9 -12297277.40747  21962342.086    21962352.6334
  20071443.357   -25839827.920 9 -20112709.58048  20071444.611    20071453.2724
  21232611.524   -19933212.022 9 -15521107.65647  21232612.706    21232622.2054
  23275319.014    -7961199.907 8  -6179185.09246  23275322.270    23275336.4024
  24260827.194    -4416950.781 7  -3430669.86245  24260826.630    24260838.9364
  22123758.102   -14519226.965 8 -11008558.54247  22123757.848    22123769.1244
 00  3 29  1  6  0.0000000  0  8 13 23 17 26 06 24 08 10
  24506389.879     -890661.471 8   -671192.07445  24506378.447    24506388.7804
  23991851.978    -5210664.638 8  -4034796.79345  23991854.634    23991868.3744
  21946876.467   -15886851.291 8 -12360583.13547  21946881.606    21946892.5094
  20066432.610   -25866151.478 9 -20133221.39448  20066435.485    20066444.0154
  21239976.201   -19894508.337 9 -15490948.94747  21239977.951    21239987.4614
  23290851.237    -7879600.133 8  -6115600.99546  23290851.350    23290864.3454
  24262571.528    -4407761.860 7  -3423509.60145  24262573.424    24262586.1514
  22136784.296   -14450753.703 8 -10955202.78347  22136787.663    22136799.1304
 00  3 29  1  6 30.0000000  0  8 13 23 17 26 06 24 08 10
  24525749.545     -788863.524 7   -591869.06645  24525747.961    24525760.5034
  23978770.507    -5279393.726 8  -4088351.72145  23978775.765    23978789.2984
  21931440.063   -15967989.519 9 -12423807.61547  21931441.446    21931452.2014
  20061542.713   -25891854.523 9 -20153249.69048  20061544.393    20061552.9524
  21247447.680   -19855246.033 9 -15460354.94647  21247449.278    21247459.0534
  23306417.120    -7797784.956 8  -6051849.05346  23306420.754    23306433.9394
  24264430.001    -4398031.873 7  -3415927.77545  24264425.381    24264438.9064
  22149833.739   -14382174.535 8 -10901764.49247  22149837.837    22149849.0834
 00  3 29  1  7  0.0000000  0  8 13 23 17 26 06 24 08 10
  24545150.669     -686884.914 7   -512405.29445  24545153.489    24545165.9974
  23965717.985    -5347983.416 8  -4141798.01045  23965723.608    23965738.3834
  21916021.006   -16049015.390 9 -12486944.52647  21916023.130    21916033.3404
  20056766.491   -25916957.677 9 -20172810.53448  20056767.219    20056775.6604
  21255028.519   -19815399.431 9 -15429305.65847  21255031.612    21255041.8834
  23322032.882    -7715744.586 8  -5987921.62146  23322032.725    23322045.3904
  24266379.198    -4387751.133 7  -3407916.81445  24266381.970    24266394.9154
  22162910.532   -14313483.553 8 -10848239.07947  22162910.492    22162920.1144
 00  3 29  1  7 30.0000000  0  8 13 23 17 26 06 24 08 10
  24564581.775     -584736.262 7   -432808.99745  24564593.212    24564604.9984
  23952697.865    -5416434.844 8  -4195136.58045  23952697.026    23952711.7254
  21900629.250   -16129900.609 9 -12549971.85547  21900631.086    21900641.0194
  20052100.489   -25941464.479 9 -20191906.69948  20052103.438    20052112.1164
  21262720.280   -19774977.442 9 -15397808.01347  21262723.465    21262733.8234
  23337687.460    -7633475.640 8  -5923816.09446  23337686.706    23337700.7834
  24268442.642    -4376903.191 7  -3399463.87045  24268444.996    24268459.3764
  22176001.187   -14244676.605 8 -10794623.29347  22176003.943    22176013.6434
 00  3 29  1  8  0.0000000  0  8 13 23 17 26 06 24 08 10
  24584049.579     -482444.762 7   -353101.39945  24584060.023    24584070.4634
  23939693.833    -5484747.285 8  -4248366.81346  23939697.096    23939712.6744
  21885268.781   -16210609.858 9 -12612862.07247  21885272.063    21885283.2674
  20047552.601   -25965374.313 9 -20210537.69948  20047553.699    20047562.1324
  21270521.897   -19733979.953 9 -15365861.93847  21270525.000    21270535.2934
  23353376.451    -7550980.518 8  -5859534.33246  23353385.513    23353399.5514
  24270616.758    -4365488.146 7  -3390569.03045  24270619.409    24270631.4174
  22189121.073   -14175752.142 8 -10740915.93247  22189118.754    22189130.1944
 00  3 29  1  8 30.0000000  0  8 13 23 17 26 06 24 08 10
  24603553.898     -380028.831 8   -273296.84745  24603548.961    24603559.7254
  23926726.535    -5552925.192 8  -4301492.23646  23926723.184    23926737.9914
  21869948.673   -16291109.560 8 -12675588.99647  21869952.782    21869964.6084
  20043116.925   -25988678.005 9 -20228696.37648  20043119.034    20043127.6734
  21278430.308   -19692420.575 9 -15333478.01147  21278434.041    21278443.8234
  23369120.373    -7468256.261 8  -5795073.98246  23369127.332    23369141.3824
  24272896.585    -4353517.865 7  -3381241.53645  24272896.987    24272908.9794
  22202256.730   -14106714.466 8 -10687120.36447  22202256.534    22202267.1474
 00  3 29  1  9  0.0000000  0  8 13 23 17 26 06 24 08 10
  24623057.205     -277491.322 7   -193397.54145  24623061.150    24623069.9634
  23913772.122    -5620980.895 8  -4354522.46245  23913773.081    23913786.6854
  21854672.364   -16371393.509 8 -12738147.80747  21854675.278    21854686.9814
  20038802.069   -26011353.078 9 -20246365.22348  20038804.223    20038813.0754
  21286441.948   -19650324.745 9 -15300676.07047  21286444.434    21286454.8354
  23384913.244    -7385298.907 8  -5730432.04146  23384914.520    23384928.7134
  24275271.537    -4340989.217 7  -3371478.89945  24275280.136    24275295.3924
  22215410.697   -14037573.192 8 -10633244.06447  22215413.241    22215424.0144
 00  3 29  1  9 30.0000000  0  8 13 23 17 26 06 24 08 10
  24642588.473     -174831.956 7   -113403.28145  24642597.702    24642608.7294
  23900839.514    -5688925.727 8  -4407466.31545  23900842.948    23900857.9374
  21839433.658   -16451469.943 8 -12800544.93847  21839437.101    21839448.6354
  20034607.857   -26033391.332 9 -20263537.84448  20034610.488    20034619.0294
  21294551.758   -19607709.329 9 -15267469.28047  21294554.185    21294564.3454
  23400747.070    -7302105.256 8  -5665605.94546  23400745.300    23400758.6144
  24277762.932    -4327903.607 7  -3361282.33045  24277771.571    24277784.7224
  22228587.678   -13968338.548 8 -10579295.02247  22228588.933    22228600.1464
 00  3 29  1 10  0.0000000  0  8 13 23 17 26 06 24 08 10
  24662151.936      -72049.811 7    -33313.34245  24662154.854    24662165.8064
  23887934.446    -5756763.202 8  -4460326.46945  23887934.214    23887947.5754
  21824232.456   -16531347.974 8 -12862787.47147  21824236.392    21824248.0374
  20030535.145   -26054793.582 9 -20280214.88548  20030537.618    20030546.2264
  21302760.961   -19564574.690 9 -15233857.88547  21302762.271    21302772.7114
  23416608.818    -7218679.436 8  -5600598.97146  23416619.270    23416635.0784
  24280365.326    -4314271.352 7  -3350659.79645  24280365.626    24280379.3404
  22241785.079   -13899008.831 9 -10525271.90147  22241782.455    22241793.0484
 00  3 29  1 10 30.0000000  0  8 13 23 17 26 06 24 08 10
  24681742.025       30878.741 8     46890.65245  24681741.434    24681754.1654
  23875040.812    -5824507.840 8  -4513114.34845  23875042.902    23875056.2134
  21809069.933   -16611046.020 8 -12924889.77247  21809070.113    21809081.9384
  20026582.907   -26075560.765 9 -20296397.05648  20026585.560    20026594.2734
  21311067.526   -19520922.632 9 -15199843.31047  21311068.646    21311078.8574
  23432540.842    -7135025.827 8  -5535414.49846  23432538.417    23432552.7454
  24283069.523    -4300092.924 8  -3339611.65945  24283064.234    24283076.2554
  22254991.967   -13829583.603 8 -10471174.35947  22254992.843    22255003.3314
 00  3 29  1 11  0.0000000  0  8 13 23 17 26 06 24 08 10
  24701352.341      133974.633 7    127225.03645  24701358.858    24701372.6854
  23862167.528    -5892155.618 8  -4565826.69446  23862169.779    23862183.7754
  21793931.687   -16690577.846 8 -12986862.52947  21793935.788    21793947.3034
  20022752.688   -26095704.092 9 -20312093.10948  20022752.721    20022761.1604
  21319474.703   -19476752.236 9 -15165424.82847  21319474.113    21319484.1364
  23448495.733    -7051157.133 8  -5470062.42946  23448499.933    23448513.3854
  24285855.764    -4285367.622 7  -3328137.37645  24285864.794    24285877.8974
  22268217.752   -13760050.007 8 -10416992.35347  22268224.253    22268234.7244
 00  3 29  1 11 30.0000000  0  8 13 23 17 26 06 24 08 10
  24721009.420      237236.084 7    207688.43045  24721010.665    24721022.3844
  23849316.509    -5959697.836 8  -4618456.80846  23849317.713    23849331.4804
  21778832.214   -16769935.648 8 -13048699.68447  21778834.805    21778846.5944
  20019033.862   -26115230.685 9 -20327308.59948  20019036.933    20019045.5694
  21327977.834   -19432063.506 9 -15130602.44447  21327978.232    21327987.7034
  23464503.009    -6967084.526 8  -5404551.43346  23464499.229    23464511.9584
  24288772.590    -4270100.518 7  -3316240.93345  24288771.246    24288784.1794
  22281474.207   -13690401.925 8 -10362721.14147  22281478.519    22281489.0024
 00  3 29  1 12  0.0000000  0  8 13 23 17 26 06 24 08 10
  24740691.363      340662.932 8    288280.72445  24740691.895    24740702.6714
  23836486.657    -6027122.820 8  -4670995.59946  23836486.590    23836500.5304
  21763766.215   -16849117.876 9 -13110400.03447  21763766.851    21763777.8784
  20015438.851   -26134131.179 9 -20342036.21648  20015440.281    20015448.6104
  21336579.861   -19386855.861 9 -15095375.72147  21336581.160    21336591.0874
  23480535.390    -6882812.735 8  -5338885.25946  23480534.791    23480549.9744
  24291772.431    -4254295.629 7  -3303925.44145  24291776.111    24291791.4154
  22294755.981   -13620634.609 8 -10308357.01847  22294755.467    22294765.6464
 00  3 29  1 12 30.0000000  0  8 13 23 17 26 06 24 08 10
  24760400.281      444254.805 8    369001.61345  24760404.797    24760415.5494
  23823678.745    -6094423.384 8  -4723437.38146  23823678.636    23823692.8764
  21748727.002   -16928128.215 8 -13171966.45447  21748731.727    21748742.4874
  20011960.475   -26152404.266 9 -20356274.94148  20011962.880    20011971.5774
  21345283.206   -19341125.356 9 -15059741.58347  21345283.809    21345293.3064
  23496601.739    -6798329.951 8  -5273054.67146  23496609.684    23496626.0184
  24294887.070    -4237949.362 7  -3291188.05345  24294889.333    24294902.0614
  22308053.875   -13550750.311 8 -10253901.75247  22308053.427    22308063.9574
 00  3 29  1 13  0.0000000  0  8 13 23 17 26 06 24 08 10
  24780149.358      547981.176 7    449827.31345  24780142.394    24780155.7164
  23810893.549    -6161584.949 8  -4775770.89846  23810897.844    23810912.8294
  21733725.722   -17006955.804 8 -13233390.47047  21733731.138    21733742.3474
  20008604.190   -26170054.090 9 -20370028.00748  20008604.218    20008612.6074
  21354083.918   -19294870.183 9 -15023698.61047  21354085.197    21354094.9294
  23512730.848    -6713627.414 8  -5207052.87946  23512729.631    23512744.3854
  24298095.842    -4221054.951 7  -3278023.57645  24298103.638    24298116.1704
  22321368.384   -13480755.262 8 -10199360.19046  22321372.508    22321383.2124
 00  3 29  1 13 30.0000000  0  8 13 23 17 26 06 24 08 10
  24799899.079      651823.367 7    530743.24045  24799902.823    24799915.3734
  23798142.525    -6228605.481 8  -4827994.52446  23798145.400    23798158.8784
  21718765.044   -17085591.824 8 -13294665.20547  21718767.589    21718778.1624
  20005362.928   -26187074.103 9 -20383290.32148  20005365.149    20005373.6174
  21362989.139   -19248076.962 9 -14987236.38447  21362989.696    21362999.1824
  23528896.118    -6628691.709 8  -5140869.36346  23528892.727    23528907.2094
  24301429.164    -4203613.612 7  -3264432.87745  24301422.378    24301434.6954
  22334707.041   -13410666.055 8 -10144745.25746  22334710.366    22334720.9574
 00  3 29  1 14  0.0000000  0  8 13 23 17 26 06 24 08 10
  24819677.811      755771.283 7    611741.56145  24819683.591    24819694.8304
  23785414.351    -6295491.437 8  -4880113.28746  23785416.954    23785431.0134
  21703839.141   -17164037.115 9 -13355791.31947  21703839.416    21703850.8104
  20002244.579   -26203465.729 9 -20396062.97548  20002246.295    20002254.6314
  21371994.617   -19200735.109 9 -14950346.63347  21371998.526    21372008.3024
  23545101.476    -6543517.655 8  -5074500.13046  23545101.688    23545115.0484
  24304832.973    -4185627.002 7  -3250417.30345  24304844.539    24304858.7534
  22348064.463   -13340491.991 8 -10090064.19746  22348063.848    22348074.6874
 00  3 29  1 14 30.0000000  0  8 13 23 17 26 06 24 08 10
  24839485.599      859813.323 7    692813.20445  24839480.843    24839494.0874
  23772714.747    -6362251.339 8  -4932133.80546  23772712.809    23772726.3684
  21688946.963   -17242282.341 9 -13416761.53947  21688950.346    21688960.5184
  19999240.600   -26219245.181 9 -20408358.61148  19999243.118    19999251.8034
  21381108.796   -19152844.247 9 -14913029.10447  21381111.692    21381122.2084
  23561353.127    -6458118.665 8  -5007955.60746  23561351.714    23561365.9574
  24308377.914    -4167091.070 7  -3235973.75145  24308372.269    24308387.2044
  22361433.493   -13270243.980 8 -10035325.53646  22361432.155    22361442.8254
 00  3 29  1 15  0.0000000  0  8 13 23 17 26 06 24 08 10
  24859295.973      963946.027 7    773955.51045  24859298.292    24859310.3484
  23760031.768    -6428886.522 8  -4984057.16546  23760032.118    23760045.6874
  21674096.584   -17320316.139 8 -13477567.00847  21674100.329    21674111.1254
  19996353.138   -26234416.786 9 -20420180.60848  19996356.209    19996364.4314
  21390326.055   -19104413.317 9 -14875290.73547  21390327.523    21390338.1414
  23577638.620    -6372509.369 8  -4941247.23346  23577642.825    23577657.4414
  24311993.020    -4148010.663 7  -3221105.93045  24312004.889    24312016.3294
  22374808.087   -13199930.724 8  -9980536.03846  22374811.807    22374822.3884
 00  3 29  1 15 30.0000000  0  8 13 23 17 26 06 24 08 10
  24879136.085     1068189.478 7    855184.12545  24879135.809    24879148.0514
  23747377.559    -6495395.353 8  -5035882.04046  23747375.940    23747389.5714
  21659289.208   -17398149.382 9 -13538216.20647  21659289.667    21659299.9204
  19993584.933   -26248975.160 9 -20431524.75548  19993585.899    19993594.2574
  21399646.537   -19055447.508 9 -14837135.57947  21399646.109    21399656.2914
  23593964.434    -6286694.404 8  -4874378.63446  23593973.163    23593987.6724
  24315747.253    -4128382.868 7  -3205811.55645  24315736.398    24315753.2304
  22388205.124   -13129543.048 8  -9925688.52146  22388206.388    22388216.4514
 00  3 29  1 16  0.0000000  0  8 13 23 17 26 06 24 08 10
  24899003.736     1172547.715 7    936502.19145  24898995.509    24899007.6174
  23734744.123    -6561777.974 8  -5087608.60546  23734743.938    23734756.8094
  21644509.153   -17475798.770 9 -13598722.14347  21644513.052    21644524.3294
  19990930.703   -26262921.793 9 -20442392.22148  19990931.777    19990940.2014
  21409058.619   -19005958.501 9 -14798572.74647  21409063.647    21409073.5914
  23610342.319    -6200687.152 8  -4807360.16945  23610340.047    23610354.1634
  24319577.173    -4108193.282 7  -3190079.34045  24319581.383    24319594.0484
  22401616.312   -13059072.757 8  -9870776.64546  22401616.888    22401627.0264
 00  3 29  1 16 30.0000000  0  8 13 23 17 26 06 24 08 10
  24918877.334     1277025.735 7   1017913.58345  24918876.085    24918888.4374
  23722133.982    -6628023.466 8  -5139228.28146  23722137.212    23722151.5084
  21629769.669   -17553267.153 9 -13659087.02647  21629771.853    21629782.7364
  19988389.311   -26276261.935 9 -20452787.10248  19988393.048    19988401.2234
  21418578.963   -18955966.157 9 -14759617.70547  21418577.280    21418586.9834
  23626740.968    -6114490.672 8  -4740194.22546  23626743.681    23626756.3294
  24323527.201    -4087432.876 7  -3173902.39545  24323529.381    24323543.5754
  22415044.601   -12988511.111 8  -9815793.57846  22415044.751    22415054.4964
 00  3 29  1 17  0.0000000  0  8 13 23 17 26 06 24 08 10
  24938786.427     1381628.823 7   1099422.43745  24938781.734    24938792.9474
  23709551.342    -6694128.787 8  -5190738.76246  23709557.127    23709571.1624
  21615061.924   -17630559.116 9 -13719314.43147  21615063.730    21615074.4064
  19985972.635   -26288974.638 9 -20462693.06848  19985974.062    19985982.3264
  21428181.502   -18905485.049 9 -14720281.80747  21428183.060    21428192.9564
  23643189.942    -6028089.260 8  -4672868.64145  23643185.702    23643198.0484
  24327583.603    -4066099.899 7  -3157279.27745  24327590.533    24327602.9194
  22428493.593   -12917846.458 8  -9760730.25246  22428491.331    22428502.2204
 00  3 29  1 17 30.0000000  0  7 23 17 26 06 24 08 10
  23696998.942    -6760103.464 8  -5242147.41546  23697002.384    23697016.2784
  21600384.125   -17707685.934 9 -13779413.15547  21600386.795    21600397.4354
  19983670.708   -26301058.558 9 -20472109.08248  19983674.569    19983683.1604
  21437878.519   -18854519.172 9 -14680568.15847  21437881.470    21437891.7704
  23659665.856    -5941474.927 8  -4605377.12345  23659665.036    23659680.2224
  24331765.062    -4044189.854 7  -3140206.52445  24331760.004    24331772.1434
  22441949.053   -12847080.107 8  -9705587.67546  22441957.221    22441967.3864
 00  3 29  1 18  0.0000000  0  6 23 17 26 06 24 10
  23684470.275    -6825961.092 8  -5293464.87146  23684472.549    23684484.0414
  21585743.033   -17784624.396 9 -13839365.10347  21585745.288    21585755.8054
  19981490.235   -26312526.144 9 -20481044.82148  19981492.280    19981500.7674
  21447667.574   -18803073.615 9 -14640480.73847  21447670.775    21447681.6354
  23676181.651    -5854653.657 8  -4537724.35645  23676187.061    23676202.8224
  22455442.197   -12776227.007 8  -9650377.49746  22455440.128    22455450.8394
 00  3 29  1 18 30.0000000  0  6 23 17 26 06 24 10
  23671960.578    -6891707.334 8  -5344695.55146  23671960.582    23671972.4234
  21571143.955   -17861340.889 9 -13899144.09747  21571146.572    21571156.7974
  19979423.988   -26323379.481 9 -20489501.93748  19979426.736    19979435.1584
  21457547.890   -18751147.640 9 -14600018.96947  21457552.154    21457562.7664
  23692753.778    -5767605.512 8  -4469894.83945  23692753.019    23692767.0974
  22468938.485   -12705284.768 8  -9595097.87546  22468940.260    22468951.4584
 00  3 29  1 19  0.0000000  0  6 23 17 26 06 24 10
  23659467.962    -6957353.515 8  -5395848.26646  23659466.715    23659481.5314
  21556591.056   -17937823.891 9 -13958741.14147  21556592.239    21556603.0844
  19977474.784   -26333616.853 9 -20497479.07648  19977478.827    19977487.1924
  21467527.232   -18698722.117 9 -14559167.95147  21467528.746    21467539.3904
  23709358.941    -5680326.427 8  -4401885.34645  23709363.204    23709374.2504
  22482451.101   -12634257.680 8  -9539752.14746  22482456.242    22482467.6984
 00  3 29  1 19 30.0000000  0  6 23 17 26 06 24 10
  23646992.319    -7022891.059 8  -5446916.27446  23646995.239    23647009.9224
  21542082.051   -18014062.872 9 -14018148.04647  21542084.417    21542094.9224
  19975641.645   -26343255.462 9 -20504989.64748  19975644.561    19975653.1184
  21477600.526   -18645784.854 9 -14517918.17747  21477602.657    21477612.6664
  23726007.568    -5592823.714 8  -4333701.61045  23726011.818    23726027.1674
  22495986.098   -12563148.906 8  -9484342.74846  22495987.803    22495998.4094
 00  3 29  1 20  0.0000000  0  6 23 17 26 06 24 10
  23634549.044    -7088305.315 8  -5497888.22646  23634547.227    23634561.7924
  21527625.118   -18090034.500 9 -14077346.63447  21527628.052    21527638.2564
  19973924.947   -26352283.411 9 -20512024.38148  19973926.524    19973935.0734
  21487773.952   -18592331.574 9 -14476266.30647  21487774.748    21487784.2284
  23742705.145    -5505096.916 8  -4265343.26845  23742706.067    23742722.7324
  22509533.703   -12491943.271 8  -9428857.87446  22509538.578    22509549.1164
 00  3 29  1 20 30.0000000  0  6 23 17 26 06 24 10
  23622125.234    -7153585.856 8  -5548756.01346  23622126.266    23622137.7664
  21513216.769   -18165759.186 9 -14136352.77347  21513218.036    21513228.1854
  19972326.729   -26360675.253 9 -20518563.44648  19972329.635    19972338.0664
  21498044.557   -18538363.878 9 -14434213.57547  21498043.949    21498054.1204
  23759437.466    -5417141.849 8  -4196807.04345  23759445.553    23759459.4834
  22523104.988   -12420638.152 8  -9373295.49046  22523107.256    22523117.6514
 00  3 29  1 21  0.0000000  0  6 23 17 26 06 24 10
  23609731.810    -7218727.667 8  -5599515.70446  23609730.600    23609740.6824
  21498847.680   -18241261.525 9 -14195185.68047  21498850.130    21498859.9564
  19970853.303   -26368420.657 9 -20524598.79548  19970855.786    19970864.2654
  21508409.278   -18483883.992 9 -14391761.74347  21508411.159    21508421.2064
  23776223.641    -5328977.065 8  -4128107.39945  23776222.686    23776237.0454
  22536688.521   -12349247.727 8  -9317666.61646  22536691.810    22536703.3364
 00  3 29  1 21 30.0000000  0  6 23 17 26 06 24 10
  23597360.484    -7283723.480 8  -5650161.65646  23597360.503    23597373.5174
  21484521.840   -18316543.594 9 -14253846.93547  21484524.474    21484534.9594
  19969504.024   -26375507.330 9 -20530120.84948  19969507.014    19969515.5464
  21518870.872   -18428899.973 9 -14348917.08247  21518874.153    21518884.0954
  23793030.691    -5240611.371 8  -4059251.20645  23793037.411    23793052.6504
  22550293.625   -12277772.346 8  -9261971.55946  22550293.516    22550304.4664
 00  3 29  1 22  0.0000000  0  6 23 17 26 06 24 10
  23585013.226    -7348592.045 8  -5700708.38246  23585016.159    23585030.4054
  21470235.621   -18391614.933 9 -14312343.99447  21470238.478    21470248.6874
  19968283.384   -26381926.788 9 -20535122.99048  19968285.559    19968293.7324
  21529430.336   -18373416.608 9 -14305683.31547  21529432.365    21529442.0424
  23809893.125    -5152047.405 8  -3990240.51645  23809890.800    23809906.8374
  22563906.193   -12206215.713 8  -9206213.19346  22563909.966    22563921.5154
 00  3 29  1 22 30.0000000  0  6 23 17 26 06 24 10
  23572694.652    -7413345.906 8  -5751165.75346  23572694.519    23572707.2234
  21455985.386   -18466500.505 9 -14370696.29647  21455988.379    21455998.3284
  19967185.840   -26387694.501 9 -20539617.28448  19967188.029    19967196.5164
  21540081.246   -18317430.737 9 -14262057.98947  21540086.029    21540096.3574
  23826776.683    -5063292.776 8  -3921081.29745  23826781.568    23826795.1214
  22577540.430   -12134584.513 8  -9150396.70646  22577541.359    22577552.1744
 00  3 29  1 23  0.0000000  0  6 23 17 26 06 24 10
  23560395.167    -7477983.646 8  -5801532.63646  23560394.586    23560406.2194
  21441774.038   -18541189.312 9 -14428895.26647  21441774.837    21441785.2744
  19966206.556   -26392841.356 9 -20543627.78448  19966208.658    19966217.1184
  21550831.797   -18260943.558 9 -14218042.04047  21550835.255    21550845.5994
  23843708.928    -4974349.486 8  -3851775.03545  23843706.462    23843721.8414
  22591184.884   -12062870.694 8  -9094515.83946  22591188.433    22591199.2444
 00  3 29  1 23 30.0000000  0  6 23 17 26 06 24 10
  23548113.208    -7542514.628 8  -5851816.37246  23548115.218    23548125.8174
  21427598.263   -18615670.819 9 -14486932.70847  21427601.241    21427611.8684
  19965340.985   -26397381.872 9 -20547165.81948  19965344.229    19965352.8624
  21561676.384   -18203966.049 9 -14173644.01047  21561678.123    21561688.1854
  23860666.949    -4885214.238 8  -3782319.22645  23860666.980    23860682.7774
  22604849.410   -11991067.895 8  -9038565.64846  22604851.551    22604862.4814
 00  3 29  1 24  0.0000000  0  6 23 17 26 06 24 10
  23535852.941    -7606952.192 8  -5902027.30346  23535851.616    23535862.6124
  21413468.006   -18689935.872 9 -14544801.49447  21413469.012    21413479.7334
  19964589.484   -26401332.834 9 -20550244.46148  19964592.512    19964601.0814
  21572607.636   -18146509.201 8 -14128872.47847  21572611.274    21572621.3564
  23877668.074    -4795888.736 8  -3712715.12945  23877665.942    23877682.7354
  22618531.245   -11919182.958 8  -8982551.44646  22618530.845    22618541.3754
 00  3 29  1 24 30.0000000  0  6 23 17 26 06 24 10
  23523609.523    -7671283.826 8  -5952155.71446  23523609.052    23523622.7824
  21399378.175   -18763967.283 9 -14602488.22347  21399381.968    21399392.0494
  19963950.236   -26404696.743 9 -20552865.67048  19963952.418    19963960.6584
  21583629.314   -18088586.014 8 -14083737.55647  21583633.329    21583644.2764
  23894697.010    -4706368.772 7  -3642959.54445  23894700.620    23894717.5724
  22632224.923   -11847219.597 8  -8926476.13546  22632225.395    22632236.4634
 00  3 29  1 25  0.0000000  0  6 23 17 26 06 24 10
  23511385.825    -7735504.928 8  -6002197.92746  23511388.152    23511402.8144
  21385340.118   -18837738.813 9 -14659972.45447  21385344.154    21385353.8514
  19963423.018   -26407466.382 9 -20555023.80748  19963425.239    19963433.8714
  21594737.900   -18030218.059 9 -14038256.06847  21594741.009    21594751.5304
  23911768.238    -4616652.599 7  -3573051.05545  23911773.693    23911790.1314
  22645922.384   -11775197.223 8  -8870354.84746  22645930.258    22645941.3284
 00  3 29  1 25 30.0000000  0  6 23 17 26 06 24 10
  23499179.939    -7799627.424 8  -6052163.33746  23499186.497    23499199.6924
  21371355.463   -18911244.790 9 -14717249.75447  21371356.047    21371366.2814
  19963013.219   -26409620.782 9 -20556702.52648  19963015.663    19963023.9464
  21605931.981   -17971405.701 9 -13992428.27947  21605932.962    21605942.9164
  23928883.094    -4526744.463 8  -3502992.98545  23928883.779    23928897.3404
  22659643.812   -11703123.766 8  -8814193.76346  22659645.495    22659656.6484
 00  3 29  1 26  0.0000000  0  6 23 17 26 06 24 10
  23487002.921    -7863633.287 8  -6102037.85946  23487006.271    23487019.1974
  21357416.784   -18984485.633 9 -14774320.44347  21357418.503    21357428.8754
  19962720.443   -26411155.378 9 -20557898.29148  19962723.433    19962732.1594
  21617209.888   -17912145.038 9 -13946251.17147  21617209.713    21617219.4574
  23946035.006    -4436636.427 8  -3432779.12245  23946032.121    23946045.2384
  22673370.459   -11630990.874 8  -8757986.36146  22673372.213    22673382.7264
 00  3 29  1 26 30.0000000  0  6 23 17 26 06 24 10
  23474849.770    -7927504.383 8  -6151807.36646  23474850.450    23474865.0974
  21343526.839   -19057473.530 9 -14831194.05347  21343529.455    21343539.3894
  19962547.756   -26412066.087 9 -20558607.91148  19962550.019    19962558.4544
  21628571.159   -17852426.650 9 -13899717.38547  21628573.833    21628584.1324
  23963202.134    -4346319.798 7  -3362402.80045  23963214.653    23963233.7624
  22687109.010   -11558788.121 8  -8701724.52846  22687112.157    22687122.7814
 00  3 29  1 27  0.0000000  0  6 23 17 26 06 24 10
  23462718.121    -7991242.579 8  -6201473.31946  23462721.714    23462735.1414
  21329685.309   -19130219.286 9 -14887878.97547  21329685.887    21329696.0104
  19962493.014   -26412357.562 9 -20558835.01248  19962494.471    19962502.7324
  21640023.730   -17792234.912 9 -13852814.77247  21640027.696    21640038.4014
  23980435.219    -4255804.834 7  -3291871.95645  23980441.617    23980458.1484
  22700869.149   -11486501.724 8  -8645397.51146  22700867.501    22700880.2004
 00  3 29  1 27 30.0000000  0  6 23 17 26 06 24 10
  23450616.025    -8054840.358 8  -6251029.89346  23450620.151    23450632.2004
  21315884.239   -19202730.661 9 -14944381.26847  21315887.583    21315897.9124
  19962553.387   -26412033.222 9 -20558582.26048  19962555.775    19962564.5424
  21651571.860   -17731554.192 9 -13805531.12447  21651575.160    21651584.8734
  23997700.962    -4165096.679 8  -3221190.40145  23997702.897    23997717.1674
  22714645.181   -11414100.939 8  -8588981.36946  22714645.409    22714656.7524
 00  3 29  1 28  0.0000000  0  6 23 17 26 06 24 10
  23438546.600    -8118287.522 8  -6300469.09546  23438545.728    23438558.6124
  21302133.083   -19275005.823 9 -15000699.48847  21302134.534    21302144.5004
  19962729.631   -26411109.474 9 -20557862.42448  19962731.743    19962740.7504
  21663211.101   -17670388.129 8 -13757869.28947  21663213.826    21663224.5554
  24014993.748    -4074198.208 7  -3150360.68645  24015000.111    24015017.0044
  22728442.150   -11341584.806 8  -8532475.35146  22728444.026    22728455.8674
 00  3 29  1 28 30.0000000  0  6 23 17 26 06 24 10
  23426495.486    -8181592.402 8  -6349797.40646  23426499.235    23426511.9664
  21288426.587   -19347035.524 9 -15056826.45047  21288427.165    21288437.7014
  19963018.375   -26409594.665 9 -20556682.03348  19963020.454    19963028.7664
  21674943.403   -17608739.525 9 -13709831.45647  21674945.914    21674956.0414
  24032327.504    -3983115.554 7  -3079387.48245  24032333.393    24032348.8174
  22742264.023   -11268963.705 8  -8475887.52846  22742262.688    22742275.0664
 00  3 29  1 29  0.0000000  0  6 23 17 26 06 24 10
  23414474.946    -8244767.389 8  -6399024.50246  23414476.936    23414489.2634
  21274766.283   -19418806.549 9 -15112751.83947  21274769.623    21274779.8704
  19963419.168   -26407484.622 9 -20555037.82348  19963421.649    19963429.9224
  21686766.694   -17546618.938 8 -13661425.83547  21686767.089    21686777.7474
  24049704.636    -3891853.445 7  -3008274.40145  24049700.208    24049717.1914
  22756098.557   -11196246.420 8  -8419224.77246  22756101.053    22756112.2534
 00  3 29  1 29 30.0000000  0  6 23 17 26 06 24 10
  23402478.183    -8307811.630 8  -6448149.74746  23402480.992    23402493.1384
  21261160.712   -19490302.966 9 -15168463.25547  21261164.144    21261174.3914
  19963932.840   -26404784.350 9 -20552933.70248  19963935.301    19963943.9214
  21698669.639   -17484044.380 8 -13612666.48047  21698674.382    21698684.5734
  24067102.192    -3800398.502 8  -2937011.06945  24067103.690    24067120.3364
  22769956.845   -11123445.765 8  -8362497.04746  22769955.377    22769966.0714
 00  3 29  1 30  0.0000000  0  6 23 17 26 06 24 10
  23390509.677    -8370732.005 8  -6497178.45746  23390506.961    23390519.8874
  21247609.146   -19561522.751 9 -15223959.11247  21247611.586    21247621.3204
  19964561.045   -26401494.521 9 -20550370.17648  19964561.270    19964570.0514
  21710665.983   -17421025.701 9 -13563561.05947  21710667.428    21710677.3454
  24084533.361    -3708736.988 7  -2865586.78645  24084546.765    24084562.3234
  22783819.743   -11050578.042 8  -8305717.06946  22783821.183    22783832.0444
 00  3 29  1 30 30.0000000  0  6 23 17 26 06 24 10
  23378552.481    -8433540.320 8  -6546119.84046  23378555.247    23378566.7654
  21234109.478   -19632461.297 9 -15279235.82747  21234111.752    21234122.1924
  19965300.440   -26397593.824 9 -20547330.64948  19965303.623    19965312.3484
  21722738.517   -17357562.006 9 -13514108.85847  21722743.897    21722754.5634
  24102036.017    -3616871.251 7  -2794003.35945  24102028.441    24102044.5664
  22797697.587   -10977639.113 8  -8248881.57546  22797701.069    22797712.5794
 00  3 29  1 31  0.0000000  0  6 23 17 26 06 24 10
  23366620.509    -8496245.191 8  -6594980.63946  23366622.941    23366634.4244
  21220661.795   -19703130.014 9 -15334302.28147  21220664.023    21220673.9864
  19966163.094   -26393067.547 9 -20543803.65748  19966165.085    19966173.7114
  21734902.995   -17293655.231 8 -13464311.41947  21734904.536    21734914.9794
  24119543.421    -3524811.657 7  -2722268.88145  24119545.290    24119563.1174
  22811599.031   -10904628.145 8  -8191989.97446  22811594.360    22811605.6674
 00  3 29  1 31 30.0000000  0  6 23 17 26 06 24 10
  23354706.607    -8558851.240 8  -6643764.44646  23354709.003    23354721.7224
  21207266.575   -19773527.111 9 -15389157.08747  21207268.133    21207278.2064
  19967142.685   -26387924.815 9 -20539796.31348  19967144.132    19967152.5804
  21747148.909   -17229305.172 9 -13414168.55447  21747150.497    21747160.5144
  24137099.619    -3432565.083 7  -2650388.66345  24137100.588    24137116.5024
  22825502.205   -10831537.691 8  -8135036.45246  22825503.109    22825514.6544
 00  3 29  1 32  0.0000000  0  6 23 17 26 06 24 10
  23342809.650    -8621368.397 8  -6692478.98146  23342812.153    23342824.2354
  21193918.424   -19843662.988 9 -15443808.34147  21193921.690    21193931.7444
  19968239.788   -26382155.091 9 -20535300.40448  19968241.799    19968250.1314
  21759479.853   -17164507.462 9 -13363676.87147  21759480.746    21759490.9124
  24154681.307    -3340148.169 7  -2578375.78545  24154686.524    24154704.8394
  22839427.185   -10758373.180 8  -8078025.19546  22839426.531    22839437.2754
 00  3 29  1 32 30.0000000  0  6 23 17 26 06 24 10
  23330930.884    -8683798.515 8  -6741125.68846  23330933.542    23330944.2564
  21180621.332   -19913541.354 9 -15498258.94647  21180624.572    21180634.4824
  19969455.764   -26375762.238 9 -20530318.93848  19969458.060    19969466.3664
  21771894.110   -17099263.755 8 -13312837.65047  21771896.040    21771906.1224
  24172299.909    -3247572.557 7  -2506239.18845  24172303.823    24172320.4844
  22853358.305   -10685139.775 8  -8020960.25946  22853362.524    22853373.1484
 00  3 29  1 33  0.0000000  0  6 23 17 26 06 24 10
  23319069.191    -8746123.729 8  -6789690.65646  23319072.599    23319084.0044
  21167374.309   -19983165.119 9 -15552511.15947  21167375.542    21167385.5224
  19970786.056   -26368771.060 9 -20524871.24248  19970788.711    19970797.0254
  21784390.284   -17033586.615 8 -13261660.68647  21784394.304    21784404.4664
  24189950.374    -3154823.882 7  -2433967.75845  24189953.868    24189970.5494
  22867309.244   -10611843.170 8  -7963846.08346  22867310.291    22867321.0244
 00  3 29  1 33 30.0000000  0  6 23 17 26 06 24 10
  23307236.164    -8808328.850 8  -6838162.05646  23307234.927    23307246.4054
  21154172.125   -20052522.124 9 -15606555.50247  21154176.767    21154187.3944
  19972228.905   -26361191.137 9 -20518964.78648  19972230.958    19972239.1654
  21796968.710   -16967482.812 8 -13210151.27247  21796973.099    21796984.1124
  24207636.642    -3061896.114 7  -2361556.83045  24207637.941    24207654.6934
  22881266.484   -10538489.497 8  -7906687.43446  22881268.701    22881280.2364
 00  3 29  1 34  0.0000000  0  6 23 17 26 06 24 10
  23295421.640    -8870395.064 8  -6886525.22146  23295424.370    23295436.6514
  21141026.635   -20121619.775 9 -15660397.75547  21141028.277    21141037.8214
  19973785.192   -26353012.773 9 -20512592.01648  19973787.276    19973795.5664
  21809630.763   -16900951.534 8 -13158308.76947  21809633.950    21809644.1584
  24225362.660    -2968781.577 7  -2289000.35145  24225357.236    24225372.1774
  22895232.093   -10465092.992 8  -7849495.42246  22895235.952    22895247.6674
 00  3 29  1 34 30.0000000  0  6 23 17 26 06 24 10
  23283640.254    -8932313.616 8  -6934773.28646  23283641.058    23283654.2324
  21127928.154   -20190443.387 9 -15714026.47747  21127930.846    21127941.0334
  19975451.578   -26344251.473 9 -20505765.00548  19975454.395    19975462.7834
  21822372.394   -16833993.531 8 -13106133.75847  21822375.975    21822385.7374
  24243105.677    -2875473.945 7  -2216293.32645  24243112.601    24243128.8484
  22909212.139   -10391643.293 8  -7792261.93546  22909213.151    22909224.0564
 00  3 29  1 35  0.0000000  0  6 23 17 26 06 24 10
  23271884.468    -8994090.295 8  -6982910.83246  23271885.340    23271898.1074
  21114887.938   -20258975.071 9 -15767427.72347  21114890.229    21114899.7824
  19977231.066   -26334900.354 9 -20498478.40248  19977234.104    19977242.0334
  21835198.576   -16766607.681 9 -13053625.34747  21835199.197    21835209.3134
  24260897.724    -2781983.508 7  -2143443.93245  24260904.045    24260920.8924
  22923200.482   -10318142.331 8  -7734988.51546  22923199.986    22923210.5494
 00  3 29  1 35 30.0000000  0  6 23 17 26 06 24 10
  23260149.804    -9055744.503 8  -7030952.94246  23260153.281    23260164.7204
  21101900.776   -20327210.771 9 -15820598.33947  21101905.106    21101914.9344
  19979125.471   -26324944.523 9 -20490720.59548  19979128.373    19979136.6534
  21848100.999   -16698775.240 8 -13000768.94647  21848106.929    21848117.4744
  24278736.221    -2688320.523 7  -2070460.05945  24278728.782    24278746.4174
  22937198.027   -10244585.599 8  -7677671.62446  22937197.077    22937208.4734
 00  3 29  1 36  0.0000000  0  7 23 17 26 06 09 24 10
  23248440.594    -9117295.739 8  -7078914.82946  23248440.234    23248452.0614
  21088976.658   -20395142.418 9 -15873532.03647  21088978.223    21088987.9494
  19981135.247   -26314385.316 9 -20482492.62248  19981137.778    19981146.1074
  21861096.630   -16630486.614 8 -12947557.07947  21861101.512    21861112.3284
  24501916.401      -35562.19417
  24296589.707    -2594489.625 7  -1997345.39345  24296583.492    24296601.1904
  22951203.339   -10170963.479 8  -7620303.80846  22951206.567    22951218.0294
 00  3 29  1 36 30.0000000  0  7 23 17 26 06 09 24 10
  23236741.148    -9178759.665 8  -7126808.68446  23236743.624    23236755.6254
  21076110.404   -20462763.084 9 -15926223.40847  21076110.192    21076119.6664
  19983257.250   -26303234.038 9 -20473803.29448  19983259.732    19983268.1834
  21874175.175   -16561759.484 8 -12894003.52947  21874180.122    21874191.3384
  24482135.533     -139524.095 7
  24314459.377    -2500494.539 7  -1924102.84645  24314468.383    24314489.1354
  22965228.626   -10097268.419 8  -7562879.15046  22965229.888    22965241.9634
 00  3 29  1 37  0.0000000  0  7 23 17 26 06 09 24 10
  23225058.981    -9240136.671 8  -7174634.80246  23225063.865    23225075.0664
  21063296.230   -20530084.258 9 -15978681.40547  21063299.327    21063309.7634
  19985493.573   -26291478.436 9 -20464643.06748  19985496.836    19985505.0914
  21887336.489   -16492600.273 8 -12840113.27447  21887340.800    21887350.4464
  24462334.843     -243525.547 7   -168204.60154  24462347.115    24462359.3364
  24332376.342    -2406326.774 7  -1850725.66745  24332389.634    24332407.7154
  22979271.240   -10023499.956 8  -7505397.27946  22979268.610    22979279.7094
 00  3 29  1 37 30.0000000  0  7 23 17 26 06 09 24 10
  23213404.040    -9301416.283 8  -7222385.00946  23213403.115    23213415.2304
  21050541.957   -20597109.709 9 -16030908.97647  21050544.885    21050554.7144
  19987843.149   -26279132.944 9 -20455023.18848  19987846.149    19987854.3054
  21900579.666   -16423026.167 8 -12785899.73647  21900580.613    21900590.2084
  24442545.691     -347578.514 7   -249284.47245  24442544.252    24442560.1874
  24350342.171    -2311973.896 7  -1777204.25245  24350346.286    24350363.0174
  22993321.954    -9949647.163 8  -7447849.71346  22993322.314    22993332.7144
 00  3 29  1 38  0.0000000  0  7 23 17 26 06 09 24 10
  23201762.438    -9362582.834 8  -7270047.14646  23201763.067    23201774.3244
  21037842.207   -20663844.183 9 -16082909.81947  21037845.662    21037855.5664
  19990301.928   -26266209.581 9 -20444953.02148  19990304.840    19990313.2334
  21913893.962   -16353065.338 8 -12731384.87247  21913893.671    21913903.6074
  24422732.920     -451688.742 7   -330408.96045  24422732.145    24422748.7664
  24368321.339    -2217442.571 7  -1703543.87044  24368331.219    24368350.2454
  23007390.406    -9875713.864 8  -7390239.39346  23007391.354    23007401.7744
 00  3 29  1 38 30.0000000  0  7 23 17 26 06 09 24 10
  23190143.446    -9423620.694 8  -7317608.97646  23190147.122    23190159.7124
  21025197.137   -20730295.200 9 -16134689.77847  21025200.586    21025210.3014
  19992873.758   -26252702.253 9 -20434427.81648  19992875.452    19992884.1674
  21927273.407   -16282730.488 8 -12676578.55347  21927277.621    21927287.5444
  24402916.262     -555836.561 7   -411562.78045  24402912.789    24402928.2844
  24386357.440    -2122729.646 7  -1629741.87245  24386359.932    24386374.1944
  23021473.917    -9801691.214 8  -7332559.45446  23021477.667    23021488.5014
 00  3 29  1 39  0.0000000  0  7 23 17 26 06 09 24 10
  23178556.333    -9484521.234 8  -7365063.82146  23178558.248    23178570.4364
  21012607.438   -20796460.177 9 -16186246.85447  21012609.688    21012619.0324
  19995559.135   -26238599.097 9 -20423438.32548  19995559.069    19995567.9084
  21940731.314   -16212006.369 8 -12621468.88847  21940735.796    21940746.3004
  24383095.580     -660033.238 7   -492754.67145  24383086.684    24383100.6664
  24404419.045    -2027838.927 7  -1555801.37545  24404415.289    24404433.0194
  23035583.146    -9727571.867 8  -7274804.18846  23035580.923    23035593.1144
 00  3 29  1 39 30.0000000  0  6 23 17 26 06 09 10
  23166995.815    -9545279.932 8  -7412408.12946  23166996.953    23167009.1354
  21000073.548   -20862328.593 9 -16237572.83347  21000075.532    21000084.9824
  19998352.894   -26223901.841 9 -20411985.90148  19998355.941    19998364.5494
  21954265.052   -16140894.225 8 -12566056.88647  21954268.280    21954278.0824
  24363230.441     -764277.949 7   -573984.05245  24363247.893    24363262.1944
  23049700.302    -9653363.978 8  -7216979.92146  23049703.302    23049714.4944
 00  3 29  1 40  0.0000000  0  6 23 17 26 06 09 10
  23155460.025    -9605904.862 8  -7459648.20446  23155460.407    23155472.4004
  20987593.353   -20927901.758 9 -16288668.76847  20987597.409    20987606.7034
  20001265.507   -26208595.356 9 -20400058.75348  20001268.996    20001277.1134
  21967876.197   -16069383.879 9 -12510334.59447  21967877.391    21967886.5304
  24343400.849     -868554.002 7   -655237.79245  24343405.533    24343419.4954
  23063839.068    -9579073.751 8  -7159091.49946  23063840.225    23063851.1524
 00  3 29  1 40 30.0000000  0  6 23 17 26 06 09 10
  23143941.832    -9666415.582 8  -7506799.29846  23143945.493    23143957.1254
  20975174.591   -20993165.025 9 -16339523.20548  20975177.954    20975188.0944
  20004297.744   -26192674.196 9 -20387652.64548  20004298.702    20004306.6564
  21981561.549   -15997462.770 8 -12454292.21047  21981562.960    21981572.5914
  24323566.730     -972856.409 7   -736512.04745  24323555.990    24323571.3204
  23077987.758    -9504712.850 8  -7101147.99246  23077990.597    23078000.9014
 00  3 29  1 41  0.0000000  0  6 23 17 26 06 09 10
  23132444.965    -9726820.454 8  -7553867.90246  23132450.654    23132462.1024
  20962816.753   -21058108.953 9 -16390128.81348  20962819.945    20962829.1184
  20007439.017   -26176149.388 9 -20374776.15348  20007443.013    20007451.0894
  21995322.248   -15925137.442 8 -12397934.86447  21995325.102    21995336.3814
  24303699.721    -1077182.414 7   -817804.70445  24303702.972    24303717.7034
  23092153.110    -9430306.707 8  -7043169.23646  23092149.366    23092160.7744
 00  3 29  1 41 30.0000000  0  6 23 17 26 06 09 10
  23120972.115    -9787134.125 8  -7600865.43646  23120972.680    23120984.8184
  20950521.995   -21122733.692 9 -16440485.69347  20950521.718    20950531.0694
  20010694.443   -26159046.846 9 -20361449.48248  20010697.645    20010706.0134
  22009159.883   -15852419.162 8 -12341271.34647  22009163.111    22009174.2634
  24283855.479    -1181510.504 7   -899099.01045  24283849.101    24283865.4184
  23106315.297    -9355858.986 8  -6985158.08846  23106316.876    23106327.7314
 00  3 29  1 42  0.0000000  0  6 23 17 26 06 09 10
  23109510.272    -9847370.522 8  -7647802.75746  23109509.699    23109522.1554
  20938282.108   -21187036.365 9 -16490591.61547  20938285.055    20938294.6864
  20014059.575   -26141373.497 9 -20347678.02548  20014060.805    20014069.0194
  22023072.252   -15779313.860 8 -12284306.25247  22023075.268    22023086.3264
  24263987.767    -1285838.482 7   -980393.27445  24263997.727    24264011.0764
  23120480.543    -9281358.464 8  -6927105.79346  23120493.199    23120505.6614
 00  3 29  1 42 30.0000000  0  6 23 17 26 06 09 10
  23098064.310    -9907513.034 8  -7694666.91746  23098065.885    23098077.7504
  20926107.525   -21251015.016 9 -16540445.05848  20926110.605    20926120.0064
  20017525.728   -26123143.491 9 -20333472.81248  20017529.663    20017537.9484
  22037057.560   -15705831.070 8 -12227047.00747  22037059.154    22037069.1884
  24244122.470    -1390181.148 7  -1061698.92445  24244140.356    24244155.8544
  23134684.572    -9206799.070 8  -6869007.65546  23134682.080    23134693.3724
 00  3 29  1 43  0.0000000  0  6 23 17 26 06 09 10
  23086642.656    -9967538.731 8  -7741440.07046  23086643.498    23086654.4404
  20913994.651   -21314669.976 9 -16590046.26647  20913997.156    20914006.6404
  20021100.231   -26104368.054 9 -20318842.58748  20021102.767    20021110.9334
  22051114.182   -15631974.757 8 -12169496.69747  22051113.072    22051123.0514
  24224285.853    -1494531.927 7  -1143010.93845  24224282.832    24224298.3744
  23148881.859    -9132167.893 8  -6810853.53146  23148883.947    23148893.6854
 00  3 29  1 43 30.0000000  0  6 23 17 26 06 09 10
  23075241.618   -10027441.396 8  -7788117.33446  23075244.478    23075255.0964
  20901947.065   -21377989.264 9 -16639385.91348  20901948.250    20901957.6924
  20024776.736   -26085038.878 9 -20303780.88248  20024780.572    20024788.9614
  22065234.739   -15557734.644 8 -12111647.31147  22065239.973    22065250.2604
  24204427.504    -1598895.701 7  -1224333.07945  24204422.615    24204437.4564
  23163098.450    -9057458.975 8  -6752638.85746  23163100.221    23163111.5824
 00  3 29  1 44  0.0000000  0  6 23 17 26 06 09 10
  23063867.749   -10087200.502 8  -7834682.75146  23063872.355    23063883.2654
  20889960.441   -21440967.970 9 -16688460.16948  20889963.586    20889972.8524
  20028569.494   -26065128.644 9 -20288266.40348  20028569.742    20028577.9124
  22079439.824   -15483112.268 8 -12053500.07647  22079440.161    22079450.9674
  24184553.501    -1703272.498 7  -1305665.35245  24184559.119    24184575.3204
  23177325.562    -8982687.049 8  -6694375.10346  23177329.245    23177340.6734
 00  3 29  1 44 30.0000000  0  6 23 17 26 06 09 10
  23052528.359   -10146804.859 8  -7881127.57846  23052529.207    23052541.1394
  20878042.051   -21503606.532 9 -16737269.37148  20878043.538    20878053.2944
  20032467.074   -26044633.652 9 -20272296.26748  20032469.783    20032478.2544
  22093716.501   -15408090.185 8 -11995041.36547  22093717.208    22093727.3044
  24164699.857    -1807658.548 8  -1387004.86745  24164697.313    24164710.4834
  23191564.012    -8907865.724 8  -6636072.85646  23191567.527    23191578.7084
 00  3 29  1 45  0.0000000  0  6 23 17 26 06 09 10
  23041207.994   -10206270.271 8  -7927464.14346  23041212.560    23041225.2024
  20866189.319   -21565898.773 9 -16785808.71148  20866189.569    20866199.3634
  20036479.833   -26023549.823 9 -20255867.30748  20036481.630    20036489.9594
  22108070.372   -15332660.480 8 -11936265.02947  22108070.711    22108080.5204
  24144827.114    -1912048.869 8  -1468347.66745  24144831.664    24144846.6034
  23205810.154    -8833009.377 8  -6577743.30546  23205812.931    23205823.2064
 00  3 29  1 45 30.0000000  0  6 23 17 26 06 09 10
  23029916.727   -10265618.061 8  -7973709.03646  23029918.762    23029931.9804
  20854396.504   -21627852.615 9 -16834084.36548  20854399.832    20854409.8854
  20040604.582   -26001869.689 9 -20238973.68348  20040607.278    20040615.3484
  22122494.226   -15256835.500 8 -11877180.68447  22122499.039    22122509.3874
  24124951.497    -2016455.304 8  -1549703.08845  24124963.749    24124977.8274
  23220063.032    -8758116.840 8  -6519385.55446  23220062.560    23220073.8264
 00  3 29  1 46  0.0000000  0  6 23 17 26 06 09 10
  23018647.588   -10324856.005 8  -8019868.35246  23018646.889    23018659.6064
  20842669.133   -21689488.227 9 -16882112.05248  20842671.444    20842680.9784
  20044841.660   -25979605.776 9 -20221625.17748  20044844.258    20044852.5804
  22136997.080   -15180631.563 8 -11817801.06846  22137000.121    22137010.9924
  24105094.909    -2120874.958 8  -1631068.79645  24105092.781    24105107.4824
  23234321.708    -8683180.510 8  -6460993.69146  23234322.996    23234334.2924
 00  3 29  1 46 30.0000000  0  6 23 17 26 06 09 10
  23007390.406   -10383998.945 8  -8065953.63946  23007392.490    23007404.2344
  20830998.305   -21750802.547 9 -16929889.37848  20831003.143    20831013.1514
  20049184.691   -25956780.255 9 -20203839.05048  20049187.652    20049196.0354
  22151567.752   -15104066.154 8 -11758139.77646  22151570.513    22151581.3684
  24085206.046    -2225309.336 8  -1712445.96245  24085219.626    24085234.0254
  23248592.986    -8608197.469 8  -6402565.42546  23248592.843    23248604.5124
 00  3 29  1 47  0.0000000  0  6 23 17 26 06 09 10
  22996151.074   -10443054.818 8  -8111971.08846  22996154.395    22996166.4154
  20819395.022   -21811792.861 9 -16977414.22748  20819397.434    20819407.1884
  20053635.644   -25933395.060 9 -20185616.81748  20053637.931    20053645.8874
  22166200.303   -15027181.756 8 -11698229.91047  22166201.482    22166212.2254
  24065348.156    -2329747.199 8  -1793825.88945  24065346.015    24065358.5094
  23262869.836    -8533153.529 8  -6344089.71446  23262872.401    23262885.7014
 00  3 29  1 47 30.0000000  0  6 23 17 26 06 09 10
  22984931.683   -10502018.930 8  -8157917.04146  22984933.030    22984944.7064
  20807852.492   -21872457.208 9 -17024685.09148  20807853.483    20807862.9264
  20058192.267   -25909453.694 9 -20166961.20548  20058193.460    20058201.8684
  22180890.621   -14949993.843 8 -11638083.53947  22180890.064    22180900.8634
  24045476.845    -2434162.453 8  -1875188.20445  24045476.144    24045489.4244
  23277164.982    -8458030.308 8  -6285552.22346  23277166.986    23277181.1574
 00  3 29  1 48  0.0000000  0  6 23 17 26 06 09 10
  22973728.676   -10560883.659 8  -8203785.52946  22973731.110    22973744.7424
  20796369.632   -21932788.878 9 -17071696.71348  20796372.354    20796382.4394
  20062851.158   -25884963.766 9 -20147878.13948  20062854.006    20062862.2494
  22195632.502   -14872499.515 8 -11577698.42646  22195636.121    22195647.5074
  24025619.825    -2538527.842 8  -1956511.65045  24025614.727    24025629.3424
  23291473.248    -8382836.198 8  -6226959.51546  23291477.164    23291490.7024
 00  3 29  1 48 30.0000000  0  6 23 17 26 06 09 10
  22962549.520   -10619644.139 8  -8249572.82146  22962550.642    22962562.5364
  20784958.239   -21992775.375 9 -17118439.38548  20784958.221    20784967.3614
  20067617.824   -25859916.391 9 -20128360.70148  20067620.408    20067628.5284
  22210442.735   -14794682.783 8 -11517062.07246  22210444.237    22210455.6934
  24005763.829    -2642829.652 8  -2037785.57545  24005766.853    24005781.3594
  23305799.312    -8307573.782 8  -6168313.56646  23305799.681    23305811.2724
 00  3 29  1 49  0.0000000  0  6 23 17 26 06 09 10
  22951388.506   -10678295.203 8  -8295274.82546  22951389.734    22951400.8644
  20773604.899   -22052414.648 9 -17164911.48648  20773608.466    20773618.5624
  20072489.755   -25834308.707 9 -20108406.65648  20072493.466    20072501.5454
  22225314.769   -14716518.886 8 -11456155.22946  22225318.603    22225329.3914
  23985930.138    -2747057.856 8  -2119002.12645  23985933.230    23985946.6484
  23320136.371    -8232234.230 8  -6109607.49346  23320136.586    23320148.3294
 00  3 29  1 49 30.0000000  0  6 23 17 26 06 09 10
  22940248.007   -10736823.887 8  -8340881.48246  22940251.401    22940262.8394
  20762325.338   -22111702.247 9 -17211109.55848  20762326.703    20762336.2324
  20077469.616   -25808149.977 9 -20088023.22748  20077471.447    20077479.7994
  22240260.855   -14637972.598 8 -11394950.38346  22240265.555    22240276.7104
  23966109.193    -2851222.205 8  -2200168.93545  23966111.097    23966125.0414
  23334485.200    -8156834.872 8  -6050854.82746  23334484.098    23334496.1474
 00  3 29  1 50  0.0000000  0  6 23 17 26 06 09 10
  22929135.582   -10795223.746 8  -8386387.74746  22929137.653    22929149.4104
  20751110.243   -22170635.617 9 -17257031.61848  20751111.960    20751121.1354
  20082551.021   -25781440.106 9 -20067210.33748  20082553.916    20082562.2144
  22255287.248   -14559027.911 8 -11333435.10246  22255288.707    22255299.0154
  23946294.952    -2955346.036 8  -2281304.12945  23946297.283    23946310.9634
  23348836.060    -8081390.010 8  -5992066.70246  23348841.835    23348852.9754
 00  3 29  1 50 30.0000000  0  6 23 17 26 06 09 10
  22918054.197   -10853485.956 8  -8431786.77246  22918051.905    22918062.2674
  20739964.308   -22229204.308 9 -17302669.51048  20739967.237    20739975.5984
  20087741.446   -25754169.151 9 -20045960.23848  20087743.601    20087751.4654
  22270389.864   -14479679.763 8 -11271605.43647  22270388.169    22270399.2424
  23926492.132    -3059441.398 8  -2362417.21745  23926488.729    23926502.1074
  23363205.730    -8005888.189 8  -5933234.19246  23363209.456    23363221.2344
 00  3 29  1 51  0.0000000  0  6 23 17 26 06 09 10
  22906984.862   -10911616.932 8  -8477083.54846  22906988.709    22906999.6134
  20728890.807   -22287401.356 9 -17348017.81148  20728892.331    20728901.1014
  20093034.678   -25726346.902 9 -20024280.56048  20093037.950    20093045.7014
  22285557.478   -14399943.372 8 -11209473.24947  22285561.604    22285572.3374
  23906681.202    -3163517.525 8  -2443515.28845  23906682.196    23906696.3194
  23377588.262    -7930331.660 8  -5874359.02546  23377586.468    23377597.7984
 00  3 29  1 51 30.0000000  0  6 23 17 26 06 09 10
  22895944.259   -10969630.374 8  -8522288.71446  22895949.478    22895959.8154
  20717884.768   -22345232.830 9 -17393081.24748  20717887.663    20717896.8174
  20098435.841   -25697966.207 9 -20002165.73648  20098438.505    20098446.4104
  22300803.074   -14319830.573 8 -11147047.76546  22300806.536    22300816.9204
  23886882.981    -3267584.246 8  -2524606.04445  23886879.681    23886892.9314
  23391969.086    -7854719.797 8  -5815440.73846  23391975.000    23391987.3644
 00  3 29  1 52  0.0000000  0  6 23 17 26 06 09 10
  22884925.075   -11027543.002 8  -8567415.32646  22884928.643    22884939.8744
  20706949.076   -22402698.591 9 -17437859.71848  20706952.082    20706960.7644
  20103946.124   -25669018.929 9 -19979609.40848  20103946.725    20103954.8394
  22316117.055   -14239368.508 8 -11084350.13246  22316117.798    22316129.2414
  23867080.596    -3371634.214 8  -2605683.74945  23867079.791    23867092.7284
  23406367.289    -7779041.480 8  -5756470.70246  23406375.633    23406388.8224
 00  3 29  1 52 30.0000000  0  6 23 17 26 06 09 10
  22873926.439   -11085369.726 8  -8612475.01046  22873925.270    22873935.8994
  20696085.906   -22459797.073 9 -17482352.00348  20696086.697    20696095.6124
  20109560.971   -25639503.510 9 -19956610.37548  20109563.537    20109571.7254
  22331489.645   -14158584.902 8 -11021401.92246  22331490.037    22331501.5264
  23847287.323    -3475659.838 7  -2686742.43545  23847283.911    23847297.0124
  23420785.117    -7703301.651 8  -5697452.73046  23420788.453    23420801.7714
 00  3 29  1 53  0.0000000  0  6 23 17 26 06 09 10
  22862937.868   -11143118.298 8  -8657473.81446  22862936.501    22862946.4464
  20685287.674   -22516529.209 9 -17526558.81948  20685290.659    20685299.8554
  20115283.403   -25609436.683 9 -19933181.67548  20115284.805    20115292.9764
  22346918.230   -14077492.768 8 -10958213.32746  22346922.253    22346932.6304
  23827494.549    -3579661.512 8  -2767782.49845  23827492.919    23827505.6964
  23435216.194    -7627512.186 8  -5638396.08446  23435212.149    23435221.7304
 00  3 29  1 53 30.0000000  0  6 23 17 26 06 09 10
  22851964.554   -11200769.963 8  -8702397.10146  22851965.781    22851976.5494
  20674561.792   -22572890.079 9 -17570476.34348  20674565.323    20674574.5114
  20121107.382   -25578821.087 9 -19909325.36648  20121110.397    20121118.6264
  22362408.509   -13996105.546 8 -10894794.77546  22362409.186    22362420.7174
  23807718.837    -3683638.092 8  -2848803.01345  23807707.233    23807719.5774
  23449645.467    -7551674.209 8  -5579301.62046  23449642.651    23449654.6214
 00  3 29  1 54  0.0000000  0  6 23 17 26 06 09 10
  22841011.815   -11258306.000 8  -8747230.26646  22841015.106    22841027.5624
  20663916.030   -22628852.697 9 -17614083.53848  20663916.180    20663925.1714
  20127036.994   -25547667.220 9 -19885049.61948  20127039.358    20127047.4504
  22377949.759   -13914433.620 8 -10831154.37646  22377951.343    22377962.2924
  23787929.303    -3787571.533 8  -2929789.91945  23787928.602    23787942.1954
  23464084.130    -7475793.674 8  -5520174.01146  23464081.879    23464095.1994
 00  3 29  1 54 30.0000000  0  6 23 17 26 06 09 10
  22830086.556   -11315709.505 8  -8791960.16846  22830091.167    22830103.4684
  20653339.964   -22684416.031 9 -17657379.60448  20653342.125    20653351.5094
  20133066.608   -25515983.047 9 -19860360.65048  20133068.529    20133077.0654
  22393548.440   -13832471.103 8 -10767287.56246  22393548.413    22393559.1654
  23768158.156    -3891446.404 8  -3010731.14945  23768162.189    23768174.8964
  23478524.740    -7399869.747 8  -5461012.58446  23478530.403    23478542.3784
 00  3 29  1 55  0.0000000  0  6 23 17 26 06 09 10
  22819196.211   -11372967.343 8  -8836576.55046  22819196.534    22819208.0474
  20642843.532   -22739575.519 9 -17700360.99148  20642845.803    20642855.4564
  20139192.216   -25483783.183 9 -19835269.84148  20139195.829    20139204.0344
  22409199.371   -13750211.780 8 -10703189.46846  22409201.321    22409212.5904
  23748410.950    -3995238.715 8  -3091608.10145  23748409.925    23748424.3304
  23492989.165    -7323879.270 8  -5401799.30746  23492991.452    23493002.6694
 00  3 29  1 55 30.0000000  0  6 23 17 26 06 09 10
  22808327.194   -11430086.264 8  -8881084.70546  22808326.846    22808338.2794
  20632424.281   -22794330.852 9 -17743027.44648  20632425.824    20632435.7044
  20145423.831   -25451058.495 9 -19809770.08348  20145423.489    20145431.4994
  22424911.226   -13667655.532 8 -10638859.99946  22424911.166    22424922.2324
  23728683.962    -4098935.050 8  -3172410.25746  23728677.793    23728691.2374
  23507461.336    -7247822.421 8  -5342534.32046  23507464.615    23507475.9744
 00  3 29  1 56  0.0000000  0  6 23 17 26 06 09 10
  22797480.006   -11487084.531 8  -8925498.85446  22797480.693    22797492.2034
  20622075.321   -22848696.160 9 -17785389.98948  20622080.610    20622090.4014
  20151749.917   -25417809.010 9 -19783861.38848  20151750.886    20151758.8884
  22440680.913   -13584787.784 8 -10574287.79146  22440681.268    22440691.5594
  23708963.363    -4202521.741 8  -3253126.98146  23708966.446    23708979.1354
  23521947.468    -7171700.818 8  -5283218.85346  23521949.621    23521961.9554
 00  3 29  1 56 30.0000000  0  6 23 17 26 06 09 10
  22786650.918   -11543980.091 8  -8969832.94647  22786653.560    22786665.3654
  20611802.036   -22902697.280 9 -17827468.75548  20611804.594    20611814.5274
  20158173.124   -25384038.567 9 -19757546.75248  20158176.960    20158185.0784
  22456509.514   -13501606.338 8 -10509471.15146  22456510.200    22456519.8434
  23689272.479    -4305998.571 8  -3333758.07846  23689274.058    23689288.2454
  23536445.273    -7095522.979 8  -5223859.60746  23536445.895    23536458.6834
 00  3 29  1 57  0.0000000  0  6 23 17 26 06 09 10
  22775842.818   -11600792.119 8  -9014101.96547  22775842.949    22775853.9254
  20601598.212   -22956331.358 9 -17869261.50348  20601598.594    20601607.8684
  20164699.306   -25349748.504 9 -19730827.22548  20164701.884    20164710.1924
  22472398.317   -13418114.451 8 -10444412.60346  22472398.109    22472408.7184
  23669598.577    -4409381.630 8  -3414316.11546  23669601.410    23669615.5194
  23550950.971    -7019305.153 8  -5164469.17246  23550950.779    23550962.2604
 00  3 29  1 57 30.0000000  0  6 23 17 26 06 09 10
  22765042.956   -11657527.811 8  -9058311.51547  22765046.151    22765057.0254
  20591457.255   -23009611.816 9 -17910778.70348  20591459.483    20591469.2474
  20171326.182   -25314931.739 9 -19703697.27348  20171327.247    20171335.2574
  22488340.200   -13334310.333 8 -10379110.78746  22488345.188    22488356.3514
  23649942.320    -4512686.653 8  -3494813.34346  23649943.364    23649957.1554
  23565462.243    -6943066.100 8  -5105062.20746  23565457.438    23565470.2914
 00  3 29  1 58  0.0000000  0  6 23 17 26 06 09 10
  22754264.431   -11714178.955 8  -9102455.15947  22754265.897    22754276.6474
  20581383.469   -23062543.192 9 -17952023.89648  20581387.048    20581396.4104
  20178049.934   -25279597.701 9 -19676164.25348  20178051.287    20178059.1644
  22504350.954   -13250201.983 8 -10313571.88746  22504350.420    22504361.5214
  23630304.576    -4615901.962 8  -3575240.66846  23630302.086    23630314.5764
  23579954.412    -6866792.430 8  -5045628.27445  23579971.407    23579983.8194
 00  3 29  1 58 30.0000000  0  6 23 17 26 06 09 10
  22743505.315   -11770734.911 8  -9146524.64947  22743503.717    22743514.3054
  20571382.872   -23115105.848 9 -17992981.77148  20571384.881    20571394.0074
  20184870.919   -25243742.298 9 -19648224.97148  20184873.921    20184882.0994
  22520407.352   -13165795.273 8 -10247800.50646  22520413.179    22520423.7354
  23610668.284    -4719027.163 8  -3655597.78546  23610676.731    23610690.4334
  23594500.883    -6790480.513 8  -4986164.52045  23594494.399    23594505.4524
 00  3 29  1 59  0.0000000  0  6 23 17 26 06 09 10
  22732760.139   -11827178.171 8  -9190506.31847  22732763.618    22732773.2694
  20561453.253   -23167282.644 9 -18033638.97148  20561455.618    20561464.8344
  20191796.103   -25207356.966 9 -19619872.77448  20191797.920    20191806.1284
  22536527.222   -13081096.431 8 -10181801.45746  22536530.648    22536541.6634
  23591072.025    -4822075.798 8  -3735895.20946  23591067.533    23591080.8684
  23609023.807    -6714107.782 8  -4926653.40446  23609027.693    23609039.9724
 00  3 29  1 59 30.0000000  0  6 23 17 26 06 09 10
  22722048.027   -11883491.274 8  -9234386.57747  22722047.494    22722057.2824
  20551602.353   -23219062.194 9 -18073986.63348  20551602.887    20551611.6214
  20198820.705   -25170443.082 9 -19591108.70748  20198822.276    20198830.3314
  22552705.903   -12996098.009 8 -10115569.00146  22552705.167    22552716.6404
  23571474.176    -4925032.827 8  -3816121.26846  23571475.719    23571488.8764
  23623572.324    -6637655.957 8  -4867080.67345  23623575.108    23623587.6274
 00  3 29  2  0  0.0000000  0  6 23 17 26 06 09 10
  22711352.112   -11939677.747 8  -9278168.17647  22711355.166    22711365.0864
  20541825.735   -23270424.350 9 -18114009.04748  20541828.564    20541837.7144
  20205947.165   -25132994.824 9 -19561928.24748  20205948.684    20205956.9914
  22568938.886   -12910801.302 8 -10049104.12646  22568936.390    22568947.9674
  23551902.496    -5027895.566 8  -3896273.86546  23551901.082    23551914.7404
  23638139.688    -6561128.027 8  -4807448.61145  23638138.691    23638150.1414
 00  3 29  2  0 30.0000000  0  6 23 17 26 06 09 10
  22700686.152   -11995738.238 8  -9321851.60947  22700686.898    22700697.9004
  20532135.795   -23321354.356 9 -18153694.71748  20532136.746    20532145.8194
  20213174.208   -25095006.979 9 -19532327.32748  20213177.399    20213185.7404
  22585221.948   -12825207.344 8  -9982407.62646  22585225.362    22585235.7054
  23532340.900    -5130685.221 8  -3976369.50446  23532341.816    23532353.9104
  23652712.150    -6484532.343 8  -4747763.71345  23652714.833    23652726.5834
 00  3 29  2  1  0.0000000  0  6 23 17 26 06 09 10
  22690038.291   -12051678.503 8  -9365441.34847  22690041.347    22690052.1884
  20522522.306   -23371857.216 9 -18193047.55648  20522526.302    20522535.6264
  20220501.842   -25056491.045 9 -19502314.90348  20220506.657    20220515.1034
  22601563.542   -12739333.336 8  -9915492.88546  22601565.530    22601577.5224
  23512789.375    -5233391.882 8  -4056400.48446  23512795.782    23512809.2114
  23667302.129    -6407864.073 8  -4688022.29345  23667302.829    23667316.1554
 00  3 29  2  1 30.0000000  0  6 23 17 26 06 09 10
  22679412.176   -12107506.027 8  -9408943.23047  22679417.199    22679428.3784
  20512998.005   -23421928.712 9 -18232064.26248  20512998.438    20513007.2124
  20227933.872   -25017454.242 9 -19471896.61948  20227935.382    20227943.4684
  22617957.984   -12653184.501 8  -9848364.03446  22617958.942    22617971.8454
  23493271.130    -5335989.605 8  -4136346.55946  23493272.155    23493284.8734
  23681912.921    -6331142.441 8  -4628239.35545  23681903.331    23681915.8184
 00  3 29  2  2  0.0000000  0  6 23 17 26 06 09 10
  22668813.742   -12163233.263 8  -9452367.00347  22668813.740    22668824.2754
  20503548.600   -23471568.583 9 -18270744.64248  20503552.148    20503561.0374
  20235460.194   -24977901.012 9 -19441075.91848  20235462.340    20235470.4984
  22634395.564   -12566790.988 8  -9781044.50046  22634400.098    22634411.0284
  23473774.568    -5438482.680 8  -4216211.09446  23473768.054    23473780.2814
  23696514.318    -6254371.815 8  -4568418.17145  23696513.661    23696524.9004
 00  3 29  2  2 30.0000000  0  6 23 17 26 06 09 10
  22658226.685   -12218851.649 8  -9495705.93047  22658229.606    22658239.6854
  20494185.910   -23520777.518 9 -18309089.22448  20494187.735    20494196.5144
  20243081.339   -24937853.571 9 -19409870.12448  20243082.849    20243091.0764
  22650882.248   -12480154.832 8  -9713535.88546  22650886.674    22650898.1674
  23454282.132    -5540862.123 8  -4295987.08446  23454286.042    23454298.5184
  23711131.478    -6177547.350 8  -4508555.04345  23711132.141    23711143.9544
 00  3 29  2  3  0.0000000  0  6 23 17 26 06 09 10
  22647662.824   -12274365.365 8  -9538963.30747  22647665.415    22647675.3104
  20484904.150   -23569558.402 9 -18347100.25348  20484905.373    20484913.9544
  20250794.172   -24897319.699 9 -19378285.29148  20250796.313    20250804.4894
  22667420.566   -12393265.004 8  -9645829.61046  22667420.870    22667431.3024
  23434819.146    -5643113.654 8  -4375663.38945  23434828.376    23434839.8694
  23725755.418    -6100674.109 8  -4448653.91245  23725759.783    23725772.8144
 00  3 29  2  3 30.0000000  0  6 23 17 26 06 09 10
  22637116.318   -12329786.707 8  -9582148.70447  22637118.071    22637128.9984
  20475702.973   -23617912.197 9 -18384778.49248  20475703.747    20475712.5034
  20258599.680   -24856297.644 9 -19346320.05848  20258602.641    20258610.7684
  22684003.394   -12306113.053 8  -9577919.09146  22684005.478    22684016.7504
  23415388.423    -5745241.754 8  -4455243.49145  23415393.005    23415405.3804
  23740391.923    -6023768.586 8  -4388727.65045  23740394.208    23740406.8664
 00  3 29  2  4  0.0000000  0  6 23 17 26 06 09 10
  22626589.574   -12385121.419 8  -9625266.59247  22626588.834    22626599.1304
  20466578.953   -23665850.896 9 -18422133.28048  20466581.041    20466589.8814
  20266498.737   -24814799.340 9 -19313983.72048  20266499.522    20266507.8514
  22700638.919   -12218695.426 8  -9509801.55946  22700640.790    22700652.4814
  23395973.838    -5847255.401 8  -4534734.43546  23395980.128    23395992.9674
  23755041.488    -5946827.952 8  -4328773.98845  23755037.187    23755049.0554
 00  3 29  2  4 30.0000000  0  6 23 17 26 06 09 10
  22616072.435   -12440364.226 8  -9668312.86447  22616076.200    22616087.3964
  20457534.522   -23713384.304 9 -18459172.25848  20457535.716    20457544.4974
  20274484.905   -24772820.127 9 -19281272.64848  20274487.699    20274495.8544
  22717330.814   -12130991.265 8  -9441460.75646  22717330.163    22717341.3434
  23376585.871    -5949147.495 8  -4614130.69046  23376590.861    23376603.2134
  23769679.122    -5869849.780 8  -4268791.10345  23769685.008    23769697.6144
 00  3 29  2  5  0.0000000  0  6 23 17 26 06 09 10
  22605577.888   -12495524.147 8  -9711294.55847  22605580.590    22605591.1624
  20448565.219   -23760515.394 9 -18495897.74048  20448567.309    20448575.8034
  20282564.794   -24730348.443 9 -19248177.83248  20282569.703    20282577.9984
  22734070.884   -12043020.916 8  -9372912.52246  22734071.072    22734082.1454
  23357220.507    -6050915.435 8  -4693430.18646  23357225.733    23357237.8934
  23784344.120    -5792829.844 8  -4208775.69445  23784340.263    23784353.8714
 00  3 29  2  5 30.0000000  0  6 23 17 26 06 09 10
  22595101.248   -12550589.196 8  -9754202.32547  22595101.320    22595111.7834
  20439670.893   -23807243.738 9 -18532309.39448  20439675.029    20439683.9584
  20290744.516   -24687382.915 9 -19214698.20948  20290745.923    20290754.2154
  22750853.483   -11954808.455 8  -9304175.62846  22750856.309    22750868.5904
  23337880.476    -6152562.007 8  -4772635.08646  23337882.217    23337894.6864
  23799002.949    -5715758.941 8  -4148720.52845  23799007.895    23799019.1774
 00  3 29  2  6  0.0000000  0  6 23 17 26 06 09 10
  22584640.114   -12605539.896 8  -9797020.97847  22584644.145    22584654.9974
  20430860.362   -23853561.497 9 -18568401.11148  20430861.025    20430870.0724
  20299015.103   -24643915.725 9 -19180827.67948  20299017.331    20299025.4954
  22767687.357   -11866357.192 8  -9235252.67746  22767688.124    22767700.0524
  23318561.553    -6254085.953 8  -4851744.46446  23318563.041    23318574.6714
  23813681.847    -5638620.032 8  -4088612.35145  23813687.467    23813699.2894
 00  3 29  2  6 30.0000000  0  6 23 17 26 06 09 10
  22574213.783   -12660362.961 8  -9839740.18847  22574212.333    22574223.1174
  20422125.185   -23899451.537 9 -18604159.54848  20422128.127    20422137.4644
  20307385.135   -24599932.872 9 -19146555.32948  20307386.741    20307395.2194
  22784561.731   -11777670.856 8  -9166146.55946  22784564.723    22784576.0574
  23299263.503    -6355479.770 8  -4930752.43646  23299267.410    23299279.8004
  23828380.984    -5561408.702 8  -4028447.75046  23828380.046    23828392.8894
 00  3 29  2  7  0.0000000  0  6 23 17 26 06 09 10
  22563799.747   -12715058.543 8  -9882360.05947  22563804.097    22563814.3604
  20413476.662   -23944905.298 9 -18639578.02348  20413478.814    20413487.8124
  20315853.302   -24555435.604 9 -19111882.14248  20315854.507    20315862.8724
  22801479.675   -11688757.021 8  -9096863.16246  22801484.867    22801497.0344
  23279994.427    -6456738.219 8  -5009654.92346  23279998.763    23280011.3604
  23843075.667    -5484138.831 8  -3968237.59545  23843083.466    23843097.1174
 00  3 29  2  7 30.0000000  0  6 23 17 26 06 09 10
  22553420.064   -12769623.490 8  -9924878.13447  22553419.961    22553431.3344
  20404911.388   -23989917.190 9 -18674652.18848  20404913.333    20404922.0534
  20324416.351   -24510429.396 9 -19076812.38048  20324418.597    20324426.9794
  22818447.010   -11599602.380 8  -9027392.11046  22818451.122    22818461.7404
  23260753.734    -6557851.484 8  -5088444.29346  23260757.702    23260769.7054
  23857794.572    -5406819.877 8  -3907989.17545  23857795.547    23857810.6464
 00  3 29  2  8  0.0000000  0  6 23 17 26 06 09 10
  22543055.073   -12824071.180 8  -9967304.81947  22543058.858    22543070.4754
  20396429.670   -24034478.182 9 -18709374.99748  20396433.422    20396442.1054
  20333076.247   -24464922.418 9 -19041352.39848  20333078.473    20333086.9524
  22835469.101   -11510187.454 8  -8957718.23546  22835466.326    22835478.0714
  23241549.607    -6658806.030 8  -5167110.01346  23241546.937    23241558.7414
  23872520.766    -5329456.448 8  -3847706.07945  23872519.032    23872530.3564
 00  3 29  2  8 30.0000000  0  6 23 17 26 06 09 10
  22532717.740   -12878410.708 8 -10009647.24047  22532718.674    22532728.9444
  20388036.332   -24078586.666 9 -18743745.20748  20388039.426    20388048.7604
  20341829.018   -24418929.970 9 -19005514.13548  20341831.014    20341838.8984
  22852527.364   -11420515.302 8  -8887843.93146  22852529.864    22852541.1354
  23222363.058    -6759599.228 8  -5245649.96346  23222366.322    23222378.1964
  23887245.763    -5252066.206 8  -3787402.01955  23887247.005    23887258.1214
 00  3 29  2  9  0.0000000  0  6 23 17 26 06 09 10
  22522396.443   -12932653.633 8 -10051914.36047  22522396.014    22522407.0734
  20379729.988   -24122248.734 9 -18777767.56348  20379731.393    20379740.1954
  20350670.973   -24372464.168 9 -18969307.02848  20350673.150    20350681.2034
  22869639.980   -11330597.786 8  -8817778.42946  22869640.874    22869651.7664
  23203210.170    -6860235.656 8  -5324067.79346  23203215.612    23203227.8574
  23901971.128    -5174659.101 8  -3727084.86245  23901976.476    23901990.0164
 00  3 29  2  9 30.0000000  0  6 23 17 26 06 09 10
  22512093.384   -12986796.729 8 -10094103.72747  22512093.563    22512104.0184
  20371505.748   -24165458.080 9 -18811437.15148  20371508.885    20371517.5224
  20359602.721   -24325529.607 9 -18932734.64848  20359604.272    20359612.3924
  22886794.441   -11240443.563 8  -8747528.48746  22886796.384    22886807.7644
  23184093.663    -6960716.980 8  -5402364.75846  23184094.806    23184106.9264
  23916709.736    -5097216.052 8  -3666739.79445  23916712.402    23916726.5954
 00  3 29  2 10  0.0000000  0  6 23 17 26 06 09 10
  22501810.346   -13040838.345 8 -10136214.00547  22501810.349    22501819.8494
  20363370.793   -24208212.402 9 -18844752.17248  20363372.862    20363381.6644
  20368623.391   -24278124.889 9 -18895795.91648  20368625.079    20368633.2854
  22903990.954   -11150071.865 8  -8677109.09546  22903994.006    22904005.3334
  23164996.038    -7061056.898 8  -5480551.57146  23165000.382    23165012.5534
  23931457.644    -5019727.388 8  -3606359.14345  23931459.305    23931471.6324
 00  3 29  2 10 30.0000000  0  6 23 17 26 06 09 10
  22491544.336   -13094774.570 8 -10178242.15147  22491545.725    22491555.8504
  20355318.881   -24250523.924 9 -18877722.15548  20355321.126    20355330.1244
  20377729.830   -24230248.245 9 -18858489.44648  20377735.703    20377744.0254
  22921225.482   -11059508.152 8  -8606540.06746  22921227.304    22921240.2574
  23145929.098    -7161258.823 8  -5558630.82846  23145932.091    23145944.5174
  23946211.149    -4942196.628 8  -3545945.62145  23946212.307    23946223.4084
 00  3 29  2 11  0.0000000  0  6 23 17 26 06 09 10
  22481302.473   -13148596.627 8 -10220181.32647  22481302.888    22481314.0024
  20347350.641   -24292392.608 9 -18910347.07648  20347353.658    20347362.4764
  20386931.270   -24181901.881 9 -18820816.96448  20386935.668    20386944.2034
  22938497.919   -10968756.246 8  -8535824.39446  22938497.327    22938508.5404
  23126895.756    -7261304.563 8  -5636588.37746  23126893.903    23126906.4344
  23960973.538    -4864606.627 8  -3485485.94445  23960977.609    23960989.9214
 00  3 29  2 11 30.0000000  0  6 23 17 26 06 09 10
  22471080.214   -13202304.916 8 -10262031.84647  22471083.794    22471093.9254
  20339468.342   -24333809.386 9 -18942619.85948  20339472.469    20339481.2574
  20396220.623   -24133092.330 9 -18782783.54948  20396223.684    20396232.1324
  22955804.998   -10877805.863 8  -8464954.07146  22955804.997    22955816.6504
  23107885.558    -7361176.379 8  -5714410.40746  23107889.040    23107901.0864
  23975752.000    -4786948.036 8  -3424972.88245  23975753.950    23975768.0064
 00  3 29  2 12  0.0000000  0  6 23 17 26 06 09 10
  22460881.200   -13255909.717 9 -10303801.73847  22460882.889    22460892.2964
  20331675.030   -24374774.556 9 -18974540.74148  20331677.083    20331686.1764
  20405594.741   -24083828.506 9 -18744396.16348  20405598.455    20405606.9294
  22973144.681   -10786653.846 8  -8393926.62946  22973150.663    22973162.0084
  23088917.744    -7460866.366 8  -5792090.76246  23088918.638    23088930.6404
  23990538.332    -4709240.986 8  -3364422.08145  23990543.548    23990555.4074
 00  3 29  2 12 30.0000000  0  6 23 17 26 06 09 10
  22450701.256   -13309415.155 9 -10345494.21047  22450701.161    22450709.6134
  20323963.143   -24415290.427 9 -19006111.51948  20323966.863    20323976.0204
  20415057.874   -24034108.787 9 -18705653.52648  20415059.792    20415068.1804
  22990537.663   -10695283.806 8  -8322729.31046  22990537.302    22990548.9694
  23069983.632    -7560348.828 8  -5869609.43046  23069987.409    23069999.4944
  24005335.659    -4631486.860 8  -3303834.54645  24005339.357    24005351.2514
 00  3 29  2 13  0.0000000  0  6 23 17 26 06 09 10
  22440535.801   -13362827.136 8 -10387113.84547  22440536.670    22440546.0734
  20316343.806   -24455340.667 9 -19037319.47948  20316345.978    20316354.2854
  20424605.110   -23983932.908 9 -18666555.43848  20424607.992    20424616.3084
  23007963.893   -10603686.629 8  -8251354.99146  23007968.996    23007979.3194
  23051106.613    -7659613.845 8  -5946958.64746  23051097.980    23051110.0284
  24020149.439    -4553677.940 8  -3243204.30545  24020145.216    24020158.1144
 00  3 29  2 13 30.0000000  0  6 23 17 26 06 09 10
  22430384.180   -13416161.204 9 -10428672.76547  22430388.470    22430397.3364
  20308811.507   -24494920.918 9 -19068161.20148  20308813.884    20308822.3444
  20434240.928   -23933301.335 9 -18627102.27348  20434242.784    20434251.4224
  23025438.110   -10511864.383 8  -8179805.28846  23025441.529    23025451.6754
  23032248.558    -7758685.380 8  -6024157.09046  23032245.126    23032257.0594
  24034952.541    -4475824.059 7  -3182539.06845  24034959.876    24034973.6214
 00  3 29  2 14  0.0000000  0  6 23 17 26 06 09 10
  22420254.731   -13469406.581 9 -10470162.58247  22420255.704    22420264.8414
  20301366.499   -24534038.479 9 -19098642.39448  20301369.724    20301378.7574
  20443963.592   -23882201.129 9 -18587283.93948  20443966.874    20443975.5574
  23042950.624   -10419830.618 8  -8108090.74246  23042954.885    23042967.4054
  23013427.400    -7857572.342 8  -6101211.70546  23013428.043    23013439.0854
  24049778.929    -4397922.991 8  -3121837.06945  24049784.822    24049797.8914
 00  3 29  2 14 30.0000000  0  6 23 17 26 06 09 10
  22410139.409   -13522555.252 8 -10511577.05347  22410141.074    22410150.6804
  20294012.076   -24572693.976 9 -19128763.53648  20294014.082    20294022.7454
  20453776.125   -23830632.595 9 -18547100.66648  20453779.929    20453788.2764
  23060509.378   -10327595.808 8  -8036219.57246  23060507.115    23060518.4754
  22994639.958    -7956277.687 8  -6178124.82146  22994644.635    22994655.7374
  24064617.586    -4319959.093 8  -3061086.09945  24064622.450    24064634.6944
 00  3 29  2 15  0.0000000  0  6 23 17 26 06 09 10
  22400041.381   -13575600.926 8 -10552911.25347  22400046.702    22400057.1804
  20286746.555   -24610874.669 9 -19158514.69848  20286748.672    20286757.2724
  20463678.153   -23778613.414 9 -18506566.24448  20463679.254    20463687.2984
  23078094.225   -10235158.457 8  -7964190.57446  23078097.211    23078107.9874
  22975884.429    -8054816.238 8  -6254907.97246  22975892.621    22975904.5054
  24079462.660    -4241939.552 8  -3000291.73745  24079467.698    24079480.0934
 00  3 29  2 15 30.0000000  0  6 23 17 26 06 09 10
  22389972.189   -13628531.422 8 -10594155.70747  22389973.596    22389984.5354
  20279571.998   -24648580.466 9 -19187895.80848  20279573.401    20279581.8784
  20473660.117   -23726155.891 9 -18465690.25648  20473661.474    20473669.5514
  23095721.534   -10142529.468 8  -7892012.27046  23095723.454    23095735.0604
  22957171.815    -8153189.706 8  -6331562.48746  22957172.424    22957184.5444
  24094320.084    -4163868.553 8  -2939457.32045  24094323.539    24094337.0344
 00  3 29  2 16  0.0000000  0  6 23 17 26 06 09 10
  22379923.906   -13681333.476 8 -10635300.06147  22379925.943    22379936.4474
  20272487.142   -24685805.179 9 -19216902.05148  20272489.583    20272498.2154
  20483723.127   -23673262.457 9 -18424474.60448  20483726.587    20483735.1944
  23113381.931   -10049720.590 8  -7819693.76946  23113384.785    23113395.3114
  22938487.318    -8251365.396 8  -6408062.84646  22938490.210    22938502.5394
  24109190.969    -4085745.572 8  -2878582.40445  24109191.137    24109203.2964
 00  3 29  2 16 30.0000000  0  6 23 17 26 06 09 10
  22369900.863   -13734011.445 8 -10676347.76047  22369901.968    22369911.6834
  20265499.518   -24722536.166 9 -19245523.56848  20265499.983    20265508.9034
  20493866.305   -23619956.696 9 -18382937.65548  20493869.884    20493878.2814
  23131079.171    -9956725.457 8  -7747230.12846  23131081.768    23131092.1554
  22919845.149    -8349331.015 8  -6484399.52646  22919848.114    22919859.6874
  24124064.662    -4007579.217 8  -2817673.65445  24124064.586    24124079.4484
 00  3 29  2 17  0.0000000  0  6 23 17 26 06 09 10
  22359900.275   -13786561.173 8 -10717295.52247  22359902.351    22359910.9284
  20258604.160   -24758765.109 9 -19273753.89448  20258605.943    20258614.7774
  20504089.807   -23566241.130 9 -18341081.37748  20504092.262    20504100.4964
  23148807.742    -9863552.508 8  -7674627.93046  23148811.001    23148822.7024
  22901243.997    -8447075.810 8  -6560564.16446  22901248.392    22901259.5394
  24138945.544    -3929374.970 7  -2756735.44445  24138946.619    24138960.6964
 00  3 29  2 17 30.0000000  0  6 23 17 26 06 09 10
  22349924.698   -13838982.322 9 -10758143.09947  22349927.229    22349936.1014
  20251803.648   -24794502.677 9 -19301601.32648  20251805.210    20251813.9234
  20514393.778   -23512099.864 9 -18298893.38948  20514394.621    20514402.9794
  23166566.952    -9770229.557 8  -7601908.86646  23166570.112    23166582.6084
  22882689.025    -8544592.304 8  -6636550.87946  22882691.168    22882702.4724
  24153836.298    -3851129.990 7  -2695765.46445  24153836.590    24153850.9904
 00  3 29  2 18  0.0000000  0  6 23 17 26 06 09 10
  22339969.894   -13891280.089 8 -10798894.53347  22339974.438    22339984.6054
  20245094.874   -24829755.317 9 -19329070.88948  20245096.619    20245105.7594
  20524778.006   -23457520.424 9 -18256363.95948  20524781.010    20524789.5134
  23184359.465    -9676747.696 8  -7529065.96946  23184359.518    23184371.0454
  22864173.783    -8641879.166 8  -6712358.68346  22864178.279    22864189.1414
  24168737.466    -3772848.735 8  -2634767.20145  24168733.112    24168745.2954
 00  3 29  2 18 30.0000000  0  6 23 17 26 06 09 10
  22330044.084   -13943457.970 8 -10839552.53547  22330045.766    22330055.7124
  20238478.358   -24864527.210 9 -19356165.85248  20238479.963    20238488.6324
  20535248.297   -23402497.962 9 -18213489.32048  20535251.189    20535259.7394
  23202176.211    -9583101.707 8  -7456095.17346  23202180.059    23202191.2634
  22845706.503    -8738957.953 8  -6788004.35546  22845703.924    22845714.9414
  24183640.058    -3694528.325 8  -2573738.38645  24183638.754    24183650.0294
 00  3 29  2 19  0.0000000  0  6 23 17 26 06 09 10
  22320136.901   -13995520.260 9 -10880120.48147  22320138.423    22320147.8374
  20231952.357   -24898822.262 9 -19382889.24048  20231953.985    20231962.4964
  20545808.678   -23347011.777 9 -18170253.34748  20545810.478    20545818.5034
  23220023.678    -9489298.943 8  -7383002.22346  23220030.472    23220040.5544
  22827262.613    -8835835.590 8  -6863493.27446  22827268.318    22827280.6314
  24198539.189    -3616172.511 7  -2512681.99145  24198546.987    24198561.7514
 00  3 29  2 19 30.0000000  0  6 23 17 26 06 09 10
  22310248.632   -14047471.138 8 -10920601.62547  22310252.034    22310261.8124
  20225515.063   -24932644.764 9 -19409244.40648  20225517.401    20225526.1904
  20556455.797   -23291053.058 9 -18126649.16148  20556458.551    20556466.8914
  23237912.519    -9395324.331 8  -7309775.34346  23237912.842    23237923.7854
  22808870.822    -8932514.966 8  -6938827.70546  22808871.777    22808882.7874
  24213463.152    -3537784.877 7  -2451600.85645  24213463.522    24213478.1864
 00  3 29  2 20  0.0000000  0  6 23 17 26 06 09 10
  22300385.099   -14099320.792 9 -10961003.88247  22300385.844    22300395.9524
  20219169.495   -24965984.307 9 -19435223.25348  20219173.041    20219182.1484
  20567190.022   -23234637.586 9 -18082689.06548  20567193.949    20567202.0684
  23255830.358    -9301164.459 8  -7236404.14546  23255830.962    23255842.4604
  22790506.076    -9028994.227 8  -7014006.20646  22790512.161    22790523.2584
  24228386.050    -3459365.308 7  -2390494.87945  24228387.933    24228401.9924
 00  3 29  2 20 30.0000000  0  6 23 17 26 06 09 10
  22290536.726   -14151075.803 8 -11001332.41247  22290537.196    22290547.0124
  20212919.557   -24998833.408 9 -19460819.92848  20212922.281    20212930.8834
  20578014.018   -23177775.136 9 -18038380.67448  20578014.987    20578022.9364
  23273780.281    -9206829.356 8  -7162896.40146  23273782.421    23273793.9254
  22772193.638    -9125265.680 8  -7089022.78446  22772192.261    22772203.4344
  24243317.070    -3380904.167 8  -2329356.41745  24243319.073    24243330.7544
 00  3 29  2 21  0.0000000  0  6 23 17 26 06 09 10
  22280703.140   -14202743.923 9 -11041593.20447  22280705.129    22280715.1734
  20206761.436   -25031197.177 9 -19486038.42448  20206763.560    20206772.0574
  20588913.227   -23120477.633 9 -17993733.28248  20588918.121    20588926.3644
  23291766.495    -9112325.568 8  -7089257.21946  23291765.414    23291779.2164
  22753916.083    -9221305.771 8  -7163859.08246  22753915.282    22753927.5394
  24258263.529    -3302395.053 8  -2268180.54145  24258257.642    24258270.0174
 00  3 29  2 21 30.0000000  0  6 23 17 26 06 09 10
  22270886.487   -14254331.738 9 -11081791.44747  22270888.656    22270898.0644
  20200695.461   -25063067.766 9 -19510872.62248  20200698.730    20200707.4644
  20599897.142   -23062765.922 9 -17948763.12248  20599900.323    20599908.3434
  23309778.256    -9017658.300 8  -7015490.63946  23309780.389    23309792.7224
  22735681.360    -9317104.734 8  -7238507.48546  22735684.653    22735696.9694
  24273207.070    -3223817.235 7  -2206951.14645  24273211.375    24273225.2544
 00  3 29  2 22  0.0000000  0  6 23 17 26 06 09 10
  22261085.148   -14305838.709 9 -11121926.69347  22261086.181    22261096.4574
  20194727.756   -25094442.232 9 -19535320.23548  20194728.450    20194737.4114
  20610955.018   -23004662.426 9 -17903487.68248  20610957.110    20610965.5304
  23327822.622    -8922842.775 8  -6941608.53846  23327823.385    23327835.6384
  22717502.388    -9412651.780 8  -7312959.60046  22717504.410    22717514.7884
  24288173.746    -3145163.022 7  -2145662.29745  24288176.777    24288193.7614
 00  3 29  2 22 30.0000000  0  6 23 17 26 06 09 10
  22251300.741   -14357252.295 9 -11161989.16147  22251303.119    22251312.8714
  20188848.712   -25125325.729 9 -19559385.26948  20188851.372    20188860.0444
  20622085.798   -22946158.490 9 -17857900.21448  20622090.324    20622098.1384
  23345890.720    -8827890.480 8  -6867619.83146  23345892.955    23345904.0804
  22699369.944    -9507931.868 8  -7387203.71746  22699373.105    22699384.1414
  24303157.232    -3066433.046 7  -2084314.40945  24303160.085    24303174.5454
 00  3 29  2 23  0.0000000  0  6 23 17 26 06 09 10
  22241536.138   -14408562.477 9 -11201971.07547  22241539.382    22241549.1994
  20183067.575   -25155711.514 9 -19583062.47948  20183069.142    20183077.9124
  20633293.909   -22887256.503 9 -17812002.57148  20633298.876    20633306.7524
  23363977.733    -8732816.233 8  -6793536.14146  23363984.282    23363996.7004
  22681292.650    -9602947.159 8  -7461241.46746  22681291.437    22681303.9914
  24318153.191    -2987640.320 7  -2022917.59945  24318155.588    24318167.6304
 00  3 29  2 23 30.0000000  0  6 23 17 26 06 09 10
  22231792.206   -14459754.867 9 -11241861.19347  22231796.720    22231807.3514
  20177382.276   -25185584.947 9 -19606340.44848  20177384.508    20177393.2694
  20644580.853   -22827953.898 9 -17765792.75148  20644583.597    20644592.0544
  23382100.081    -8637621.245 8  -6719358.37646  23382099.577    23382111.7044
  22663258.542    -9697711.691 8  -7535083.80746  22663257.950    22663269.8654
  24333159.430    -2908808.155 7  -1961490.07945  24333154.671    24333169.2184
 00  3 29  2 24  0.0000000  0  6 23 17 26 06 09 10
  22222075.816   -14510814.543 8 -11281647.89847  22222079.711    22222090.5694
  20171793.354   -25214953.020 9 -19629224.64048  20171795.670    20171804.8294
  20655940.901   -22768243.210 9 -17719264.95948  20655946.305    20655954.4214
  23400234.400    -8542300.982 8  -6645082.96846  23400238.148    23400250.4834
  22645274.508    -9792214.588 8  -7608722.28246  22645274.196    22645286.1604
  24348158.856    -2829964.921 7  -1900053.86745  24348158.189    24348172.5994
 00  3 29  2 24 30.0000000  0  6 23 17 26 06 09 10
  22212388.039   -14561745.773 9 -11321334.53147  22212389.419    22212398.8984
  20166304.676   -25243802.192 9 -19651704.48748  20166306.210    20166314.5524
  20667383.720   -22708121.067 9 -17672416.54948  20667386.980    20667395.2854
  23418398.465    -8446858.443 8  -6570712.25945  23418400.700    23418412.3984
  22627337.209    -9886458.471 8  -7682158.95846  22627341.370    22627351.9234
  24363166.009    -2751121.920 7  -1838617.91145  24363162.868    24363176.8344
 00  3 29  2 25  0.0000000  0  6 23 17 26 06 09 10
  22202718.325   -14612559.991 9 -11360929.98047  22202719.364    22202729.8934
  20160913.380   -25272127.077 9 -19673775.80248  20160915.884    20160924.7354
  20678902.090   -22647605.865 9 -17625261.85948  20678902.636    20678910.9364
  23436576.041    -8351287.795 8  -6496241.72445  23436586.892    23436598.3134
  22609452.311    -9980449.809 8  -7755398.84646  22609455.574    22609465.7904
  24378168.370    -2672273.063 8  -1777177.35245  24378166.840    24378181.4044
 00  3 29  2 25 30.0000000  0  6 23 17 26 06 09 10
  22193068.848   -14663270.977 9 -11400444.98847  22193069.693    22193079.7964
  20155622.950   -25299931.595 9 -19695441.63548  20155624.849    20155633.7214
  20690488.589   -22586701.830 9 -17577804.18148  20690492.327    20690500.7454
  23454796.758    -8255564.573 8  -6421652.35045  23454802.706    23454814.7474
  22591612.750   -10074172.898 8  -7828429.73246  22591619.233    22591630.0024
  24393171.515    -2593408.065 7  -1715724.21545  24393174.812    24393188.6354
 00  3 29  2 26  0.0000000  0  6 23 17 26 06 09 10
  22183437.711   -14713890.558 9 -11439888.75447  22183436.564    22183446.6904
  20150428.553   -25327219.962 9 -19716705.27548  20150431.781    20150440.6174
  20702152.743   -22525412.341 9 -17530046.15548  20702155.475    20702164.0794
  23473045.213    -8159692.906 8  -6346947.31245  23473046.707    23473059.2134
  22573834.625   -10167618.778 8  -7901244.56746  22573837.572    22573848.7644
  24408190.313    -2514502.606 7  -1654239.59345  24408189.370    24408203.5344
 00  3 29  2 26 30.0000000  0  6 23 17 26 06 09 10
  22173818.024   -14764431.048 9 -11479270.88947  22173818.772    22173828.8824
  20145336.323   -25353987.217 9 -19737562.85148  20145338.486    20145347.0594
  20713888.725   -22463737.207 9 -17481987.61748  20713891.880    20713900.3074
  23491316.330    -8063693.431 8  -6272142.64445  23491315.144    23491326.5104
  22556108.192   -10260797.431 8  -7973851.20446  22556106.460    22556117.5184
  24423213.701    -2435534.686 7  -1592706.27745  24423218.021    24423230.1934
 00  3 29  2 27  0.0000000  0  6 23 17 26 06 09 10
  22164215.963   -14814889.784 9 -11518589.33847  22164217.478    22164226.1764
  20140337.693   -25380242.937 9 -19758021.82848  20140341.993    20140350.8304
  20725701.397   -22401669.826 9 -17433623.43848  20725703.130    20725711.2664
  23509605.554    -7967566.212 8  -6197238.44046  23509607.750    23509619.6424
  22538418.434   -10353707.496 8  -8046248.49646  22538426.102    22538436.9544
  24438259.327    -2356496.046 7  -1531117.80945  24438257.502    24438271.9524
 00  3 29  2 27 30.0000000  0  6 23 17 26 06 09 10
  22154633.890   -14865251.539 9 -11557832.22547  22154633.892    22154642.7654
  20135441.102   -25405985.955 9 -19778081.30448  20135443.419    20135451.8964
  20737587.518   -22339202.722 9 -17384947.79648  20737590.169    20737598.2194
  23527925.903    -7871319.983 8  -6122241.51046  23527923.311    23527935.0714
  22520795.578   -10446349.719 8  -8118437.16246  22520797.360    22520807.1214
  24453310.887    -2277391.779 7  -1469478.26545  24453310.720    24453324.1754
 00  3 29  2 28  0.0000000  0  6 23 17 26 06 09 10
  22145069.432   -14915498.504 9 -11596985.65047  22145071.556    22145081.4984
  20130638.628   -25431219.378 9 -19797743.68548  20130641.456    20130650.1074
  20749549.570   -22276339.598 9 -17335963.56748  20749552.363    20749561.0564
  23546255.389    -7774980.645 8  -6047172.03146  23546255.670    23546267.9104
  22503217.794   -10538727.294 8  -8190419.56346  22503217.577    22503228.4854
  24468373.037    -2198224.171 7  -1407789.33545  24468376.164    24468389.7734
 00  3 29  2 28 30.0000000  0  6 23 17 26 06 09 10
  22135533.100   -14965617.372 9 -11636039.24947  22135534.394    22135544.0564
  20125936.467   -25455937.712 9 -19817004.70548  20125937.953    20125946.2004
  20761587.179   -22213087.249 9 -17286676.02948  20761588.798    20761597.2414
  23564601.747    -7678546.541 8  -5972028.72546  23564606.555    23564618.6294
  22485685.978   -10630834.732 8  -8262191.44546  22485690.366    22485700.3154
  24483446.623    -2119004.538 7  -1346059.86345  24483451.134    24483464.4874
 00  3 29  2 29  0.0000000  0  6 23 17 26 06 09 10
  22126023.087   -15015593.201 9 -11674981.39447  22126024.853    22126033.9984
  20121330.220   -25480135.549 9 -19835860.14148  20121332.904    20121341.6384
  20773696.104   -22149449.870 9 -17237088.47548  20773698.172    20773707.3664
  23582978.425    -7581989.778 8  -5896789.81446  23582981.633    23582993.0204
  22468211.781   -10722672.121 8  -8333752.94946  22468213.611    22468224.1644
  24498521.379    -2039740.033 7  -1284295.43845  24498535.176    24498549.1004
 00  3 29  2 29 30.0000000  0  6 23 17 26 06 09 10
  22116538.978   -15065427.757 9 -11713813.45947  22116541.329    22116550.6124
  20116825.747   -25503803.135 9 -19854302.40448  20116829.173    20116837.5974
  20785881.633   -22085430.983 9 -17187203.65048  20785881.339    20785889.5014
  23601378.140    -7485311.890 8  -5821456.54546  23601379.365    23601390.1114
  22450789.211   -10814231.003 8  -8405097.43346  22450791.368    22450801.8114
  24513621.610    -1960438.743 7  -1222502.32745  24513624.469    24513640.4554
 00  3 29  2 30  0.0000000  0  6 23 17 26 06 09 10
  22107080.942   -15115133.259 9 -11752544.95547  22107082.536    22107092.8964
  20112428.559   -25526924.354 9 -19872318.91848  20112429.418    20112437.9344
  20798134.203   -22021031.723 9 -17137022.43247  20798135.735    20798143.7634
  23619791.740    -7388517.829 8  -5746032.70745  23619797.503    23619809.5304
  22433418.105   -10905502.743 8  -8476218.16446  22433422.283    22433433.4454
  24528730.971    -1881095.190 7  -1160676.28945  24528722.994    24528735.7974
 00  3 29  2 30 30.0000000  0  6 23 17 26 06 09 10
  22097641.414   -15164729.218 9 -11791191.08047  22097644.147    22097655.3524
  20108132.819   -25549487.464 9 -19889900.54548  20108135.571    20108144.3094
  20810460.303   -21956248.626 9 -17086542.11247  20810463.664    20810471.9964
  23638244.308    -7291599.930 8  -5670512.35546  23638240.458    23638252.8594
  22416109.993   -10996484.216 8  -8547112.72646  22416109.417    22416119.5774
  24543826.858    -1801705.786 7  -1098814.62045  24543829.328    24543844.4604
 00  3 29  2 31  0.0000000  0  6 23 17 26 06 09 10
  22088219.119   -15214241.193 9 -11829771.76247  22088222.183    22088233.3264
  20103944.714   -25571499.227 9 -19907052.55448  20103946.904    20103955.4084
  20822861.248   -21891086.212 9 -17035766.22647  20822863.848    20822872.1574
  23656696.063    -7194583.510 8  -5594915.29746  23656702.288    23656714.9664
  22398849.839   -11087159.465 8  -8617768.66246  22398853.704    22398864.4684
  24558950.274    -1722268.038 7  -1036915.25045  24558947.701    24558960.9854
 00  3 29  2 31 30.0000000  0  6 23 17 26 06 09 10
  22078810.272   -15263686.634 9 -11868300.62147  22078812.891    22078823.0174
  20099859.973   -25592961.893 9 -19923776.69448  20099862.848    20099871.2894
  20835332.385   -21825551.624 9 -16984700.32548  20835335.513    20835343.2534
  23675174.257    -7097509.521 8  -5519273.35646  23675175.028    23675187.4624
  22381657.878   -11177509.673 8  -8688171.30846  22381661.067    22381671.7544
  24574068.589    -1642782.803 7   -974978.81345  24574074.164    24574087.8674
 00  3 29  2 32  0.0000000  0  6 23 17 26 06 09 10
  22069419.213   -15313061.882 9 -11906774.78647  22069417.755    22069427.2884
  20095879.652   -25613887.935 9 -19940082.68748  20095880.935    20095889.4264
  20847872.018   -21759651.980 9 -16933349.96847  20847875.080    20847883.4224
  23693655.922    -7000387.516 8  -5443593.98645  23693656.354    23693669.0584
  22364531.890   -11267529.856 8  -8758316.81646  22364529.974    22364541.6474
  24589204.236    -1563237.268 7   -912995.37944  24589210.650    24589224.0174
 00  3 29  2 32 30.0000000  0  6 23 17 26 06 09 10
  22060032.797   -15362368.334 9 -11945195.33447  22060034.478    22060044.6754
  20091994.441   -25634294.113 9 -19955983.59148  20091997.591    20092006.2704
  20860482.164   -21693388.683 9 -16881716.25347  20860484.404    20860492.6994
  23712143.763    -6903222.345 8  -5367880.99745  23712146.191    23712158.7774
  22347461.465   -11357216.158 8  -8828202.12547  22347463.766    22347474.9014
  24604357.620    -1483644.804 7   -850975.37844  24604358.541    24604368.3404
 00  3 29  2 33  0.0000000  0  6 23 17 26 06 09 10
  22050667.759   -15411583.136 9 -11983544.45347  22050668.872    22050679.6234
  20088210.698   -25654182.273 9 -19971480.84848  20088213.105    20088221.5874
  20873159.030   -21626759.201 9 -16829797.19047  20873163.372    20873171.8724
  23730638.671    -6806020.809 8  -5292139.66345  23730642.680    23730655.2604
  22330454.658   -11446573.955 8  -8897831.45747  22330459.218    22330470.4634
  24619509.179    -1404006.590 7   -788919.79944  24619510.179    24619524.9094
 00  3 29  2 33 30.0000000  0  6 23 17 26 06 09 10
  22041325.497   -15460681.036 9 -12021802.48747  22041325.898    22041335.9914
  20084526.087   -25673549.054 9 -19986571.83948  20084527.831    20084536.1924
  20885910.200   -21559754.955 9 -16777586.10947  20885913.684    20885922.1164
  23749150.731    -6708750.577 8  -5216344.80145  23749153.648    23749166.4834
  22313510.048   -11535613.951 8  -8967213.14847  22313515.192    22313526.7204
  24634681.104    -1324317.535 7   -726824.55845  24634675.264    24634689.6604
 00  3 29  2 34  0.0000000  0  6 23 17 26 06 09 10
  22032006.668   -15509650.518 9 -12059960.45147  22032007.453    22032016.9674
  20080938.387   -25692396.291 9 -20001257.98748  20080941.036    20080949.7974
  20898730.313   -21492383.644 9 -16725089.00247  20898734.380    20898742.3194
  23767679.020    -6611385.367 8  -5140475.94445  23767681.203    23767694.1894
  22296628.238   -11624339.693 8  -9036349.98746  22296631.122    22296642.5594
  24649846.456    -1244584.691 7   -664695.21645  24649848.852    24649863.9864
 00  3 29  2 34 30.0000000  0  6 23 17 26 06 09 10
  22022710.326   -15558485.141 9 -12098013.35647  22022714.920    22022723.4624
  20077453.680   -25710716.108 9 -20015533.16048  20077455.048    20077463.5734
  20911622.493   -21424646.863 9 -16672307.11247  20911624.460    20911632.8384
  23786224.021    -6513928.325 8  -5064535.53845  23786227.021    23786240.8164
  22279805.473   -11712752.488 8  -9105242.97847  22279807.454    22279817.9424
  24665026.741    -1164813.532 7   -602535.99044  24665027.443    24665043.1294
 00  3 29  2 35  0.0000000  0  6 23 17 26 06 09 10
  22013444.324   -15607177.782 9 -12135955.60747  22013448.026    22013457.9044
  20074067.191   -25728509.598 9 -20029398.20948  20074069.079    20074077.5474
  20924579.782   -21356554.165 9 -16619247.88647  20924581.805    20924590.2384
  23804783.051    -6416373.519 8  -4988518.91145  23804790.831    23804803.0714
  22263038.727   -11800856.565 8  -9173895.39047  22263040.624    22263051.6094
  24680223.522    -1084998.019 7   -540342.26245  24680217.710    24680232.3894
 00  3 29  2 35 30.0000000  0  6 23 17 26 06 09 10
  22004207.270   -15655743.213 9 -12173798.74547  22004207.261    22004216.3394
  20070781.793   -25745767.386 9 -20042845.83248  20070784.820    20070793.5934
  20937603.514   -21288124.525 9 -16565926.11447  20937603.540    20937611.7064
  23823380.710    -6318727.112 8  -4912430.90145  23823373.904    23823385.5164
  22246330.175   -11888646.779 8  -9242303.26446  22246334.861    22246346.1904
  24695416.865    -1005147.756 7   -478121.40345  24695411.776    24695426.8584
 00  3 29  2 36  0.0000000  0  6 23 17 26 06 09 10
  21994984.166   -15704185.870 9 -12211546.20947  21994988.324    21994997.9594
  20067603.381   -25762474.580 9 -20055864.41648  20067605.547    20067614.3284
  20950685.183   -21219369.210 9 -16512350.55347  20950687.366    20950695.8704
  23841963.402    -6221019.673 8  -4836295.39745  23841965.288    23841979.8964
  22229688.438   -11976124.900 8  -9310467.94847  22229688.977    22229699.3584
  24710614.891     -925265.111 7   -415875.32744  24710615.894    24710628.4934
 00  3 29  2 36 30.0000000  0  6 23 17 26 06 09 10
  21985788.493   -15752513.672 9 -12249204.17947  21985791.489    21985800.9884
  20064532.329   -25778613.446 9 -20068440.14648  20064534.380    20064543.1164
  20963830.278   -21150271.519 9 -16458508.22247  20963836.212    20963844.3284
  23860561.809    -6123263.909 8  -4760122.24645  23860567.955    23860581.5044
  22213106.236   -12063287.654 8  -9378386.86447  22213102.104    22213112.9344
  24725819.360     -845339.456 7   -353595.74744  24725820.762    24725835.9104
 00  3 29  2 37  0.0000000  0  6 23 17 26 06 09 10
  21976613.999   -15800739.260 9 -12286782.48847  21976614.767    21976624.0314
  20061570.261   -25794171.298 9 -20080563.13748  20061573.610    20061582.6644
  20977044.774   -21080835.786 9 -16404402.48547  20977049.292    20977057.8284
  23879181.453    -6025446.691 8  -4683901.14445  23879181.866    23879195.5534
  22196572.534   -12150121.197 8  -9446049.27246  22196578.174    22196588.1554
  24741030.972     -765371.832 7   -291283.44244  24741039.617    24741054.7214
 00  3 29  2 37 30.0000000  0  6 23 17 26 06 09 10
  21967453.439   -15848862.905 9 -12324281.35747  21967457.285    21967466.8124
  20058724.675   -25809133.709 9 -20092222.15648  20058726.561    20058735.6304
  20990324.927   -21011059.674 9 -16350031.51147  20990327.340    20990336.1524
  23897804.155    -5927582.516 7  -4607643.47445  23897804.762    23897818.0564
  22180117.910   -12236594.964 8  -9513431.35147  22180123.395    22180132.7914
  24756273.388     -685362.752 7   -228938.76845  24756265.144    24756280.5974
 00  3 29  2 38  0.0000000  0  6 23 17 26 06 09 10
  21958315.766   -15896889.640 9 -12361704.73947  21958318.549    21958328.2094
  20055990.923   -25823500.394 9 -20103416.96448  20055992.860    20056001.3964
  21003667.611   -20940936.530 9 -16295390.13247  21003671.302    21003679.5844
  23916432.738    -5829674.573 7  -4531351.72145  23916436.160    23916450.7424
  22163737.991   -12322699.371 8  -9580525.58947  22163737.642    22163748.0144
  24771496.888     -605312.809 7   -166562.34145  24771498.705    24771514.4014
 00  3 29  2 38 30.0000000  0  6 23 17 26 06 09 10
  21949195.030   -15944824.189 9 -12399056.28747  21949196.170    21949205.8594
  20053367.805   -25837278.556 9 -20114153.18248  20053370.884    20053379.4714
  21017078.444   -20870474.758 9 -16240484.86947  21017080.029    21017088.0034
  23935080.313    -5731706.666 7  -4455013.25145  23935079.023    23935092.4514
  22147426.055   -12408418.226 8  -9647319.40147  22147425.439    22147436.0624
  24786736.763     -525232.576 7   -104162.33645  24786738.337    24786753.6084
 00  3 29  2 39  0.0000000  0  5 23 17 26 06 09
  21940094.008   -15992660.932 9 -12436331.61347  21940093.363    21940102.7364
  20050856.990   -25850480.635 9 -20124440.51248  20050858.904    20050867.2584
  21030545.250   -20799698.731 9 -16185334.74547  21030548.382    21030556.3834
  23953726.022    -5633692.463 8  -4378638.70445  23953731.970    23953745.2454
  22131185.348   -12493757.992 8  -9713817.82847  22131186.466    22131196.6284
 00  3 29  2 39 30.0000000  0  5 23 17 26 06 09
  21931007.544   -16040400.795 9 -12473531.46247  21931008.881    21931018.2964
  20048453.070   -25863114.741 9 -20134285.25748  20048454.586    20048463.1474
  21044075.092   -20728607.089 9 -16129938.68247  21044076.495    21044084.7434
  23972386.848    -5535650.288 8  -4302242.33645  23972388.668    23972402.3874
  22115008.552   -12578746.932 8  -9780042.86547  22115012.805    22115023.5524
 00  3 29  2 40  0.0000000  0  6 03 23 17 26 06 09
  24642644.134    -1377995.60118  -1061417.69255  24642641.724    24642653.5864
  21921939.081   -16088044.902 9 -12510656.66947  21921941.743    21921951.6714
  20046154.180   -25875191.096 9 -20143695.39848  20046156.277    20046165.0794
  21057664.315   -20657202.674 9 -16074298.91047  21057664.439    21057672.5434
  23991050.656    -5437570.239 8  -4225816.47045  23991052.484    23991065.8624
  22098901.360   -12663416.023 8  -9846018.67547  22098901.433    22098911.5154
 00  3 29  2 40 30.0000000  0  6 03 23 17 26 06 09
  24634893.021    -1418709.734 7  -1093142.91345  24634893.577    24634905.9434
  21912894.564   -16135580.930 9 -12547697.68547  21912896.548    21912904.9884
  20043959.468   -25886726.580 9 -20152684.08048  20043961.386    20043969.9554
  21071309.920   -20585480.994 9 -16018411.91747  21071312.614    21071321.1564
  24009712.612    -5339451.882 7  -4149360.75245  24009724.274    24009738.1064
  22082847.056   -12747763.411 8  -9911743.82447  22082850.662    22082860.7834
 00  3 29  2 41  0.0000000  0  6 03 23 17 26 06 09
  24627226.136    -1458923.269 7  -1124478.05345  24627239.535    24627252.8634
  21903869.995   -16183005.060 9 -12584651.50147  21903872.107    21903880.6294
  20041865.565   -25897727.258 9 -20161256.02648  20041867.750    20041876.5724
  21085024.098   -20513425.696 9 -15962264.97347  21085024.433    21085033.2614
  24028393.073    -5241307.344 7  -4072884.64445  24028398.330    24028412.5674
  22066859.702   -12831798.817 8  -9977225.87347  22066858.856    22066869.0844
 00  3 29  2 41 30.0000000  0  6 03 23 17 26 06 09
  24619681.956    -1498638.322 7  -1155424.80045  24619682.574    24619695.6064
  21894867.480   -16230315.851 9 -12621517.00447  21894869.035    21894878.0664
  20039873.118   -25908190.381 9 -20169409.10548  20039876.371    20039885.2024
  21098797.759   -20441028.882 9 -15905851.90547  21098800.685    21098809.3544
  24047076.278    -5143124.968 7  -3996379.06445  24047082.613    24047098.1094
  22050929.952   -12915507.633 8 -10042453.43647  22050929.979    22050939.1464
 00  3 29  2 42  0.0000000  0  6 03 23 17 26 06 09
  24612219.102    -1537847.818 7  -1185977.60145  24612220.894    24612235.0574
  21885889.093   -16277497.940 9 -12658282.22947  21885890.692    21885899.3004
  20037985.305   -25918115.233 9 -20177142.74548  20037987.888    20037996.4934
  21112635.207   -20368300.615 9 -15849180.55147  21112640.894    21112649.0024
  24065772.870    -5044899.303 7  -3919839.76145  24065776.206    24065790.8534
  22035066.825   -12998855.341 8 -10107399.60747  22035069.578    22035078.9564
 00  3 29  2 42 30.0000000  0  7 03 23 17 26 06 09 21
  24604852.644    -1576564.336 7  -1216146.21145  24604854.513    24604866.2634
  21876935.657   -16324549.556 9 -12694945.76747  21876936.812    21876945.6714
  20036201.101   -25927495.463 9 -20184452.00848  20036203.086    20036211.8954
  21126538.498   -20295251.562 9 -15792259.24847  21126541.106    21126550.0994
  24084469.108    -4946634.976 7  -3843270.28245  24084473.167    24084488.6894
  22019280.647   -13081823.958 8 -10172050.38647  22019280.596    22019290.8304
  25009257.767     -229481.26617   -161122.30754  25009254.978    25009268.5634
 00  3 29  2 43  0.0000000  0  7 03 23 17 26 06 09 21
  24597573.598    -1614783.664 7  -1245927.39445  24597580.838    24597594.8534
  21868005.208   -16371482.610 9 -12731516.92947  21868006.190    21868014.3144
  20034524.214   -25936307.453 9 -20191318.48848  20034526.264    20034534.9144
  21140495.110   -20221899.297 9 -15735101.66547  21140499.823    21140508.4764
  24103190.870    -4848332.482 8  -3766671.11345  24103181.150    24103195.6534
  22003564.219   -13164404.997 8 -10236399.15147  22003565.428    22003576.0234
  24994541.515     -306793.943 7   -221365.85645  24994546.442    24994556.9214
 00  3 29  2 43 30.0000000  0  7 03 23 17 26 06 09 21
  24590403.104    -1652508.487 7  -1275323.21945  24590402.187    24590415.1134
  21859091.405   -16418310.681 9 -12768006.28447  21859094.581    21859103.4094
  20032957.568   -25944538.497 9 -20197732.28048  20032960.113    20032968.7074
  21154511.023   -20148261.624 9 -15677721.69747  21154512.588    21154521.1194
  24121891.752    -4750000.290 8  -3690048.78545  24121893.422    24121907.1234
  21987927.383   -13246581.271 8 -10300432.52347  21987928.357    21987938.4314
  24979829.957     -384134.964 7   -281631.47445  24979829.796    24979841.0344
 00  3 29  2 44  0.0000000  0  7 03 23 17 26 06 09 21
  24583319.577    -1689734.342 7  -1304330.27245  24583319.460    24583330.2104
  21850199.620   -16465036.408 9 -12804415.89547  21850203.214    21850211.8064
  20031501.974   -25952188.070 9 -20203692.97748  20031504.174    20031512.8274
  21168576.443   -20074344.038 9 -15620123.61047  21168578.899    21168587.3734
  24140603.471    -4651648.698 7  -3613411.31245  24140609.073    24140623.5834
  21972362.851   -13328350.752 8 -10364148.91647  21972368.257    21972377.9934
  24965104.109     -461494.574 7   -341911.61745  24965107.095    24965119.7414
 00  3 29  2 44 30.0000000  0  7 03 23 17 26 06 09 21
  24576325.414    -1726456.293 7  -1332944.66445  24576330.398    24576343.2734
  21841326.391   -16511670.173 9 -12840753.85547  21841329.345    21841337.6964
  20030159.079   -25959246.049 9 -20209192.68848  20030161.180    20030169.7374
  21182697.951   -20000134.786 9 -15562298.25547  21182699.980    21182708.9264
  24159335.534    -4553286.287 8  -3536765.46245  24159327.752    24159341.3524
  21956882.511   -13409710.694 8 -10427546.16847  21956884.658    21956895.6634
  24950381.018     -538877.729 7   -402210.06845  24950379.966    24950395.1734
 00  3 29  2 45  0.0000000  0  7 03 23 17 26 06 09 21
  24569440.048    -1762662.204 7  -1361156.96545  24569441.246    24569453.3714
  21832471.688   -16558208.688 9 -12877017.57247  21832472.780    21832481.9974
  20028929.279   -25965709.459 9 -20214229.10348  20028931.268    20028939.7054
  21196874.884   -19925627.049 9 -15504240.30147  21196878.597    21196887.0914
  24178043.894    -4454928.338 7  -3460123.07245  24178042.910    24178058.4164
  21941480.927   -13490661.638 8 -10490624.75447  21941480.992    21941490.6324
  24935638.539     -616285.520 7   -462527.70245  24935648.947    24935661.6344
 00  3 29  2 45 30.0000000  0  7 03 23 17 26 06 09 21
  24562642.945    -1798353.567 7  -1388968.29945  24562648.120    24562660.3274
  21823638.397   -16604628.090 9 -12913188.48347  21823639.608    21823649.4004
  20027808.929   -25971595.863 9 -20218815.89848  20027811.096    20027819.6104
  21211113.981   -19850812.838 9 -15445943.54547  21211115.320    21211124.0314
  24196759.775    -4356582.601 8  -3383490.17045  24196758.685    24196772.7344
  21926147.337   -13571215.259 8 -10553393.72747  21926151.774    21926162.0024
  24920915.019     -693711.890 7   -522859.85745  24920915.421    24920929.2324
 00  3 29  2 46  0.0000000  0  7 03 23 17 26 06 09 21
  24555952.873    -1833528.718 7  -1416377.35945  24555954.980    24555968.1264
  21814828.584   -16650904.940 9 -12949248.32047  21814833.285    21814842.4324
  20026796.496   -25976914.294 9 -20222960.12148  20026798.891    20026807.4794
  21225408.747   -19775683.001 9 -15387400.84247  21225412.013    21225420.6464
  24215483.633    -4258238.956 8  -3306858.93345  24215473.348    24215488.2724
  21910898.214   -13651375.708 8 -10615856.31547  21910897.857    21910907.9224
  24906177.660     -771173.505 7   -583219.44145  24906176.246    24906189.8884
 00  3 29  2 46 30.0000000  0  7 03 23 17 26 06 09 21
  24549353.102    -1868190.066 7  -1443386.04845  24549359.505    24549371.6434
  21806051.708   -16697037.471 9 -12985195.70247  21806054.385    21806063.8564
  20025892.602   -25981660.401 9 -20226658.37748  20025895.735    20025904.2994
  21239766.202   -19700241.681 9 -15328615.43247  21239768.000    21239777.0424
  24234189.815    -4159904.010 8  -3230234.45945  24234185.419    24234199.8794
  21895711.580   -13731146.872 8 -10678015.58747  21895717.191    21895727.2524
  24891425.962     -848684.134 7   -643617.19745  24891427.253    24891438.5594
 00  3 29  2 47  0.0000000  0  7 03 23 17 26 06 09 21
  24542857.061    -1902347.016 7  -1470001.72545  24542859.643    24542871.0884
  21797301.938   -16743022.305 9 -13021027.98647  21797303.494    21797313.3204
  20025096.630   -25985845.635 9 -20229919.58448  20025099.336    20025107.9514
  21254174.960   -19624506.131 9 -15269600.74347  21254180.133    21254189.3904
  24252879.268    -4061578.468 7  -3153617.30345  24252897.048    24252910.9124
  21880608.572   -13810542.960 8 -10739882.58047  21880608.612    21880619.0744
  24876668.161     -926245.623 7   -704054.65245  24876666.776    24876680.1554
 00  3 29  2 47 30.0000000  0  7 03 23 17 26 06 09 21
  24536455.290    -1936009.295 8  -1496231.99645  24536453.875    24536464.8724
  21788579.322   -16788866.189 9 -13056750.44547  21788579.986    21788589.3294
  20024407.238   -25989468.602 9 -20232742.66448  20024409.848    20024418.1834
  21268645.277   -19548488.569 9 -15210366.31747  21268645.908    21268654.6474
  24271591.265    -3963257.750 7  -3077003.92745  24271605.319    24271620.5064
  21865571.751   -13889556.995 9 -10801451.87047  21865573.088    21865583.3414
  24861896.214    -1003859.074 7   -764532.51745  24861897.407    24861909.5554
 00  3 29  2 48  0.0000000  0  7 03 23 17 26 06 09 21
  24530138.625    -1969185.835 8  -1522083.76845  24530141.469    24530151.2544
  21779874.747   -16834594.597 9 -13092382.92047  21779878.273    21779887.1494
  20023825.446   -25992522.098 9 -20235122.00248  20023828.886    20023837.4114
  21283161.970   -19472193.450 9 -15150915.59847  21283164.795    21283172.5774
  24290308.952    -3864939.854 7  -3000392.78445  24290315.747    24290330.7464
  21850611.591   -13968174.253 9 -10862711.97747  21850612.930    21850622.5494
  24847118.462    -1081515.827 7   -825044.13945  24847118.692    24847131.4864
 00  3 29  2 48 30.0000000  0  7 03 23 17 26 06 09 21
  24523916.545    -2001879.688 8  -1547559.36445  24523920.098    24523929.8784
  21771192.743   -16880228.714 9 -13127941.91647  21771194.409    21771202.5334
  20023353.334   -25995004.317 9 -20237056.19448  20023356.428    20023365.3634
  21297730.425   -19395635.269 9 -15091259.90947  21297733.166    21297741.8024
  24309012.412    -3766626.060 7  -2923784.84945  24309024.952    24309038.1864
  21835724.319   -14046392.205 8 -10923660.95547  21835728.494    21835738.5114
  24832339.530    -1159191.805 7   -885570.76745  24832340.466    24832350.5524
 00  3 29  2 49  0.0000000  0  7 03 23 17 26 06 09 21
  24517786.076    -2034087.854 7  -1572656.59045  24517788.164    24517801.7934
  21762524.210   -16925781.667 9 -13163437.69347  21762525.272    21762534.4674
  20022988.255   -25996923.953 9 -20238552.00548  20022990.918    20023000.0524
  21312349.368   -19318811.809 9 -15031397.49647  21312352.521    21312360.3094
  24327715.998    -3668313.609 7  -2847177.87945  24327732.195    24327747.4174
  21820919.993   -14124195.258 8 -10984286.61347  21820923.146    21820932.6214
  24817548.397    -1236875.756 7   -946103.62545  24817553.970    24817566.1374
 00  3 29  2 49 30.0000000  0  8 03 23 17 26 06 09 21 29
  24511750.150    -2065796.932 7  -1597364.89745  24511755.255    24511766.6764
  21753867.095   -16971259.495 9 -13198874.90947  21753870.947    21753881.1584
  20022730.934   -25998276.407 9 -20239605.86148  20022733.549    20022742.6264
  21327021.611   -19241713.508 9 -14971320.92247  21327023.990    21327031.6314
  24346431.488    -3570004.322 7  -2770573.42545  24346441.525    24346455.9174
  21806196.280   -14201571.719 8 -11044579.88547  21806198.279    21806208.5694
  24802765.544    -1314570.158 7  -1006644.60045  24802769.808    24802781.2484
  24551922.710    -1602887.52017  -1227788.95855  24551922.989    24551936.1544
 00  3 29  2 50  0.0000000  0  8 03 23 17 26 06 09 21 29
  24505815.718    -2096998.271 7  -1621677.54545  24505818.471    24505830.2104
  21745231.974   -17016660.097 9 -13234251.95047  21745232.015    21745241.4944
  20022583.698   -25999048.615 9 -20240207.58048  20022586.502    20022595.4564
  21341744.362   -19164332.427 9 -14911024.00047  21341748.665    21341757.3774
  24365146.263    -3471702.837 7  -2693974.99945  24365146.905    24365160.7114
  21791556.066   -14278512.148 8 -11104533.36247  21791557.041    21791567.1494
  24787987.579    -1392272.695 7  -1067191.91345  24787983.632    24787994.8764
  24533962.900    -1697246.802 7  -1301315.50545  24533965.913    24533981.2514
 00  3 29  2 50 30.0000000  0  8 03 23 17 26 06 09 21 29
  24499980.141    -2127677.397 7  -1645583.27345  24499979.160    24499992.9394
  21736609.937   -17061965.225 9 -13269554.59947  21736610.947    21736619.9904
  20022551.722   -25999223.027 9 -20240343.48848  20022553.605    20022562.4284
  21356526.553   -19086668.429 9 -14850506.63547  21356527.085    21356536.2514
  24383859.616    -3373422.916 7  -2617393.43845  24383850.182    24383862.7934
  21776998.022   -14355013.867 8 -11164145.00647  21776999.042    21777008.6634
  24773183.795    -1470004.462 7  -1127762.07345  24773192.930    24773204.3314
  24516040.483    -1791460.510 7  -1374728.66145  24516038.575    24516052.8324
 00  3 29  2 51  0.0000000  0  8 03 23 17 26 06 09 21 29
  24494235.495    -2157822.101 7  -1669072.65445  24494243.389    24494253.0094
  21728009.160   -17107152.903 9 -13304765.74547  21728012.026    21728020.2814
  20022635.383   -25998778.865 9 -20239997.38048  20022637.937    20022646.5644
  21371357.713   -19008715.249 9 -14789763.91847  21371361.183    21371370.6174
  24402548.757    -3275185.623 7  -2540845.10745  24402544.081    24402555.9744
  21762521.799   -14431085.930 8 -11223421.85647  21762523.045    21762532.6664
  24758388.262    -1547790.448 7  -1188374.35245  24758390.253    24758401.8274
  24498126.254    -1885547.808 7  -1448043.32145  24498133.037    24498146.6804
 00  3 29  2 51 30.0000000  0  8 03 23 17 26 06 09 21 29
  24488610.694    -2187437.694 7  -1692149.68045  24488608.144    24488620.0784
  21719438.056   -17152193.475 9 -13339862.23847  21719440.862    21719449.6794
  20022841.968   -25997698.237 9 -20239155.32948  20022843.817    20022852.3804
  21386247.894   -18930470.551 9 -14728794.06447  21386250.366    21386260.0274
  24421234.494    -3176988.972 7  -2464328.37945  24421228.740    24421243.2564
  21748130.155   -14506731.855 9 -11282366.66247  21748127.824    21748137.6994
  24743567.376    -1625634.224 7  -1249031.76645  24743575.386    24743590.0014
  24480262.351    -1979498.289 7  -1521251.37745  24480256.998    24480268.9704
 00  3 29  2 52  0.0000000  0  8 03 23 17 26 06 09 21 29
  24483073.755    -2216530.016 7  -1714818.97445  24483071.931    24483081.8864
  21710900.089   -17197072.249 9 -13374832.65847  21710900.321    21710909.2544
  20023168.103   -25995981.617 9 -20237817.70348  20023170.499    20023179.2764
  21401194.764   -18851934.861 9 -14667597.43947  21401195.831    21401204.7804
  24439913.908    -3078837.876 7  -2387847.18545  24439907.170    24439921.5314
  21733811.906   -14581947.898 9 -11340976.48047  21733814.736    21733824.9824
  24728759.787    -1703529.342 7  -1309729.13645  24728753.862    24728766.4914
  24462397.575    -2073307.469 7  -1594349.26245  24462404.412    24462417.8954
 00  3 29  2 52 30.0000000  0  8 03 23 17 26 06 09 21 29
  24477628.644    -2245092.672 7  -1737075.54345  24477636.436    24477647.5394
  21702390.677   -17241788.287 9 -13409676.28047  21702391.801    21702400.3174
  20023610.683   -25993654.060 9 -20236004.02848  20023613.216    20023621.9384
  21416193.325   -18773112.356 9 -14606177.33447  21416194.663    21416203.9204
  24458576.139    -2980734.342 8  -2311403.03045  24458575.746    24458590.7224
  21719580.726   -14656748.712 9 -11399262.74647  21719581.212    21719591.0284
  24713915.629    -1781483.636 7  -1370472.61345  24713919.173    24713931.6404
  24444571.376    -2166981.713 7  -1667342.02245  24444576.934    24444592.1254
 00  3 29  2 53  0.0000000  0  8 03 23 17 26 06 09 21 29
  24472300.271    -2273131.461 7  -1758923.91445  24472300.265    24472312.4804
  21693910.320   -17286347.041 9 -13444397.35147  21693912.194    21693921.5364
  20024166.703   -25990736.698 9 -20233730.76048  20024168.683    20024176.9324
  21431244.271   -18694016.034 9 -14544543.87047  21431247.235    21431255.9994
  24477234.636    -2882667.918 8  -2234987.77645  24477239.414    24477251.9864
  21705421.933   -14731130.490 9 -11457222.48647  21705426.607    21705436.4274
  24699074.499    -1859471.593 7  -1431242.33045  24699078.803    24699090.2704
  24426782.561    -2260499.683 7  -1740213.02145  24426779.740    24426795.2364
 00  3 29  2 53 30.0000000  0  8 03 23 17 26 06 09 21 29
  24467058.622    -2300659.131 7  -1780374.00245  24467060.777    24467072.8674
  21685454.538   -17330772.229 9 -13479014.34347  21685458.307    21685467.7354
  20024830.577   -25987249.496 9 -20231013.45748  20024832.072    20024840.6254
  21446347.923   -18614653.907 9 -14482703.27347  21446348.820    21446357.6404
  24495889.030    -2784628.388 7  -2158593.49345  24495895.593    24495909.2074
  21691355.041   -14805066.346 9 -11514834.76347  21691356.804    21691366.0804
  24684240.789    -1937468.238 7  -1492018.81045  24684236.370    24684248.8294
  24409016.003    -2353858.905 7  -1812960.34345  24409017.886    24409028.6234
 00  3 29  2 54  0.0000000  0  8 03 23 17 26 06 09 21 29
  24461916.133    -2327673.061 7  -1801423.74845  24461921.357    24461931.5974
  21677022.488   -17375096.149 9 -13513552.42147  21677023.252    21677032.8424
  20025598.312   -25983206.959 9 -20227863.43548  20025601.339    20025610.0934
  21461496.967   -18535040.429 9 -14420666.82947  21461499.098    21461508.1344
  24514538.897    -2686622.742 7  -2082225.61445  24514543.935    24514557.7314
  21677367.093   -14878560.023 9 -11572102.48247  21677371.450    21677380.8144
  24669393.507    -2015471.023 7  -1552800.09645  24669393.401    24669408.0184
  24391279.009    -2447071.251 7  -1885593.17745  24391278.012    24391292.0274
 00  3 29  2 54 30.0000000  0  7 03 23 17 26 09 21 29
  24456883.218    -2354169.652 8  -1822070.34845  24456880.519    24456890.6994
  21668608.817   -17419330.472 9 -13548020.69447  21668606.417    21668615.2114
  20026477.675   -25978593.422 9 -20224268.47348  20026479.348    20026487.9844
  21476692.019   -18455189.187 9 -14358445.11047  21476694.630    21476703.0314
  21663469.094   -14951602.421 9 -11629018.56147  21663472.211    21663481.5644
  24654536.721    -2093471.512 7  -1613579.61245  24654548.845    24654562.5084
  24373570.297    -2540118.855 7  -1958097.64045  24373572.558    24373585.3684
 00  3 29  2 55  0.0000000  0  7 03 23 17 26 09 21 29
  24451929.329    -2380156.576 7  -1842319.81645  24451933.750    24451947.9524
  21660203.502   -17463477.974 9 -13582421.31847  21660205.615    21660214.0664
  20027467.357   -25973390.199 9 -20220214.01548  20027469.379    20027478.3874
  21491931.041   -18375112.159 9 -14296047.45647  21491932.213    21491940.9664
  21649659.888   -15024168.578 9 -11685563.54447  21649663.222    21649672.9724
  24639708.063    -2171459.909 7  -1674349.65145  24639708.321    24639722.0734
  24355892.523    -2632997.408 7  -2030470.34745  24355897.809    24355910.5254
 00  3 29  2 55 30.0000000  0  7 03 23 17 26 09 21 29
  24447083.874    -2405625.424 7  -1862165.62645  24447088.011    24447099.4044
  21651816.002   -17507549.010 9 -13616762.35747  21651818.617    21651827.8994
  20028570.712   -25967592.423 9 -20215696.27848  20028572.435    20028581.6384
  21507213.250   -18294796.615 9 -14233463.94147  21507216.343    21507224.5074
  21635940.323   -15096258.247 9 -11741737.24047  21635944.484    21635953.9844
  24624868.739    -2249459.103 8  -1735128.15145  24624864.922    24624878.3484
  24338254.243    -2725724.475 7  -2102725.07645  24338252.202    24338264.6234
 00  3 29  2 56  0.0000000  0  7 03 23 17 26 09 21 29
  24442342.741    -2430567.124 8  -1881600.62645  24442339.867    24442353.0484
  21643446.638   -17551526.299 9 -13651030.33747  21643450.141    21643459.1294
  20029786.167   -25961197.609 9 -20210713.31448  20029789.273    20029798.6014
  21522545.285   -18214240.281 9 -14170692.79547  21522545.591    21522553.9224
  21622316.402   -15167877.047 9 -11797544.03747  21622316.216    21622325.2104
  24610017.659    -2327477.209 7  -1795921.39145  24610019.410    24610032.4344
  24320634.683    -2818283.538 8  -2174848.85345  24320640.906    24320652.3974
 00  3 29  2 56 30.0000000  0  7 03 23 17 26 09 21 29
  24437689.883    -2454979.777 7  -1900623.36945  24437695.124    24437708.8964
  21635101.026   -17595383.649 9 -13685204.86447  21635104.300    21635113.0194
  20031118.005   -25954198.642 9 -20205259.58048  20031121.477    20031130.6644
  21537918.211   -18133441.250 9 -14107732.53047  21537921.309    21537929.1704
  21608774.331   -15239024.786 9 -11852983.76347  21608776.782    21608786.1904
  24595162.509    -2405518.029 7  -1856732.29545  24595168.887    24595182.0064
  24303060.989    -2910675.908 8  -2246842.74045  24303059.140    24303069.1594
 00  3 29  2 57  0.0000000  0  7 03 23 17 26 09 21 29
  24433144.621    -2478869.981 8  -1919239.07645  24433148.690    24433161.1814
  21626780.265   -17639122.642 9 -13719287.17047  21626781.139    21626790.0164
  20032559.714   -25946620.818 9 -20199354.78848  20032563.567    20032572.1904
  21553341.393   -18052397.538 9 -14044581.60447  21553343.272    21553351.3624
  21595322.106   -15309714.113 9 -11908066.27547  21595324.836    21595334.5974
  24580310.065    -2483597.297 7  -1917573.19945  24580310.660    24580324.1764
  24285497.881    -3002923.178 7  -2318723.57345  24285503.531    24285514.8454
 00  3 29  2 57 30.0000000  0  7 03 23 17 26 09 21 29
  24428701.878    -2502233.891 8  -1937444.66045  24428702.595    24428716.9744
  21618479.395   -17682732.680 9 -13753268.99047  21618482.044    21618490.8074
  20034113.700   -25938463.438 9 -20192998.39648  20034115.891    20034124.4934
  21568811.901   -17971097.495 9 -13981230.94047  21568813.703    21568822.2394
  21581956.217   -15379957.726 9 -11962801.49347  21581957.990    21581967.2404
  24565440.240    -2561715.718 7  -1978444.59045  24565445.225    24565456.5864
  24267983.365    -3095016.799 7  -2390484.68045  24267978.369    24267990.7574
 00  3 29  2 58  0.0000000  0  7 03 23 17 26 09 21 29
  24424359.178    -2525085.210 8  -1955250.80245  24424354.582    24424366.9324
  21610210.387   -17726193.483 9 -13787134.52247  21610211.945    21610220.8134
  20035779.977   -25929706.055 9 -20186174.47348  20035782.462    20035791.1434
  21584327.322   -17889562.411 9 -13917697.13347  21584329.627    21584337.6924
  21568673.380   -15449756.036 9 -12017189.70547  21568675.456    21568685.6034
  24550565.347    -2639858.857 7  -2039335.24645  24550573.790    24550588.3844
  24250474.048    -3186950.235 7  -2462120.95945  24250482.541    24250496.6554
 00  3 29  2 58 30.0000000  0  7 03 23 17 26 09 21 29
  24420102.060    -2547422.294 8  -1972656.26045  24420104.553    24420115.5314
  21601965.675   -17769511.655 9 -13820888.91247  21601968.912    21601977.7334
  20037565.656   -25920333.146 9 -20178870.91648  20037566.166    20037574.7444
  21599888.960   -17807799.622 9 -13853985.88747  21599889.290    21599897.2614
  21555476.786   -15519110.363 9 -12071231.97447  21555478.603    21555487.7094
  24535693.655    -2718032.088 7  -2100249.37045  24535698.419    24535712.9694
  24233025.780    -3278724.650 7  -2533633.31945  24233017.632    24233032.2194
 00  3 29  2 59  0.0000000  0  7 03 23 17 26 09 21 29
  24415954.414    -2569243.370 8  -1989659.68045  24415951.742    24415963.4884
  21593746.908   -17812704.514 9 -13854545.65947  21593749.132    21593758.2204
  20039465.211   -25910338.854 9 -20171083.16548  20039467.915    20039476.6574
  21615486.316   -17725812.028 9 -13790099.46647  21615490.606    21615498.2944
  21542365.705   -15587997.606 9 -12124910.26747  21542369.453    21542378.6244
  24520819.004    -2796229.441 7  -2161182.29145  24520816.591    24520831.9184
  24215586.132    -3370317.118 7  -2605003.90045  24215590.134    24215602.4824
 00  3 29  2 59 30.0000000  0  7 03 23 17 26 09 21 29
  24411892.870    -2590544.226 8  -2006257.69145  24411898.235    24411909.4314
  21585553.878   -17855766.558 9 -13888100.47847  21585555.176    21585563.7514
  20041489.482   -25899705.146 9 -20162797.17048  20041491.581    20041500.1794
  21631134.519   -17643604.481 9 -13726041.65047  21631134.405    21631142.1534
  21529351.259   -15656410.817 9 -12178219.19347  21529351.040    21529359.8254
  24505930.210    -2874448.908 7  -2222132.39445  24505933.557    24505945.1804
  24198200.805    -3461710.593 7  -2676219.46045  24198198.583    24198210.7024
 00  3 29  3  0  0.0000000  0  7 03 23 17 26 09 21 29
  24407944.960    -2611338.178 8  -2022460.70745  24407941.061    24407953.0514
  21577384.351   -17898701.457 9 -13921556.22747  21577384.988    21577393.2064
  20043631.369   -25888444.417 9 -20154022.58448  20043634.358    20043642.9204
  21646816.485   -17561185.172 9 -13661818.83647  21646817.523    21646826.0924
  21516422.276   -15724361.639 9 -12231167.80747  21516419.957    21516429.1644
  24491036.849    -2952702.124 7  -2283108.77345  24491042.299    24491054.8634
  24180845.765    -3552915.902 8  -2747288.40245  24180843.336    24180855.1124
 00  3 29  3  0 30.0000000  0  7 03 23 17 26 09 21 29
  24404075.609    -2631614.783 7  -2038260.56945  24404082.675    24404095.2604
  21569235.885   -17941512.120 9 -13954915.15947  21569237.792    21569246.5184
  20045889.879   -25876582.739 9 -20144779.71848  20045891.591    20045900.1384
  21662543.005   -17478533.381 9 -13597414.87747  21662546.125    21662553.9014
  21503573.655   -15791846.844 9 -12283753.62447  21503578.076    21503587.2974
  24476138.271    -3030998.647 7  -2344118.91445  24476142.861    24476154.6404
  24163511.749    -3643935.015 7  -2818212.21745  24163520.904    24163533.9034
 00  3 29  3  1  0.0000000  0  7 03 23 17 26 09 21 29
  24400319.191    -2651382.950 7  -2053664.29245  24400320.783    24400333.1214
  21561115.305   -17984198.470 9 -13988177.22747  21561115.292    21561123.9234
  20048257.642   -25864138.341 9 -20135082.79348  20048259.848    20048268.3274
  21678319.790   -17395647.909 9 -13532828.82247  21678318.252    21678326.2814
  21490821.677   -15858865.214 9 -12335975.66247  21490824.328    21490834.1474
  24461227.956    -3109337.020 7  -2405161.69145  24461234.756    24461247.2624
  24146230.526    -3734786.800 7  -2889005.66445  24146233.280    24146245.3464
 00  3 29  3  1 30.0000000  0  7 03 23 17 26 09 21 29
  24396642.681    -2670644.478 7  -2068673.26245  24396653.497    24396667.9694
  21553017.035   -18026746.615 9 -14021331.60447  21553018.562    21553027.2754
  20050734.956   -25851118.100 9 -20124937.16148  20050737.439    20050746.1404
  21694131.938   -17312532.371 9 -13468063.50047  21694134.888    21694143.2534
  21478160.062   -15925426.306 9 -12387841.36447  21478158.130    21478168.1734
  24446315.886    -3187717.498 8  -2466237.26845  24446321.285    24446331.7174
  24128972.162    -3825491.980 7  -2959684.89945  24128972.288    24128984.2514
 00  3 29  3  2  0.0000000  0  7 03 23 17 26 09 21 29
  24393082.178    -2689404.235 8  -2083291.16245  24393085.481    24393096.7744
  21544945.193   -18069154.433 9 -14054376.62647  21544948.194    21544956.9404
  20053321.485   -25837524.957 9 -20114345.10948  20053323.953    20053332.7984
  21709993.779   -17229181.214 9 -13403114.56947  21709996.148    21710004.5794
  21465582.221   -15991509.893 9 -12439334.99247  21465582.919    21465592.5424
  24431390.462    -3266134.382 7  -2527341.21445  24431396.806    24431409.6094
  24111726.206    -3916054.217 8  -3030252.73145  24111738.767    24111750.3454
 00  3 29  3  2 30.0000000  0  7 03 23 17 26 09 21 29
  24389612.462    -2707642.100 7  -2097502.42745  24389614.925    24389627.2534
  21536899.453   -18111437.981 9 -14087324.82747  21536901.973    21536911.0414
  20056017.946   -25823351.041 9 -20103300.50848  20056020.986    20056029.8214
  21725899.325   -17145605.811 9 -13337990.90747  21725899.805    21725908.5674
  21453102.593   -16057087.695 9 -12490434.50747  21453103.883    21453113.2184
  24416472.651    -3344576.720 7  -2588465.02745  24416471.005    24416481.6234
  24094528.870    -4006463.730 8  -3100701.59245  24094535.410    24094546.9984
 00  3 29  3  3  0.0000000  0  7 03 23 17 26 09 21 29
  24386242.323    -2725359.871 8  -2111308.44045  24386243.672    24386254.9974
  21528875.042   -18153610.742 9 -14120186.68547  21528876.255    21528885.6804
  20058830.517   -25808576.545 9 -20091787.91548  20058832.593    20058841.1124
  21741838.476   -17061828.780 8 -13272710.14447  21741842.038    21741850.9304
  21440715.944   -16122150.981 9 -12541133.09347  21440722.730    21440731.6174
  24401540.390    -3423032.379 8  -2649599.18345  24401540.799    24401552.0604
  24077355.994    -4096717.146 7  -3171028.75445  24077359.602    24077372.1874
 00  3 29  3  3 30.0000000  0  7 03 23 17 26 09 21 29
  24382970.575    -2742549.643 8  -2124702.99645  24382971.854    24382983.4304
  21520874.651   -18195662.887 9 -14152954.55747  21520875.005    21520883.1364
  20061758.946   -25793187.695 9 -20079796.60648  20061761.192    20061769.5534
  21757822.094   -16977847.517 8 -13207270.23647  21757822.968    21757832.0984
  21428439.958   -16186694.127 9 -12591426.37747  21428440.548    21428449.6154
  24386611.632    -3501497.988 7  -2710741.11545  24386608.413    24386621.8694
  24060217.511    -4186805.891 8  -3241227.66445  24060216.245    24060228.7214
 00  3 29  3  4  0.0000000  0  7 03 23 17 26 09 21 29
  24379801.913    -2759207.700 7  -2137683.29745  24379803.429    24379814.9814
  21512892.163   -18237602.444 9 -14185634.69647  21512893.855    21512901.9154
  20064805.055   -25777182.618 9 -20067325.12548  20064806.836    20064815.1684
  21773840.777   -16893665.966 9 -13141674.26947  21773842.713    21773850.6824
  21416254.506   -16250726.740 9 -12641321.86247  21416255.899    21416264.8174
  24371672.317    -3579976.089 8  -2771892.74945  24371674.992    24371688.1074
  24043107.249    -4276718.713 7  -3311289.40545  24043106.073    24043118.4384
 00  3 29  3  4 30.0000000  0  7 03 23 17 26 09 21 29
  24376733.659    -2775322.240 7  -2150240.08645  24376736.638    24376748.3364
  21504934.552   -18279427.212 9 -14218225.38747  21504935.102    21504943.3034
  20067968.713   -25760555.247 9 -20054368.74248  20067970.666    20067979.5114
  21789896.116   -16809288.368 9 -13075925.51647  21789899.470    21789907.6364
  21404164.337   -16314261.648 9 -12690829.51447  21404165.110    21404174.4414
  24356735.450    -3658464.933 8  -2833052.77045  24356739.792    24356750.2164
  24026032.264    -4366452.774 8  -3381211.95045  24026030.105    24026044.1834
 00  3 29  3  5  0.0000000  0  7 03 23 17 26 09 21 29
  24373772.350    -2790906.860 7  -2162383.90245  24373770.622    24373782.8564
  21497002.378   -18321108.047 9 -14250703.92647  21497003.240    21497011.1774
  20071250.151   -25743308.293 9 -20040929.57148  20071252.736    20071261.4524
  21805995.198   -16724698.801 9 -13010011.59847  21805996.616    21806005.1404
  21392167.027   -16377303.957 9 -12739953.33247  21392168.354    21392177.0634
  24341799.304    -3736968.340 8  -2894224.16645  24341801.805    24341813.3714
  24008976.866    -4456011.203 7  -3450997.57645  24008987.735    24009000.6414
 00  3 29  3  5 30.0000000  0  7 03 23 17 26 09 21 29
  24370904.832    -2805963.988 8  -2174116.68145  24370905.484    24370916.6384
  21489100.226   -18362633.305 9 -14283061.23647  21489101.774    21489109.4854
  20074647.860   -25725457.394 9 -20027019.79148  20074649.798    20074658.3364
  21822133.507   -16639895.651 8 -12943931.26347  21822133.535    21822142.5214
  21380261.034   -16439857.504 9 -12788696.29147  21380264.594    21380273.2814
  24326858.913    -3815493.012 8  -2955412.14745  24326859.609    24326869.6794
  23991982.050    -4545383.814 8  -3520638.42545  23991980.881    23991991.8894
 00  3 29  3  6  0.0000000  0  7 03 23 17 26 09 21 29
  24368129.920    -2820496.050 7  -2185440.30545  24368140.268    24368151.3394
  21481227.148   -18404007.718 9 -14315300.99047  21481227.523    21481236.4214
  20078156.814   -25707012.473 9 -20012647.13948  20078159.570    20078168.2384
  21838306.096   -16554893.119 9 -12877695.55847  21838309.304    21838317.8664
  21368451.032   -16501922.654 9 -12837058.67847  21368454.335    21368463.5294
  24311906.218    -3894041.183 8  -3016618.41345  24311909.686    24311922.0334
  23975014.114    -4634561.463 8  -3590127.32645  23975010.959    23975023.0344
 00  3 29  3  6 30.0000000  0  7 03 23 17 26 09 21 29
  24365474.480    -2834494.796 7  -2196348.42145  24365474.242    24365487.5384
  21473382.046   -18445224.558 9 -14347417.96747  21473384.196    21473393.0204
  20081780.010   -25687975.422 9 -19997813.08348  20081782.486    20081790.8044
  21854520.411   -16469686.485 8 -12811300.81747  21854523.235    21854532.0464
  21356739.612   -16563477.246 9 -12885023.23547  21356740.910    21356750.4834
  24296947.817    -3972609.974 7  -3077840.72045  24296958.039    24296972.3004
  23958069.633    -4723552.842 8  -3659471.12445  23958074.628    23958087.2734
 00  3 29  3  7  0.0000000  0  7 03 23 17 26 09 21 29
  24362911.007    -2847967.082 7  -2206846.25845  24362910.508    24362924.1184
  21465567.812   -18486289.913 9 -14379416.90547  21465570.236    21465578.5914
  20085513.455   -25668358.191 9 -19982526.93548  20085515.721    20085524.0034
  21870770.534   -16384287.759 8 -12744756.38947  21870773.632    21870783.4204
  21345122.538   -16624511.040 9 -12932581.95947  21345126.203    21345135.7364
  24282001.395    -4051206.496 8  -3139084.62345  24282003.223    24282015.9734
  23941172.984    -4812359.710 7  -3728671.13845  23941177.004    23941189.3204
 00  3 29  3  7 30.0000000  0  7 03 23 17 26 09 21 29
  24360442.279    -2860911.198 7  -2216932.56445  24360448.762    24360461.3014
  21457778.135   -18527230.278 9 -14411318.45247  21457779.381    21457787.8124
  20089356.511   -25648157.630 9 -19966786.24748  20089359.549    20089368.3494
  21887058.100   -16298712.690 9 -12678074.57847  21887058.827    21887067.6634
  21333607.369   -16685021.203 9 -12979732.68447  21333611.640    21333621.1034
  24267035.262    -4129832.391 8  -3200351.43645  24267040.251    24267052.8934
  23924312.739    -4900979.531 7  -3797725.34545  23924310.674    23924324.7194
 00  3 29  3  8  0.0000000  0  7 03 23 17 26 09 21 29
  24358087.356    -2873324.053 7  -2226604.88545  24358086.621    24358099.2514
  21450008.932   -18568057.001 9 -14443131.45547  21450010.159    21450018.5884
  20093314.586   -25627357.670 9 -19950578.49248  20093317.397    20093326.2614
  21903378.862   -16212957.101 8 -12611252.07347  21903377.618    21903386.0314
  21322196.834   -16745001.718 9 -13026470.68947  21322197.504    21322206.7024
  24252065.789    -4208494.357 8  -3261646.40745  24252072.537    24252084.4554
  23907478.919    -4989427.412 8  -3866645.59545  23907480.156    23907492.4204
 00  3 29  3  8 30.0000000  0  7 03 23 17 26 09 21 29
  24355818.910    -2885207.923 7  -2235865.05045  24355825.466    24355837.3864
  21442260.933   -18608778.908 9 -14474862.76347  21442261.169    21442269.7664
  20097388.196   -25605941.622 9 -19933890.67248  20097392.861    20097401.3864
  21919731.628   -16127010.521 8 -12544280.74847  21919732.423    21919740.6334
  21310886.410   -16804441.200 9 -13072787.10547  21310886.589    21310896.4504
  24237084.911    -4287202.741 8  -3322977.46845  24237093.807    24237106.0194
  23890680.954    -5077704.044 8  -3935432.40245  23890682.093    23890694.1034
 00  3 29  3  9  0.0000000  0  7 03 23 17 26 09 21 29
  24353654.008    -2896586.384 7  -2244731.33045  24353660.413    24353672.2074
  21434529.455   -18649404.577 9 -14506519.10148  21434530.731    21434539.0314
  20101585.214   -25583896.089 9 -19916712.34348  20101588.010    20101596.2844
  21936120.144   -16040878.358 8 -12477164.80547  21936123.169    21936131.2234
  21299673.154   -16863351.293 9 -13118691.00947  21299676.485    21299685.7224
  24222104.002    -4365963.058 8  -3384348.98245  24222105.709    24222119.5874
  23873917.628    -5165805.045 8  -4004082.37145  23873918.508    23873928.8644
 00  3 29  3  9 30.0000000  0  7 03 23 17 26 09 21 29
  24351584.726    -2907457.465 7  -2253202.27445  24351590.493    24351603.6924
  21426813.347   -18689933.000 9 -14538099.66348  21426817.965    21426826.8134
  20105904.842   -25561200.007 9 -19899027.09448  20105906.757    20105915.4694
  21952546.665   -15954558.985 8 -12409902.99047  21952549.645    21952557.9774
  21288564.168   -16921740.252 9 -13164188.83347  21288565.561    21288575.1354
  24207103.356    -4444766.384 8  -3445754.01345  24207110.040    24207122.0464
  23857185.582    -5253736.982 8  -4072600.61345  23857184.845    23857195.5094
 00  3 29  3 10  0.0000000  0  7 03 23 17 26 09 21 29
  24349615.388    -2917812.216 7  -2261270.88345  24349618.977    24349632.3544
  21419126.597   -18730346.051 9 -14569590.32347  21419127.448    21419136.2384
  20110347.652   -25537845.227 9 -19880828.58048  20110351.032    20110359.7724
  21969010.554   -15868045.392 8 -12342489.83947  21969012.264    21969020.5524
  21277549.900   -16979607.023 9 -13209279.76647  21277553.707    21277562.7824
  24192101.067    -4523607.995 8  -3507188.91145  24192108.490    24192120.6204
  23840487.349    -5341502.470 8  -4140989.09945  23840482.918    23840494.0044
 00  3 29  3 10 30.0000000  0  7 03 23 17 26 09 21 29
  24347742.458    -2927653.158 7  -2268939.11245  24347747.518    24347759.6634
  21411459.906   -18770627.979 9 -14600978.80247  21411461.993    21411470.7274
  20114915.449   -25513848.468 9 -19862129.82248  20114917.844    20114926.5564
  21985511.798   -15781336.883 8 -12274924.80847  21985512.468    21985521.6554
  21266639.875   -17036944.345 9 -13253958.14847  21266642.707    21266652.0444
  24177099.286    -4602465.035 8  -3568635.83645  24177101.498    24177112.1644
  23823801.089    -5429088.815 7  -4209238.04245  23823815.119    23823827.6664
 00  3 29  3 11  0.0000000  0  7 03 23 17 26 09 21 29
  24345971.694    -2936980.305 7  -2276206.96245  24345969.934    24345983.5294
  21403823.352   -18810772.427 9 -14632260.15848  21403822.910    21403831.9824
  20119599.138   -25489228.210 9 -19842945.21648  20119602.435    20119611.6684
  22002042.520   -15694449.342 8 -12207220.27947  22002046.249    22002055.3674
  21255830.608   -17093754.247 9 -13298225.53147  21255832.247    21255841.1124
  24162095.229    -4681310.487 8  -3630073.68145  24162097.263    24162109.4554
  23807185.422    -5516503.615 7  -4277353.27845  23807179.106    23807192.3364
 00  3 29  3 11 30.0000000  0  7 03 23 17 26 09 21 29
  24344297.203    -2945774.487 7  -2283059.54245  24344300.069    24344310.4324
  21396211.327   -18850764.264 9 -14663422.60148  21396212.716    21396221.5094
  20124398.966   -25464010.071 9 -19823294.73548  20124401.050    20124410.2444
  22018607.997   -15607385.845 8 -12139378.64047  22018613.615    22018623.1144
  21245122.079   -17150023.481 9 -13342071.64147  21245124.179    21245132.7214
  24147091.791    -4760139.821 8  -3691498.96845  24147096.503    24147107.8394
  23790570.928    -5603739.479 7  -4345329.13045  23790579.189    23790592.0274
 00  3 29  3 12  0.0000000  0  7 03 23 17 26 09 21 29
  24342719.727    -2954035.170 7  -2289496.39045  24342726.288    24342737.7584
  21388631.536   -18890598.363 9 -14694462.11548  21388632.442    21388641.3354
  20129305.684   -25438222.929 9 -19803200.86948  20129308.098    20129317.2064
  22035210.637   -15520146.152 8 -12071399.70247  22035214.437    22035223.7524
  21234517.714   -17205743.380 9 -13385489.69147  21234521.221    21234530.1104
  24132093.099    -4838960.991 8  -3752917.93045  24132097.109    24132108.4344
  23774013.748    -5690777.065 8  -4413150.45045  23774018.414    23774029.8494
 00  3 29  3 12 30.0000000  0  7 03 23 17 26 09 21 29
  24341247.658    -2961768.501 7  -2295522.31445  24341255.027    24341266.7714
  21381078.576   -18930283.171 9 -14725385.31348  21381080.635    21381088.9814
  20134319.605   -25411875.438 9 -19782670.37548  20134322.372    20134331.1344
  22051845.024   -15432739.836 8 -12003290.92347  22051847.713    22051856.7134
  21224023.105   -17260908.146 9 -13428475.16847  21224023.793    21224032.5954
  24117097.984    -4917781.049 8  -3814336.02545  24117098.394    24117109.7324
  23757499.525    -5777603.966 8  -4480807.59845  23757494.885    23757507.1274
 00  3 29  3 13  0.0000000  0  7 03 23 17 26 09 21 29
  24339883.179    -2968979.024 7  -2301140.84845  24339883.555    24339895.1304
  21373554.526   -18969818.504 9 -14756192.03248  21373557.126    21373566.2454
  20139442.084   -25384955.205 9 -19761693.58248  20139444.981    20139453.9894
  22068508.171   -15345174.446 8 -11935058.18247  22068510.929    22068519.5054
  21213624.615   -17315532.644 9 -13471039.64947  21213628.685    21213638.0114
  24102088.925    -4996622.834 8  -3875771.07045  24102095.019    24102105.9384
  23741004.373    -5864225.178 8  -4548304.47845  23741011.391    23741023.4164
 00  3 29  3 13 30.0000000  0  7 03 23 17 26 09 21 29
  24338602.457    -2975661.468 7  -2306347.91345  24338609.791    24338623.8964
  21366059.579   -19009204.299 9 -14786882.22648  21366062.324    21366071.0594
  20144675.418   -25357450.394 9 -19740261.27848  20144678.874    20144687.9894
  22085204.808   -15257434.827 8 -11866689.68647  22085207.924    22085216.1104
  21203333.160   -17369618.079 9 -13513184.08247  21203336.553    21203346.0124
  24087082.760    -5075510.616 8  -3937241.93345  24087082.175    24087094.1654
  23724568.208    -5950629.261 8  -4615632.15545  23724569.017    23724581.1244
 00  3 29  3 14  0.0000000  0  7 03 23 17 26 09 21 29
  24337438.232    -2981827.347 7  -2311152.46245  24337439.080    24337451.1134
  21358591.529   -19048458.277 9 -14817469.71148  21358592.642    21358601.1044
  20150026.058   -25329337.797 9 -19718355.37848  20150029.007    20150037.4944
  22101933.843   -15169523.556 8 -11798187.44047  22101936.915    22101945.9344
  21193143.321   -17423170.578 9 -13554913.24847  21193145.912    21193154.8424
  24072060.812    -5154439.854 8  -3998745.10945  24072063.486    24072075.2524
  23708169.381    -6036818.510 8  -4682792.47045  23708168.584    23708178.9284
 00  3 29  3 14 30.0000000  0  7 03 23 17 26 09 21 29
  24336358.251    -2987485.170 7  -2315561.11345  24336360.675    24336373.6314
  21351145.527   -19087581.188 9 -14847955.06448  21351147.959    21351156.5654
  20155494.758   -25300604.357 9 -19695965.70348  20155497.098    20155505.4434
  22118691.253   -15081438.274 8 -11729549.60247  22118698.635    22118707.5914
  21183052.245   -17476192.393 9 -13596228.87947  21183056.334    21183065.1174
  24057036.281    -5233401.860 8  -4060273.81645  24057037.053    24057047.9064
  23691797.832    -6122806.947 8  -4749796.29845  23691804.986    23691816.3384
 00  3 29  3 15  0.0000000  0  7 03 23 17 26 09 21 29
  24335376.588    -2992637.776 7  -2319576.08945  24335381.173    24335392.8674
  21343725.441   -19126573.595 9 -14878338.73448  21343727.634    21343736.1654
  20161079.165   -25271259.929 9 -19673099.93148  20161081.082    20161089.4184
  22135488.569   -14993188.557 8 -11660783.62147  22135492.626    22135501.3354
  21173065.518   -17528691.683 9 -13637137.36747  21173066.101    21173074.8414
  24042002.553    -5312385.167 8  -4121819.12345  24042007.350    24042017.9984
  23675473.997    -6208606.939 8  -4816653.29345  23675477.360    23675488.3464
 00  3 29  3 15 30.0000000  0  7 03 23 17 26 09 21 29
  24334497.949    -2997278.100 7  -2323191.89245  24334497.589    24334511.0024
  21336328.873   -19165441.992 9 -14908625.76947  21336331.111    21336339.5894
  20166776.939   -25241314.219 9 -19649765.62748  20166779.306    20166787.6354
  22152314.322   -14904780.771 8 -11591894.48247  22152315.355    22152324.4504
  21163178.480   -17580649.747 9 -13677624.11247  21163178.412    21163187.2954
  24026975.718    -5391374.855 8  -4183369.37945  24026975.877    24026986.9234
  23659185.633    -6294208.518 8  -4883355.66145  23659187.561    23659200.0954
 00  3 29  3 16  0.0000000  0  7 03 23 17 26 09 21 29
  24333707.783    -3001419.521 7  -2326418.94145  24333709.114    24333723.2224
  21328958.138   -19204173.446 9 -14938806.09948  21328960.788    21328969.4504
  20172588.091   -25210778.941 9 -19625971.92348  20172590.050    20172598.7114
  22169162.473   -14816231.685 8 -11522895.24547  22169165.517    22169174.9234
  21153392.390   -17632064.752 9 -13717687.70147  21153394.791    21153403.5684
  24011939.085    -5470360.345 8  -4244916.39946  24011945.526    24011956.4194
  23642932.971    -6379610.899 8  -4949902.84946  23642936.473    23642948.0344
 00  3 29  3 16 30.0000000  0  7 03 23 17 26 09 21 29
  24333015.448    -3005061.529 7  -2329256.86245  24333015.168    24333029.1904
  21321617.576   -19242754.023 9 -14968868.86148  21321619.271    21321627.6254
  20178507.361   -25179662.444 9 -19601725.31948  20178511.373    20178519.8534
  22186036.653   -14727545.420 8 -11453789.11047  22186042.218    22186051.3434
  21143713.219   -17682929.986 9 -13757322.89347  21143715.003    21143724.3434
  23996911.829    -5549346.491 8  -4306463.93846  23996914.603    23996926.1884
  23626714.814    -6464823.471 8  -5016302.12746  23626720.676    23626732.0474
 00  3 29  3 17  0.0000000  0  7 03 23 17 26 09 21 29
  24332420.166    -3008196.010 7  -2331699.26545  24332418.864    24332432.8464
  21314305.636   -19281181.179 9 -14998812.07048  21314306.774    21314315.3104
  20184542.927   -25147958.001 9 -19577020.58048  20184544.803    20184552.9294
  22202942.927   -14638726.757 8 -11384579.80647  22202943.978    22202953.4064
  21134140.828   -17733233.277 9 -13796520.20547  21134142.819    21134151.8444
  23981885.537    -5628337.776 8  -4368015.46945  23981883.136    23981894.1444
  23610539.094    -6549847.135 8  -5082554.21145  23610540.902    23610552.9984
 00  3 29  3 17 30.0000000  0  7 03 23 17 26 09 21 29
  24331915.818    -3010819.883 7  -2333743.81745  24331921.758    24331933.1304
  21307022.605   -19319443.887 9 -15028627.13648  21307025.539    21307034.0914
  20190692.678   -25115645.054 9 -19551841.67648  20190693.565    20190701.7754
  22219871.173   -14549768.592 8 -11315261.79446  22219871.946    22219881.2414
  21124674.510   -17782967.027 9 -13835273.71847  21124678.398    21124687.4544
  23966847.965    -5707342.952 8  -4429577.83346  23966848.997    23966860.5894
  23594395.955    -6634674.149 8  -5148653.05945  23594399.031    23594409.6174
 00  3 29  3 18  0.0000000  0  7 03 23 17 26 09 21 29
  24331513.821    -3012935.555 7  -2335392.35845  24331517.329    24331529.4494
  21299772.441   -19357556.935 9 -15058325.58248  21299772.606    21299781.2184
  20196959.450   -25082707.790 9 -19526176.29248  20196961.218    20196969.6804
  22236824.702   -14460663.566 8 -11245829.34347  22236828.282    22236838.1394
  21115323.160   -17832129.093 9 -13873581.76547  21115323.774    21115332.2474
  23951812.353    -5786364.641 8  -4491153.06146  23951812.313    23951822.3904
  23578287.378    -6719324.412 8  -5214614.15645  23578290.035    23578300.9394
 00  3 29  3 18 30.0000000  0  7 03 23 17 26 09 21 29
  24331207.815    -3014517.325 7  -2336624.85945  24331216.499    24331230.2454
  21292544.153   -19395535.492 9 -15087919.24048  21292545.776    21292554.1524
  20203348.538   -25049135.975 9 -19500016.45448  20203350.306    20203358.4854
  22253812.403   -14371402.330 8 -11176275.19446  22253813.665    22253823.5524
  21106076.186   -17880707.356 9 -13911434.91147  21106079.879    21106088.5034
  23936769.865    -5865402.643 8  -4552741.01446  23936772.195    23936782.3934
  23562218.259    -6803801.342 8  -5280440.22045  23562215.706    23562225.5444
 00  3 29  3 19  0.0000000  0  7 03 23 17 26 09 21 29
  24331027.592    -3015546.606 7  -2337426.87545  24331022.162    24331032.8134
  21285341.172   -19433383.023 9 -15117410.80948  21285343.520    21285352.1474
  20209856.736   -25014932.188 9 -19473364.17648  20209858.715    20209867.4034
  22270829.605   -14281977.210 8 -11106593.30447  22270831.175    22270841.3934
  21096947.305   -17928702.236 9 -13948833.46847  21096946.744    21096954.8664
  23921726.271    -5944459.302 8  -4614343.49546  23921727.117    23921738.4734
  23546174.478    -6888084.591 8  -5346115.35345  23546176.695    23546186.9974
 00  3 29  3 19 30.0000000  0  7 03 23 17 26 09 21 29
  24330926.870    -3016022.441 7  -2337797.62745  24330931.931    24330943.0944
  21278164.391   -19471093.124 9 -15146795.28747  21278167.198    21278175.8284
  20216484.922   -24980105.256 9 -19446226.33048  20216486.195    20216494.7214
  22287878.598   -14192384.997 8 -11036781.24147  22287879.970    22287889.8664
  21087921.228   -17976116.364 9 -13985779.49047  21087923.042    21087931.7074
  23906673.058    -6023544.204 8  -4675967.96445  23906676.557    23906688.3324
  23530174.691    -6972165.990 8  -5411633.20545  23530176.276    23530187.8674
 00  3 29  3 20  0.0000000  0  7 03 23 17 26 09 21 29
  24330941.417    -3015940.189 7  -2337733.49645  24330945.748    24330958.7884
  21271014.043   -19508665.072 9 -15176072.10647  21271017.757    21271025.7764
  20223226.822   -24944674.150 9 -19418617.69648  20223228.521    20223236.8364
  22304957.436   -14102629.985 8 -10966842.31846  22304960.132    22304969.2114
  21079010.364   -18022939.668 9 -14022265.12447  21079013.158    21079021.7294
  23891619.192    -6102650.122 8  -4737608.84945  23891622.628    23891635.4234
  23514210.775    -7056046.143 8  -5476994.24345  23514214.171    23514225.0694
 00  3 29  3 20 30.0000000  0  7 03 23 17 26 09 21 29
  24331065.662    -3015301.520 7  -2337235.78845  24331067.923    24331077.9654
  21263899.104   -19546067.878 9 -15205217.13648  21263900.552    21263908.4824
  20230078.548   -24908660.305 9 -19390554.97948  20230081.749    20230090.0614
  22322067.763   -14012729.011 8 -10896789.64746  22322067.677    22322076.2314
  21070210.517   -18069187.007 9 -14058301.96747  21070213.039    21070221.4114
  23876565.516    -6181779.179 8  -4799267.75345  23876566.274    23876577.5534
  23498289.992    -7139708.909 8  -5542185.90045  23498293.149    23498304.4184
 00  3 29  3 21  0.0000000  0  7 03 23 17 26 09 21 29
  24331284.247    -3014145.649 7  -2336335.10045  24331287.228    24331300.5124
  21256814.581   -19583290.380 9 -15234221.65947  21256817.030    21256825.4494
  20237043.462   -24872062.468 9 -19362037.20948  20237045.991    20237054.7134
  22339199.200   -13922702.766 8 -10826639.37046  22339199.307    22339207.2304
  21061516.823   -18114866.627 9 -14093896.43247  21061520.158    21061529.0644
  23861502.860    -6260931.696 8  -4860944.92946  23861503.161    23861515.1594
  23482411.404    -7223153.513 8  -5607207.57045  23482414.498    23482424.7074
 00  3 29  3 21 30.0000000  0  7 03 23 17 26 09 21 29
  24331596.463    -3012502.365 7  -2335054.58745  24331601.449    24331610.4294
  21249764.969   -19620337.315 9 -15263089.38847  21249766.737    21249775.5394
  20244120.433   -24834882.835 9 -19333066.09048  20244120.826    20244129.3354
  22356349.470   -13832571.184 8 -10756406.98946  22356350.693    22356359.4104
  21052931.966   -18159980.260 9 -14129049.85247  21052935.372    21052944.1594
  23846438.864    -6340089.888 8  -4922626.51945  23846438.551    23846450.9774
  23466573.392    -7306387.310 8  -5672064.95745  23466575.680    23466586.6914
 00  3 29  3 22  0.0000000  0  7 03 23 17 26 09 21 29
  24332000.643    -3010389.398 7  -2333408.08445  24332003.732    24332012.1494
  21242743.709   -19657224.793 9 -15291832.85348  21242747.725    21242756.0054
  20251305.137   -24797118.508 9 -19303639.36548  20251307.203    20251315.5774
  22373516.137   -13742351.284 8 -10686105.80346  22373518.889    22373527.6154
  21044456.425   -18204533.291 9 -14163766.45647  21044456.906    21044465.4784
  23831377.282    -6419240.274 8  -4984302.04745  23831377.340    23831389.2194
  23450770.468    -7389410.842 8  -5736758.49745  23450775.717    23450787.0474
 00  3 29  3 22 30.0000000  0  7 03 23 17 26 09 21 29
  24332491.802    -3007825.283 7  -2331410.02545  24332490.455    24332500.8854
  21235756.679   -19693957.377 9 -15320455.62548  21235757.896    21235766.2114
  20258603.092   -24758762.620 9 -19273751.67948  20258605.901    20258614.6864
  22390705.569   -13652040.030 8 -10615733.43546  22390704.955    22390713.5424
  21036085.532   -18248526.480 9 -14198046.82047  21036085.289    21036094.0794
  23816307.947    -6498394.741 8  -5045980.75545  23816315.612    23816325.9174
  23435015.362    -7472222.304 8  -5801286.76945  23435017.783    23435028.6434
 00  3 29  3 23  0.0000000  0  7 03 23 17 26 09 21 29
  24333066.804    -3004812.341 7  -2329062.23345  24333064.945    24333074.2764
  21228792.988   -19730548.716 9 -15348968.33948  21228794.666    21228803.1274
  20266017.051   -24719804.663 9 -19243394.85548  20266019.366    20266028.3064
  22407905.919   -13561628.847 8 -10545283.18846  22407909.353    22407918.9384
  21027823.291   -18291943.841 9 -14231878.48947  21027823.586    21027832.3034
  23801252.277    -6577555.402 8  -5107664.33345  23801251.997    23801260.0794
  23419294.925    -7554828.808 8  -5865655.34845  23419298.789    23419308.7824
 00  3 29  3 23 30.0000000  0  7 03 23 17 26 09 21 29
  24333727.937    -3001323.291 7  -2326343.43645  24333728.792    24333736.7744
  21221857.498   -19766998.137 9 -15377370.47348  21221859.065    21221867.2234
  20273544.078   -24680250.348 9 -19212573.33748  20273546.211    20273555.1644
  22425133.223   -13471102.859 8 -10474743.48146  22425135.395    22425145.0294
  21019670.195   -18334777.984 9 -14265255.69247  21019672.691    21019680.8964
  23786182.461    -6656719.004 8  -5169350.19245  23786186.192    23786198.5184
  23403613.980    -7637239.283 8  -5929871.20745  23403616.305    23403626.5164
 00  3 29  3 24  0.0000000  0  7 03 23 17 26 09 21 29
  24334482.824    -2997338.844 7  -2323238.64545  24334484.474    24334496.6894
  21214948.511   -19803297.164 9 -15405655.41548  21214951.313    21214959.4764
  20281186.801   -24640088.828 9 -19181278.67348  20281188.747    20281197.7914
  22442386.391   -13380454.214 8 -10404108.21646  22442385.732    22442395.5874
  21011635.421   -18377014.863 9 -14298167.49847  21011635.057    21011643.8424
  23771121.281    -6735900.064 8  -5231049.62046  23771119.772    23771130.8554
  23387968.043    -7719461.070 8  -5993940.02646  23387970.376    23387979.2034
 00  3 29  3 24 30.0000000  0  7 03 23 17 26 09 21 29
  24335337.145    -2992841.692 7  -2319734.36045  24335341.560    24335353.2364
  21208070.355   -19839436.846 9 -15433816.18048  21208074.010    21208082.0294
  20288945.411   -24599322.824 9 -19149512.98648  20288946.325    20288955.1434
  22459659.118   -13289672.788 8 -10333369.47746  22459660.663    22459668.9594
  21003712.577   -18418652.975 9 -14330612.72747  21003711.907    21003720.3084
  23756046.757    -6815094.418 8  -5292759.43045  23756048.953    23756060.6644
  23372361.335    -7801491.241 8  -6057859.51546  23372360.447    23372371.1204
 00  3 29  3 25  0.0000000  0  7 03 23 17 26 09 21 29
  24336294.454    -2987811.720 7  -2315814.89945  24336297.533    24336311.4044
  21201225.902   -19875416.242 9 -15461852.04848  21201227.656    21201235.6224
  20296815.478   -24557954.313 9 -19117277.81348  20296818.589    20296827.4384
  22476956.940   -13198761.304 8 -10262529.39446  22476960.703    22476970.0204
  20995899.203   -18459697.935 9 -14362595.77647  20995901.116    20995909.5644
  23740978.960    -6894284.164 8  -5354465.62146  23740980.106    23740990.8774
  23356784.926    -7883327.482 8  -6121627.91146  23356787.929    23356797.1214
 00  3 29  3 25 30.0000000  0  7 03 23 17 26 09 21 29
  24337360.900    -2982240.419 7  -2311473.58445  24337360.519    24337370.6024
  21194408.912   -19911237.942 9 -15489765.05148  21194411.297    21194419.0834
  20304803.203   -24515982.629 9 -19084572.63948  20304805.486    20304814.5074
  22494275.502   -13107715.584 8 -10191584.71446  22494285.327    22494295.3914
  20988199.774   -18500156.188 9 -14394121.64447  20988201.935    20988210.2094
  23725908.674    -6973470.838 8  -5416169.47946  23725911.614    23725921.4454
  23341252.617    -7964953.676 8  -6185232.61346  23341255.446    23341265.1634
 00  3 29  3 26  0.0000000  0  7 03 23 17 26 09 21 29
  24338522.044    -2976131.581 7  -2306713.47645  24338523.768    24338532.0534
  21187619.629   -19946911.199 9 -15517562.36848  21187622.394    21187631.1294
  20312902.915   -24473410.328 9 -19051399.44448  20312906.713    20312915.9864
  22511636.406   -13016536.013 8 -10120535.74946  22511637.561    22511646.3574
  20980611.903   -18540024.672 9 -14425187.95747  20980615.094    20980623.4254
  23710838.185    -7052669.606 8  -5477882.71646  23710840.490    23710850.0194
  23325765.107    -8046354.423 8  -6248661.67346  23325764.946    23325774.4284
 00  3 29  3 26 30.0000000  0  7 03 23 17 26 09 21 29
  24339775.869    -2969495.192 7  -2301542.23445  24339784.482    24339796.6124
  21180858.286   -19982433.593 9 -15545242.12948  21180862.261    21180871.2374
  20321118.528   -24430249.157 9 -19017767.39148  20321120.244    20321128.9844
  22529009.138   -12925222.977 8 -10049382.77346  22529013.988    22529023.0444
  20973137.145   -18579310.954 9 -14455800.60647  20973139.476    20973147.1884
  23695764.660    -7131886.372 8  -5539609.98446  23695765.663    23695775.5924
  23310316.549    -8127531.300 8  -6311916.24046  23310315.968    23310326.9054
 00  3 29  3 27  0.0000000  0  7 03 23 17 26 09 21 29
  24341150.359    -2962331.786 7  -2295960.33445  24341149.618    24341160.9384
  21174129.793   -20017806.251 9 -15572805.21048  21174131.264    21174139.6954
  20329442.566   -24386495.335 9 -18983673.52948  20329446.360    20329454.8334
  22546413.601   -12833780.638 8  -9978129.03846  22546414.778    22546423.8394
  20965772.695   -18618009.665 9 -14485955.40147  20965774.972    20965783.4304
  23680684.475    -7211127.067 8  -5601355.91246  23680687.256    23680697.2294
  23294906.738    -8208488.190 8  -6374999.41646  23294910.764    23294921.8534
 00  3 29  3 27 30.0000000  0  7 03 23 17 26 09 21 29
  24342610.032    -2954662.659 7  -2289984.36845  24342607.260    24342618.3834
  21167426.146   -20053029.498 9 -15600251.87848  21167428.804    21167437.0834
  20337883.516   -24342150.409 9 -18949119.07148  20337885.013    20337893.6504
  22563834.454   -12742220.018 8  -9906783.15746  22563837.290    22563847.7184
  20958522.897   -18656107.960 9 -14515642.34347  20958525.089    20958533.6504
  23665599.234    -7290401.876 8  -5663128.42246  23665601.659    23665611.3584
  23279546.579    -8289230.458 8  -6437915.33246  23279546.025    23279556.8964
 00  3 29  3 28  0.0000000  0  7 03 23 17 26 09 21 29
  24344154.026    -2946501.656 7  -2283625.14845  24344160.481    24344169.0814
  21160753.181   -20088094.093 9 -15627574.92748  21160755.826    21160764.3114
  20346431.117   -24297228.081 9 -18914114.69048  20346433.343    20346442.2044
  22581277.960   -12650547.913 8  -9835350.38246  22581282.587    22581292.5464
  20951387.668   -18693600.269 9 -14544857.08347  20951390.269    20951399.2164
  23650512.600    -7369695.569 8  -5724915.64446  23650512.582    23650522.0644
  23264221.950    -8369772.273 8  -6500675.07546  23264219.987    23264230.1894
 00  3 29  3 28 30.0000000  0  7 03 23 17 26 09 21 29
  24345799.858    -2937853.806 7  -2276886.55545  24345805.716    24345818.4354
  21154112.196   -20122994.598 9 -15654770.10248  21154114.811    21154123.2734
  20355087.291   -24251731.586 9 -18878662.90248  20355090.886    20355099.7524
  22598742.359   -12558770.516 8  -9763835.57946  22598747.102    22598756.7144
  20944365.846   -18730498.067 9 -14573608.57147  20944368.721    20944377.2414
  23635421.843    -7448982.759 8  -5786697.79446  23635424.282    23635433.5154
  23248925.417    -8450116.289 8  -6563280.67146  23248930.270    23248940.4894
 00  3 29  3 29  0.0000000  0  7 03 23 17 26 09 21 29
  24347543.833    -2928720.016 7  -2269769.27145  24347545.377    24347556.4474
  21147503.328   -20157736.630 9 -15681841.79548  21147503.679    21147512.0054
  20363858.013   -24205654.795 9 -18842758.93948  20363859.334    20363868.0084
  22616230.643   -12466891.249 8  -9692241.36646  22616232.052    22616241.2534
  20937460.773   -18766800.025 9 -14601895.76747  20937460.837    20937469.1964
  23620342.194    -7528246.126 8  -5848461.37346  23620341.443    23620350.6824
  23233679.107    -8530245.335 8  -6625718.72746  23233680.992    23233692.2884
 00  3 29  3 29 30.0000000  0  7 03 23 17 26 09 21 29
  24349369.855    -2919112.583 7  -2262282.92645  24349372.555    24349382.8314
  21140919.244   -20192317.003 9 -15708787.51648  21140922.843    21140931.2124
  20372736.341   -24158993.567 9 -18806399.57048  20372738.834    20372747.5844
  22633733.669   -12374909.562 8  -9620567.37646  22633735.722    22633744.6854
  20930663.933   -18802498.251 9 -14629712.52647  20930667.571    20930676.0014
  23605263.195    -7607480.889 8  -5910202.65446  23605262.509    23605272.6564
  23218468.122    -8610162.779 8  -6687991.90246  23218473.095    23218484.6414
 00  3 29  3 30  0.0000000  0  7 03 23 17 26 09 21 29
  24351282.463    -2909015.467 7  -2254414.98745  24351292.649    24351304.3904
  21134371.711   -20226735.781 9 -15735607.31548  21134372.991    21134381.4444
  20381729.608   -24111737.334 9 -18769576.56448  20381731.406    20381740.0034
  22651260.667   -12282823.295 8  -9548811.89246  22651258.428    22651268.1734
  20923985.926   -18837596.411 9 -14657061.70647  20923988.367    20923996.9224
  23590189.296    -7686681.186 8  -5971917.09446  23590192.283    23590201.7184
  23203304.469    -8689861.758 8  -6750094.88246  23203307.982    23203317.3014
 00  3 29  3 30 30.0000000  0  7 03 23 17 26 09 21 29
  24353301.896    -2898428.266 7  -2246165.25845  24353306.380    24353318.1724
  21127853.981   -20260992.633 9 -15762300.94348  21127854.144    21127863.1204
  20390838.752   -24063868.770 9 -18732276.40948  20390840.411    20390849.1074
  22668796.032   -12190646.660 8  -9476985.97746  22668799.488    22668809.0014
  20917421.349   -18872083.922 9 -14683935.04447  20917425.711    20917434.3604
  23575121.786    -7765865.674 8  -6033619.20146  23575123.354    23575133.2754
  23188183.917    -8769339.671 8  -6812025.62246  23188183.657    23188193.4944
 00  3 29  3 31  0.0000000  0  7 03 23 17 26 09 21 29
  24355410.311    -2887355.195 7  -2237536.86545  24355413.431    24355426.2944
  21121364.232   -20295086.641 9 -15788867.68048  21121366.361    21121375.1404
  20400062.856   -24015391.118 9 -18694501.64548  20400065.180    20400074.2634
  22686353.449   -12098382.152 8  -9405091.60346  22686356.299    22686366.5154
  20910982.276   -18905936.447 9 -14710313.59147  20910984.138    20910992.8514
  23560046.718    -7845052.690 8  -6095323.28746  23560053.885    23560064.0614
  23173089.551    -8848604.126 8  -6873789.99346  23173098.827    23173110.3854
 00  3 29  3 31 30.0000000  0  7 03 23 17 26 09 21 29
  24357609.666    -2875799.101 7  -2228532.13145  24357613.222    24357624.8174
  21114909.096   -20329011.552 9 -15815302.64848  21114910.798    21114919.2544
  20409402.294   -23966315.484 9 -18656260.93148  20409404.048    20409413.2174
  22703927.476   -12006028.046 8  -9333127.41646  22703931.168    22703940.4894
  20904659.350   -18939151.446 9 -14736195.37148  20904663.391    20904671.9004
  23544977.894    -7924262.519 8  -6157045.14046  23544979.867    23544991.7454
  23158047.980    -8927673.180 8  -6935402.12646  23158052.377    23158064.1994
 00  3 29  3 32  0.0000000  0  7 03 23 17 26 09 21 29
  24359909.225    -2863754.879 7  -2219147.00845  24359907.673    24359916.3934
  21108487.201   -20362758.745 9 -15841599.14148  21108488.740    21108497.0534
  20418850.845   -23916663.480 9 -18617571.09048  20418852.813    20418861.2394
  22721513.114   -11913596.929 8  -9261103.23346  22721519.365    22721529.6604
  20898461.645   -18971733.709 9 -14761584.11347  20898463.051    20898471.3984
  23529901.815    -8003505.783 8  -6218793.05546  23529900.874    23529911.7334
  23143042.993    -9006536.850 8  -6996854.19446  23143045.315    23143056.3154
 00  3 29  3 32 30.0000000  0  7 03 23 17 26 09 21 29
  24362280.997    -2851230.482 7  -2209387.68445  24362289.172    24362301.2354
  21102098.110   -20396326.363 9 -15867755.69348  21102100.896    21102109.9914
  20428406.892   -23866446.650 9 -18578441.12048  20428408.762    20428417.2874
  22739126.579   -11821085.375 8  -9189016.34046  22739124.486    22739133.1674
  20892383.551   -19003678.932 9 -14786476.46647  20892383.772    20892392.1804
  23514810.966    -8082786.239 8  -6280569.96846  23514814.454    23514824.8804
  23128074.344    -9085204.253 8  -7058153.35646  23128075.926    23128086.2404
 00  3 29  3 33  0.0000000  0  7 03 23 17 26 09 21 29
  24364756.018    -2838219.805 7  -2199249.48845  24364766.250    24364778.8454
  21095745.499   -20429719.126 9 -15893775.99048  21095746.577    21095755.3404
  20438068.594   -23815668.303 9 -18538873.61048  20438071.663    20438080.1284
  22756745.399   -11728484.116 8  -9116859.57246  22756745.485    22756755.8234
  20886420.036   -19035004.698 9 -14810886.11647  20886422.744    20886431.5264
  23499727.002    -8162088.248 8  -6342363.64546  23499723.988    23499734.3404
  23113145.994    -9163663.129 8  -7119290.01446  23113145.056    23113155.7584
 00  3 29  3 33 30.0000000  0  7 03 23 17 26 09 21 29
  24367332.081    -2824713.456 7  -2188725.04745  24367334.325    24367346.1904
  21089426.769   -20462924.378 9 -15919650.17348  21089427.803    21089436.3484
  20447842.262   -23764313.390 9 -18498856.82648  20447844.009    20447852.7374
  22774380.046   -11635801.790 8  -9044639.62046  22774382.405    22774391.5384
  20880575.082   -19065730.695 9 -14834828.41648  20880575.968    20880584.6894
  23484623.704    -8241394.003 8  -6404160.22146  23484631.354    23484643.4154
  23098251.881    -9241892.984 8  -7180248.21946  23098257.721    23098269.1464
 00  3 29  3 34  0.0000000  0  7 03 23 17 26 09 21 29
  24369988.795    -2810702.325 7  -2177807.27645  24369999.303    24370015.2694
  21083141.879   -20495949.332 9 -15945383.87748  21083143.369    21083151.8194
  20457727.381   -23712372.527 9 -18458383.45948  20457728.055    20457736.9894
  22792033.797   -11543049.692 8  -8972365.31746  22792033.113    22792041.8094
  20874842.350   -19095848.499 9 -14858296.80248  20874845.074    20874853.2904
  23469538.722    -8320679.339 8  -6465940.89646  23469543.672    23469556.2174
  23083413.404    -9319882.310 8  -7241019.00146  23083417.367    23083427.4334
 00  3 29  3 34 30.0000000  0  7 03 23 17 26 09 21 29
  24372766.922    -2796191.174 7  -2166499.92045  24372763.867    24372772.5884
  21076886.803   -20528805.080 9 -15970985.71548  21076890.999    21076899.5344
  20467723.865   -23659838.223 9 -18417447.67048  20467724.962    20467733.8034
  22809693.817   -11450213.634 8  -8900025.57946  22809698.940    22809707.3714
  20869226.217   -19125362.793 9 -14881294.91248  20869228.143    20869236.7774
  23454463.100    -8399934.383 8  -6527697.94646  23454462.543    23454473.6654
  23068623.613    -9397629.776 8  -7301601.31846  23068622.124    23068632.8674
 00  3 29  3 35  0.0000000  0  7 03 23 17 26 09 21 29
  24375620.901    -2781179.300 7  -2154802.37945  24375618.923    24375630.8264
  21070671.067   -20561485.352 9 -15996450.82748  21070672.024    21070680.5784
  20477831.362   -23606719.782 9 -18376056.71448  20477832.939    20477842.0524
  22827378.357   -11357294.352 8  -8827621.00246  22827381.548    22827390.3744
  20863720.982   -19154293.372 9 -14903838.18948  20863722.789    20863731.6204
  23439386.942    -8479159.272 8  -6589431.52946  23439387.307    23439397.1344
  23053870.185    -9475125.111 8  -7361987.18646  23053875.565    23053885.8264
 00  3 29  3 35 30.0000000  0  7 03 23 17 26 09 21 29
  24378566.263    -2765671.522 7  -2142718.38345  24378570.919    24378581.4404
  21064483.147   -20593997.223 9 -16021784.72948  21064485.179    21064493.4614
  20488047.070   -23553035.149 9 -18334224.56748  20488048.983    20488057.7774
  22845076.228   -11264298.868 8  -8755157.03446  22845078.041    22845087.0344
  20858330.318   -19182626.655 9 -14925916.03847  20858331.415    20858339.6204
  23424314.096    -8558355.792 8  -6651142.99346  23424316.252    23424326.0174
  23039167.974    -9552397.985 8  -7422199.71746  23039171.475    23039180.7334
 00  3 29  3 36  0.0000000  0  7 03 23 17 26 09 21 29
  24381619.769    -2749678.128 7  -2130255.99845  24381615.274    24381626.6874
  21058324.787   -20626363.874 9 -16047005.46948  21058326.166    21058334.0224
  20498366.252   -23498807.133 9 -18291969.00848  20498368.106    20498376.9394
  22862791.189   -11171216.200 8  -8682625.10846  22862790.868    22862799.2974
  20853054.964   -19210350.181 9 -14947518.74748  20853055.719    20853064.0504
  23409242.208    -8637549.864 8  -6712852.56146  23409245.572    23409255.7074
  23024502.263    -9629466.297 8  -7482252.83646  23024504.837    23024515.0914
 00  3 29  3 36 30.0000000  0  7 03 23 17 26 09 21 29
  24384743.049    -2733201.163 7  -2117416.81745  24384748.191    24384761.4324
  21052195.025   -20658572.922 9 -16072103.42148  21052196.987    21052204.9204
  20508787.250   -23444039.716 9 -18249293.13748  20508790.054    20508799.2494
  22880521.948   -11078040.893 8  -8610021.01846  22880521.421    22880531.1134
  20847890.846   -19237477.659 9 -14968657.01548  20847893.225    20847901.8214
  23394168.126    -8716749.211 8  -6774566.22546  23394174.371    23394185.4204
  23009875.856    -9706331.639 8  -7542147.79746  23009879.357    23009888.6114
 00  3 29  3 37  0.0000000  0  7 03 23 17 26 09 21 29
  24387969.133    -2716251.176 7  -2104209.05045  24387974.750    24387987.6894
  21046095.068   -20690626.794 9 -16097080.43748  21046097.339    21046105.2774
  20519314.750   -23388723.529 9 -18206189.65148  20519316.491    20519325.5794
  22898258.028   -10984790.599 8  -8537358.53046  22898266.396    22898275.7114
  20842843.459   -19263993.955 9 -14989319.02848  20842847.168    20842855.9954
  23379099.778    -8795949.573 8  -6836280.70146  23379103.414    23379113.1814
  22995286.999    -9782999.343 8  -7601888.76146  22995289.389    22995298.4524
 00  3 29  3 37 30.0000000  0  7 03 23 17 26 09 21 29
  24391289.907    -2698833.146 7  -2090636.59745  24391290.141    24391301.9044
  21040023.146   -20722526.524 9 -16121937.34948  21040026.869    21040034.9154
  20529946.730   -23332848.798 9 -18162650.93048  20529949.024    20529958.2214
  22916023.249   -10891481.356 8  -8464650.09246  22916022.327    22916031.6744
  20837922.382   -19289868.538 9 -15009481.00148  20837923.583    20837932.1544
  23364031.028    -8875141.761 8  -6897988.79546  23364032.939    23364043.5434
  22980736.806    -9859458.910 8  -7661467.49946  22980738.601    22980748.5054
 00  3 29  3 38  0.0000000  0  7 03 23 17 26 09 21 29
  24394695.045    -2680942.070 7  -2076695.47045  24394693.181    24394704.5234
  21033988.474   -20754251.980 9 -16146658.46648  21033989.874    21033997.8444
  20540687.546   -23276400.909 9 -18118665.60448  20540690.542    20540699.8874
  22933788.192   -10798114.287 8  -8391896.58746  22933789.552    22933798.3124
  20833119.896   -19315101.234 9 -15029142.80648  20833121.974    20833130.8894
  23348959.960    -8954332.788 8  -6959696.00946  23348963.175    23348973.6504
  22966230.485    -9935676.495 8  -7720857.69746  22966235.883    22966245.5884
 00  3 29  3 38 30.0000000  0  7 03 23 17 26 09 21 29
  24398173.633    -2662586.283 7  -2062392.28545  24398185.598    24398198.5994
  21027987.933   -20785779.933 9 -16171225.68548  21027990.393    21027998.1094
  20551541.098   -23219362.430 9 -18074220.08248  20551544.591    20551553.7174
  22951562.293   -10704698.479 8  -8319105.08646  22951566.029    22951575.2524
  20828441.749   -19339695.633 9 -15048307.23948  20828441.757    20828450.3954
  23333894.010    -9033493.446 8  -7021379.52646  23333899.325    23333909.8434
  22951781.274   -10011648.345 8  -7780056.41046  22951779.280    22951788.0884
 00  3 29  3 39  0.0000000  0  7 03 23 17 26 09 21 29
  24401765.312    -2643770.837 7  -2047730.87745  24401768.038    24401780.0034
  21022024.209   -20817117.920 9 -16195644.87648  21022027.243    21022034.8604
  20562507.606   -23161733.951 9 -18029314.81348  20562511.127    20562520.0144
  22969352.821   -10611238.091 8  -8246278.87246  22969350.858    22969360.3374
  20823883.870   -19363637.258 9 -15066963.02248  20823885.848    20823894.4754
  23318834.635    -9112626.508 8  -7083041.52446  23318841.421    23318851.2114
  22937365.280   -10087382.470 8  -7839069.89646  22937366.508    22937376.7794
 00  3 29  3 39 30.0000000  0  7 03 23 17 26 09 21 29
  24405439.342    -2624479.467 7  -2032698.66645  24405440.962    24405449.2764
  21016100.511   -20848251.540 9 -16219904.81948  21016102.311    21016110.5444
  20573587.010   -23103516.905 9 -17983950.91448  20573589.949    20573598.4344
  22987142.440   -10517717.689 8  -8173405.90446  22987146.622    22987156.4784
  20819452.228   -19386927.172 9 -15085110.97448  20819453.700    20819462.5204
  23303782.497    -9191743.608 8  -7144691.12946  23303786.633    23303794.8494
  22922995.760   -10162887.297 8  -7897904.69546  22922997.613    22923008.9324
 00  3 29  3 40  0.0000000  0  7 03 23 17 26 09 21 29
  24409196.107    -2604719.843 7  -2017301.56945  24409199.523    24409209.0484
  21010215.661   -20879179.010 9 -16244004.13248  21010216.897    21010225.3014
  20584777.551   -23044714.903 9 -17938131.19848  20584779.476    20584788.1204
  23004953.597   -10424116.060 8  -8100469.62046  23004958.530    23004966.8304
  20815140.535   -19409578.865 9 -15102761.61348  20815143.425    20815152.2944
  23288728.539    -9270850.709 8  -7206332.94046  23288732.886    23288741.0094
  22908668.855   -10238188.361 8  -7956580.68446  22908668.514    22908678.4814
 00  3 29  3 40 30.0000000  0  7 03 23 17 26 09 21 29
  24413046.244    -2584508.339 7  -2001552.31745  24413047.101    24413055.9734
  21004366.280   -20909909.052 9 -16267949.60248  21004369.103    21004377.8994
  20596074.999   -22985338.595 9 -17891863.98648  20596077.708    20596087.2424
  23022785.394   -10330422.134 8  -8027461.41246  23022788.507    23022798.1994
  20810953.249   -19431596.168 9 -15119917.91648  20810953.762    20810962.2984
  23273677.402    -9349941.038 8  -7267961.66346  23273680.204    23273691.2984
  22894374.914   -10313299.294 8  -8015108.58846  22894376.118    22894384.8514
 00  3 29  3 41  0.0000000  0  7 03 23 17 26 09 21 29
  24416978.558    -2563831.973 7  -1985440.87645  24416981.402    24416989.2934
  20998554.287   -20940454.227 9 -16291751.02348  20998556.715    20998565.1114
  20607480.332   -22925402.448 9 -17845160.54348  20607483.402    20607493.0144
  23040631.526   -10236637.385 8  -7954382.44246  23040635.351    23040644.5774
  20806883.609   -19452978.037 9 -15136579.07848  20806885.085    20806893.1624
  23258627.099    -9429033.036 8  -7329591.71946  23258631.377    23258641.6564
  22880115.275   -10388212.227 8  -8073482.17546  22880120.384    22880129.3714
 00  3 29  3 41 30.0000000  0  7 03 23 17 26 09 21 29
  24421007.372    -2542683.367 7  -1968961.50845  24421006.280    24421014.1324
  20992779.199   -20970803.810 9 -16315400.02848  20992781.454    20992789.7374
  20618991.617   -22864909.564 9 -17798023.27348  20618995.203    20619004.4824
  23058495.612   -10142760.003 8  -7881231.28146  23058499.420    23058507.9384
  20802931.546   -19473733.172 9 -15152751.87248  20802935.249    20802943.8974
  23243576.353    -9508117.245 8  -7391215.67746  23243582.553    23243591.7554
  22865902.800   -10462916.529 8  -8131693.20446  22865904.398    22865913.9514
 00  3 29  3 42  0.0000000  0  7 03 23 17 26 09 21 29
  24425109.919    -2521072.184 7  -1952121.62844  24425115.977    24425125.7974
  20987040.545   -21000967.332 9 -16338904.05848  20987041.371    20987049.7344
  20630606.040   -22803877.744 9 -17750466.05148  20630609.051    20630618.1914
  23076378.510   -10048804.724 8  -7808019.42346  23076378.796    23076388.5144
  20799100.234   -19493868.582 9 -15168441.77048  20799103.789    20799112.2834
  23228532.872    -9587185.767 8  -7452827.42346  23228534.436    23228544.2964
  22851724.002   -10537396.003 8  -8189729.03146  22851730.399    22851740.5624
 00  3 29  3 42 30.0000000  0  7 03 23 17 26 09 21 29
  24429321.099    -2498991.197 7  -1934915.67345  24429317.940    24429330.2914
  20981333.260   -21030947.080 9 -16362264.88648  20981336.235    20981344.9614
  20642324.497   -22742303.707 9 -17702486.33148  20642326.223    20642335.5864
  23094265.679    -9954799.724 8  -7734768.84646  23094267.597    23094276.9284
  20795387.998   -19513379.377 9 -15183644.95248  20795390.770    20795399.1904
  23213490.117    -9666236.907 8  -7514425.61546  23213492.490    23213502.1984
  22837602.088   -10611637.594 8  -8247579.51546  22837603.119    22837612.8954
 00  3 29  3 43  0.0000000  0  7 03 23 17 26 09 21 29
  24433613.760    -2476428.914 7  -1917334.73145  24433614.520    24433621.1564
  20975666.204   -21060734.541 9 -16385475.89848  20975667.890    20975676.4194
  20654148.388   -22680177.560 9 -17654076.39148  20654148.539    20654157.9324
  23112162.588    -9860760.526 8  -7661491.60846  23112163.117    23112172.9154
  20791794.989   -19532263.733 9 -15198360.00448  20791797.064    20791805.4394
  23198450.743    -9745273.373 8  -7576012.38546  23198452.662    23198461.3984
  22823519.448   -10685644.496 8  -8305247.12446  22823520.474    22823529.6194
 00  3 29  3 43 30.0000000  0  7 03 23 17 26 09 21 29
  24437995.695    -2453393.908 7  -1899385.38345  24437994.953    24438005.4454
  20970033.671   -21090324.727 9 -16408533.18148  20970037.105    20970045.7224
  20666073.074   -22617496.697 9 -17605234.19547  20666076.311    20666085.2044
  23130063.360    -9766686.995 8  -7588187.63546  23130064.292    23130073.6954
  20788320.386   -19550522.680 9 -15212587.72348  20788322.477    20788330.6894
  23183415.547    -9824292.261 8  -7637585.45546  23183415.817    23183425.2504
  22809481.214   -10759416.973 8  -8362732.04446  22809481.324    22809491.6114
 00  3 29  3 44  0.0000000  0  7 03 23 17 26 09 21 29
  24442462.330    -2429907.175 7  -1881084.05045  24442465.388    24442477.9184
  20964441.492   -21119722.687 9 -16431440.67348  20964443.209    20964451.3504
  20678108.231   -22554269.573 9 -17555966.35448  20678108.281    20678117.4174
  23147969.728    -9672583.418 8  -7514860.21946  23147971.921    23147980.9064
  20784962.351   -19568155.572 9 -15226327.60348  20784967.177    20784975.4794
  23168376.719    -9903298.789 8  -7699148.89646  23168380.200    23168391.1824
  22795480.653   -10832949.492 8  -8420030.00946  22795488.385    22795497.8674
 00  3 29  3 44 30.0000000  0  7 03 23 17 26 09 21 29
  24447016.556    -2405966.949 7  -1862429.33045  24447021.751    24447031.2474
  20958884.402   -21148925.837 9 -16454196.36448  20958885.864    20958894.1804
  20690247.422   -22490476.321 9 -17506257.36948  20690247.948    20690256.9164
  23165883.482    -9578448.602 8  -7441508.46446  23165885.292    23165894.1314
  20781728.445   -19585162.438 9 -15239579.67948  20781730.911    20781739.1484
  23153345.606    -9982292.051 8  -7760702.02046  23153349.486    23153358.7514
  22781539.392   -10906248.274 8  -8477145.83746  22781540.351    22781550.3044
 00  3 29  3 45  0.0000000  0  7 03 23 17 26 09 21 29
  24451655.409    -2381572.012 7  -1843420.37945  24451663.220    24451674.0394
  20953360.934   -21177945.484 9 -16476809.06048  20953363.530    20953372.1424
  20702491.709   -22426123.719 9 -17456112.52748  20702493.471    20702502.7694
  23183805.996    -9484262.605 8  -7368116.84846  23183807.746    23183817.1184
  20778612.005   -19601537.942 9 -15252339.77948  20778614.230    20778622.9954
  23138318.026   -10061269.353 8  -7822242.73246  23138320.440    23138329.3704
  22767634.515   -10979304.260 8  -8534072.47846  22767638.300    22767647.9604
 00  3 29  3 45 30.0000000  0  7 03 23 17 26 09 21 29
  24456388.348    -2356734.607 7  -1824066.55545  24456388.750    24456401.3274
  20947870.961   -21206800.810 9 -16499293.72148  20947872.251    20947880.8214
  20714840.356   -22361223.992 9 -17405541.35248  20714843.643    20714852.8664
  23201737.702    -9390028.320 8  -7294687.60646  23201739.864    23201748.9104
  20775619.019   -19617272.801 9 -15264600.67148  20775619.954    20775628.7844
  23123294.494   -10140222.133 8  -7883764.33246  23123295.020    23123305.3594
  22753781.144   -11052110.479 8  -8590804.46246  22753783.692    22753793.7694
 00  3 29  3 46  0.0000000  0  7 03 23 17 26 09 21 29
  24461198.902    -2331453.826 7  -1804367.27545  24461201.792    24461210.8274
  20942408.989   -21235498.850 9 -16521655.82548  20942411.422    20942419.6804
  20727296.225   -22295778.492 9 -17354544.90247  20727297.572    20727306.7214
  23219680.103    -9295751.833 8  -7221225.47146  23219680.043    23219689.3594
  20772747.699   -19632357.830 9 -15276355.21148  20772749.758    20772758.1224
  23108272.730   -10219149.677 8  -7945266.24246  23108275.320    23108285.4924
  22739969.097   -11124681.313 8  -8647353.06346  22739973.263    22739983.7644
 00  3 29  3 46 30.0000000  0  7 03 23 17 26 09 21 29
  24466086.639    -2305723.518 7  -1784317.71145  24466094.944    24466108.5764
  20936978.664   -21264039.649 9 -16543895.39848  20936980.444    20936988.2754
  20739855.765   -22229782.086 9 -17303119.17547  20739856.363    20739865.5934
  23237622.273    -9201442.342 8  -7147737.62446  23237626.491    23237636.3184
  20770002.510   -19646780.743 9 -15287593.81648  20770005.173    20770013.4324
  23093258.223   -10298055.296 8  -8006751.06346  23093260.370    23093270.8654
  22726203.922   -11197033.013 8  -8703730.91046  22726204.947    22726215.6114
 00  3 29  3 47  0.0000000  0  7 03 23 17 26 09 21 29
  24471071.820    -2279552.531 7  -1763924.76345  24471075.319    24471088.3074
  20931579.777   -21292416.097 9 -16566006.90648  20931580.699    20931588.5634
  20752511.503   -22163267.433 9 -17251289.61747  20752513.815    20752522.6974
  23255577.440    -9107098.762 8  -7074223.23546  23255579.930    23255589.7464
  20767384.744   -19660533.479 9 -15298310.20148  20767388.052    20767396.2294
  23078249.564   -10376936.133 8  -8068216.60046  23078250.494    23078260.8344
  22712476.217   -11269161.647 8  -8759934.89446  22712479.260    22712489.6054
 00  3 29  3 47 30.0000000  0  7 03 23 17 26 09 21 29
  24476139.680    -2252939.797 7  -1743187.59045  24476141.492    24476152.4304
  20926212.373   -21320609.209 9 -16587975.54748  20926215.501    20926223.8144
  20765266.262   -22096239.118 9 -17199059.80547  20765269.072    20765278.0964
  23273531.489    -9012733.433 8  -7000691.84546  23273536.600    23273546.0864
  20764892.513   -19673631.647 9 -15308516.54048  20764895.495    20764903.7144
  23063242.059   -10455794.969 8  -8129664.97546  23063243.775    23063253.7404
  22698789.507   -11341086.160 8  -8815979.88046  22698792.757    22698802.3974
 00  3 29  3 48  0.0000000  0  7 03 23 17 26 09 21 29
  24481284.431    -2225881.584 7  -1722103.28245  24481290.870    24481300.7224
  20920888.476   -21348595.258 9 -16609782.84648  20920890.171    20920897.8864
  20778121.620   -22028700.831 9 -17146432.60647  20778121.055    20778130.1724
  23291492.616    -8918342.428 8  -6927140.46846  23291498.487    23291508.9954
  20762522.330   -19686087.438 9 -15318222.32348  20762525.291    20762533.4344
  23048241.719   -10534647.577 8  -8191108.51846  23048239.561    23048249.2094
  22685143.205   -11412809.870 8  -8871868.36446  22685144.631    22685153.6904
 00  3 29  3 48 30.0000000  0  7 03 23 17 26 09 21 29
  24486516.131    -2198379.833 7  -1700673.38445  24486523.270    24486534.2284
  20915603.137   -21376363.232 9 -16631420.20948  20915605.725    20915614.1594
  20791066.009   -21960655.593 9 -17093410.38747  20791069.316    20791078.5894
  23309464.187    -8823921.199 8  -6853565.55246  23309466.387    23309477.1464
  20760272.520   -19697912.017 9 -15327436.26248  20760275.070    20760282.8824
  23033235.752   -10613478.636 8  -8252535.28146  23033238.170    23033248.2684
  22671534.929   -11484312.911 8  -8927584.90246  22671537.753    22671546.8334
 00  3 29  3 49  0.0000000  0  7 03 23 17 26 09 21 29
  24491840.768    -2170423.462 7  -1678889.23345  24491843.741    24491856.7874
  20910360.340   -21403917.460 9 -16652891.01048  20910362.631    20910370.6814
  20804112.407   -21892100.968 9 -17039991.25347  20804114.904    20804124.3344
  23327441.117    -8729458.264 8  -6779958.14646  23327442.780    23327452.3924
  20758139.754   -19709119.210 9 -15336169.11848  20758142.443    20758150.8034
  23018236.840   -10692279.059 8  -8313938.13446  23018242.885    23018252.2474
  22657974.810   -11555584.641 8  -8983121.22346  22657975.237    22657985.4124
 00  3 29  3 49 30.0000000  0  7 03 23 17 26 09 21 29
  24497244.621    -2142006.583 7  -1656746.23444  24497250.213    24497258.5584
  20905159.636   -21431253.957 9 -16674192.15948  20905160.634    20905168.5574
  20817259.703   -21823012.459 9 -16986156.09847  20817261.976    20817271.3704
  23345422.357    -8634959.880 8  -6706323.10446  23345424.512    23345434.6664
  20756125.130   -19719713.331 9 -15344424.25348  20756126.536    20756134.7384
  23003250.662   -10771051.623 8  -8375319.31746  23003253.516    23003262.8294
  22644455.922   -11626628.852 8  -9038480.21646  22644455.865    22644465.4384
 00  3 29  3 50  0.0000000  0  7 03 23 17 26 09 21 29
  24502739.387    -2113148.391 7  -1634259.32544  24502741.909    24502752.8524
  20899999.308   -21458365.209 9 -16695317.79448  20900001.399    20900009.4134
  20830512.052   -21753382.781 9 -16931899.24447  20830512.279    20830521.4854
  23363406.340    -8540428.361 8  -6632662.23746  23363413.502    23363423.6774
  20754228.966   -19729670.685 9 -15352183.20548  20754231.568    20754239.9234
  22988270.775   -10849779.913 8  -8436665.96546  22988270.469    22988281.3104
  22630980.811   -11697422.911 8  -9093644.29746  22630983.748    22630993.3404
 00  3 29  3 50 30.0000000  0  7 03 23 17 26 09 21 29
  24508321.041    -2083852.167 7  -1611431.11544  24508318.629    24508327.4204
  20894883.081   -21485255.031 9 -16716270.89048  20894884.350    20894892.6344
  20843860.794   -21683203.868 9 -16877214.42447  20843866.879    20843876.2934
  23381405.870    -8445860.055 8  -6558972.71546  23381409.460    23381420.2764
  20752458.638   -19738984.747 9 -15359440.88848  20752459.075    20752467.0714
  22973295.818   -10928446.697 8  -8497964.69546  22973300.891    22973311.1694
  22617562.166   -11767960.387 8  -9148608.45546  22617561.214    22617570.3704
 00  3 29  3 51  0.0000000  0  7 03 23 17 26 09 21 29
  24513982.994    -2054124.526 7  -1588266.74744  24513973.316    24513987.7614
  20889807.819   -21511917.138 9 -16737046.53848  20889810.343    20889819.3464
  20857323.638   -21612478.428 9 -16822103.73847  20857325.531    20857335.1714
  23399410.657    -8351253.561 8  -6485253.41246  23399412.297    23399422.9104
  20750808.732   -19747649.488 9 -15366192.60948  20750810.755    20750818.3684
  22958339.144   -11007064.912 8  -8559225.58046  22958340.574    22958349.7014
  22604182.629   -11838256.107 8  -9203384.22746  22604184.488    22604193.8694
 00  3 29  3 51 30.0000000  0  7 03 23 17 26 09 21 29
  24519704.324    -2023987.623 7  -1564783.47344  24519707.227    24519720.2744
  20884777.993   -21538345.068 9 -16757639.71648  20884781.378    20884790.0344
  20870885.204   -21541212.251 9 -16766571.70047  20870887.516    20870896.4314
  23417418.268    -8256614.977 8  -6411509.11246  23417423.295    23417432.0944
  20749286.798   -19755655.160 9 -15372430.77248  20749287.447    20749294.7544
  22943391.237   -11085637.760 8  -8620451.12846  22943389.714    22943398.8934
  22590848.351   -11908314.989 8  -9257975.45946  22590851.895    22590861.9434
 00  3 29  3 52  0.0000000  0  7 03 23 17 26 09 21 29
  24525515.048    -1993446.951 7  -1540985.56344  24525522.970    24525532.0414
  20879792.060   -21564551.043 9 -16778059.94848  20879794.636    20879803.3314
  20884547.100   -21469415.692 9 -16710626.37647  20884549.968    20884559.0024
  23435440.678    -8161934.520 8  -6337732.18646  23435440.443    23435449.6364
  20747886.280   -19763004.876 9 -15378157.80648  20747888.580    20747896.5314
  22928442.111   -11164165.193 8  -8681641.28746  22928445.173    22928455.3714
  22577563.842   -11978136.587 8  -9312381.78346  22577565.385    22577574.8374
 00  3 29  3 52 30.0000000  0  7 03 23 17 26 09 21 29
  24531408.080    -1962489.221 7  -1516862.68744  24531412.856    24531424.5054
  20874845.712   -21590550.609 9 -16798319.34048  20874846.936    20874855.5684
  20898307.905   -21397089.595 9 -16654268.43847  20898312.934    20898322.5554
  23453457.917    -8067209.693 8  -6263920.73846  23453465.216    23453475.3304
  20746611.036   -19769715.475 9 -15383386.82848  20746611.346    20746619.4884
  22913506.359   -11242664.601 8  -8742809.59046  22913507.256    22913517.6334
  22564319.279   -12047734.491 8  -9366613.82546  22564321.341    22564330.3794
 00  3 29  3 53  0.0000000  0  7 03 23 17 26 09 21 29
  24537377.363    -1931113.769 7  -1492414.27244  24537381.915    24537393.4054
  20869934.403   -21616350.330 9 -16818423.00148  20869937.769    20869946.4484
  20912173.707   -21324236.203 9 -16597499.60347  20912176.201    20912185.6164
  23471495.480    -7972450.381 8  -6190082.34246  23471497.033    23471506.3424
  20745456.163   -19775775.462 9 -15388108.87048  20745457.968    20745466.4044
  22898574.630   -11321143.024 8  -8803961.55546  22898573.928    22898582.7924
  22551115.682   -12117111.699 8  -9420673.88046  22551118.801    22551128.8074
 00  3 29  3 53 30.0000000  0  7 03 23 17 26 09 21 29
  24543433.291    -1899310.683 7  -1467632.67144  24543433.746    24543445.0644
  20865061.524   -21641965.348 9 -16838382.73948  20865063.689    20865071.7834
  20926137.092   -21250850.378 9 -16540315.88947  20926141.335    20926150.5284
  23489534.862    -7877665.281 8  -6116223.85546  23489533.803    23489543.9204
  20744427.165   -19781187.626 9 -15392326.11348  20744428.275    20744436.4884
  22883641.039   -11399596.181 8  -8865093.85446  22883644.841    22883653.2084
  22537958.292   -12186259.564 8  -9474555.22746  22537959.807    22537970.3834
 00  3 29  3 54  0.0000000  0  7 03 23 17 26 09 21 29
  24549564.298    -1867065.093 7  -1442506.25544  24549568.087    24549585.1954
  20860223.527   -21667392.777 9 -16858196.31248  20860224.751    20860232.8444
  20940203.221   -21176934.748 9 -16482719.34447  20940207.330    20940216.2784
  23507572.633    -7782859.603 8  -6042349.35746  23507574.602    23507585.4254
  20743520.532   -19785951.788 9 -15396038.43648  20743521.891    20743529.6714
  22868713.834   -11478029.127 8  -8926210.37146  22868718.444    22868728.8104
  22524848.511   -12255168.995 8  -9528250.76046  22524847.233    22524857.2714
 00  3 29  3 54 30.0000000  0  7 03 23 17 26 09 21 29
  24555787.349    -1834379.069 7  -1417036.63444  24555791.922    24555799.1624
  20855419.720   -21692622.135 9 -16877855.54248  20855423.509    20855432.0454
  20954368.247   -21102503.639 9 -16424721.12647  20954371.025    20954380.0954
  23525606.615    -7688038.846 8  -5968463.12346  23525618.271    23525630.0994
  20742737.609   -19790062.831 9 -15399241.83048  20742739.512    20742747.2744
  22853796.487   -11556435.842 8  -8987306.42846  22853798.143    22853808.6444
  22511774.486   -12323843.886 8  -9581763.54646  22511779.020    22511788.6894
 00  3 29  3 55  0.0000000  0  7 03 23 17 26 09 21 29
  24562088.825    -1801253.742 7  -1391224.71144  24562094.427    24562105.3444
  20850657.417   -21717647.980 9 -16897356.18648  20850661.309    20850669.8434
  20968624.698   -21027582.519 9 -16366341.08447  20968628.023    20968636.9144
  23543661.894    -7593199.133 8  -5894562.10746  23543666.225    23543675.9434
  20742078.278   -19793514.553 9 -15401931.46348  20742082.336    20742090.6214
  22838884.807   -11634802.702 8  -9048371.46646  22838886.316    22838895.3934
  22498750.167   -12392283.386 8  -9635092.91646  22498754.587    22498764.5034
 00  3 29  3 55 30.0000000  0  7 03 23 17 26 09 21 29
  24568473.708    -1767691.458 7  -1365072.33344  24568480.849    24568493.6814
  20845936.421   -21742464.552 9 -16916693.76248  20845938.809    20845946.8944
  20982972.614   -20952186.937 9 -16307591.33847  20982975.174    20982984.4634
  23561709.614    -7498343.010 8  -5820648.29845  23561715.992    23561726.9104
  20741545.698   -19796318.437 9 -15404116.29048  20741548.870    20741557.1654
  22823979.413   -11713122.211 8  -9109399.61146  22823982.360    22823991.5204
  22485774.671   -12460491.293 8  -9688241.81346  22485776.212    22485785.0144
 00  3 29  3 56  0.0000000  0  7 03 23 17 26 09 21 29
  24574949.742    -1733710.859 7  -1338593.98744  24574948.330    24574958.6624
  20841257.766   -21767052.516 9 -16935853.20148  20841259.729    20841268.0634
  20997406.810   -20876324.785 9 -16248478.02547  20997411.243    20997420.7234
  23579773.326    -7403467.067 8  -5746719.05846  23579770.326    23579781.4084
  20741137.479   -19798475.466 9 -15405797.06948  20741138.635    20741146.7294
  22809088.898   -11791380.182 8  -9170379.78946  22809090.013    22809099.0114
  22472839.927   -12528469.745 8  -9741211.94546  22472840.509    22472849.0564
 00  3 29  3 56 30.0000000  0  7 03 23 17 26 09 21 29
  24581494.975    -1699323.300 7  -1311798.42544  24581489.197    24581502.0874
  20836623.300   -21791405.617 9 -16954829.63748  20836625.775    20836633.6234
  21011935.274   -20799997.577 9 -16189002.33247  21011936.007    21011945.5154
  23597822.195    -7308573.246 8  -5672775.88246  23597828.927    23597839.7204
  20740847.130   -19799993.413 9 -15406979.86048  20740849.598    20740857.6304
  22794209.109   -11869559.258 8  -9231298.49346  22794213.216    22794222.6174
  22459944.914   -12596216.507 8  -9794001.54446  22459947.797    22459956.4894
 00  3 29  3 57  0.0000000  0  7 03 23 17 26 09 21 29
  24588111.504    -1664536.327 7  -1284691.74144  24588111.880    24588121.1464
  20832032.988   -21815526.530 9 -16973625.14648  20832035.570    20832043.7104
  21026549.843   -20723185.558 9 -16129148.86347  21026552.614    21026562.0254
  23615887.306    -7213670.483 8  -5598825.73746  23615888.861    23615898.6504
  20740680.592   -19800877.942 9 -15407669.08848  20740680.992    20740689.1664
  22779350.419   -11947665.268 8  -9292160.24646  22779350.820    22779359.6554
  22447095.815   -12663729.699 8  -9846609.13546  22447099.751    22447109.5874
 00  3 29  3 57 30.0000000  0  6 23 17 26 09 21 29
  20827489.457   -21839408.830 9 -16992234.71248  20827491.041    20827499.0444
  21041264.879   -20645867.315 9 -16068900.93147  21041265.963    21041275.0954
  23633946.977    -7118763.842 8  -5524872.56745  23633947.458    23633957.4044
  20740629.922   -19801140.020 9 -15407873.28448  20740630.873    20740639.5804
  22764501.737   -12025709.568 8  -9352973.94746  22764499.014    22764508.1164
  22434296.338   -12731008.666 8  -9899034.20446  22434297.423    22434307.2434
 00  3 29  3 58  0.0000000  0  6 23 17 26 09 21 29
  20822989.139   -21863052.745 9 -17010658.53048  20822991.777    20822999.8594
  21056074.394   -20568030.992 9 -16008249.30947  21056077.696    21056086.9754
  23652008.343    -7023845.035 8  -5450909.92345  23652009.768    23652020.5294
  20740698.632   -19800774.598 9 -15407588.52248  20740700.502    20740708.9404
  22749652.461   -12103703.563 8  -9413748.43946  22749657.416    22749664.6334
  22421539.802   -12798057.002 8  -9951279.58046  22421539.051    22421547.9564
 00  3 29  3 58 30.0000000  0  6 23 17 26 09 21 29
  20818533.255   -21886469.222 9 -17028905.12448  20818535.517    20818543.9134
  21070987.693   -20489679.324 9 -15947196.11547  21070987.858    21070997.0184
  23670075.463    -6928921.380 8  -5376943.51245  23670073.318    23670083.4394
  20740888.797   -19799770.652 9 -15406806.20248  20740891.844    20740899.8754
  22734818.739   -12181669.836 8  -9474501.31646  22734820.356    22734829.3584
  22408819.444   -12864883.183 8 -10003351.83946  22408822.107    22408831.1084
 00  3 29  3 59  0.0000000  0  6 23 17 26 09 21 29
  20814118.167   -21909669.334 9 -17046983.12248  20814120.652    20814129.3414
  21085992.217   -20410809.282 9 -15885738.99747  21085996.191    21086005.6634
  23688133.712    -6833986.588 8  -5302968.41645  23688139.637    23688148.8844
  20741205.359   -19798118.367 9 -15405518.68648  20741206.708    20741214.2164
  22719981.138   -12259636.139 8  -9535254.22246  22719984.374    22719993.1104
  22396142.200   -12931490.153 8 -10055253.28646  22396147.104    22396155.9544
 00  3 29  3 59 30.0000000  0  6 23 17 26 09 21 29
  20809743.752   -21932655.492 9 -17064894.40748  20809746.806    20809755.0074
  21101099.133   -20331436.067 9 -15823889.79547  21101100.608    21101110.3954
  23706202.013    -6739040.565 8  -5228984.55845  23706207.509    23706217.1574
  20741643.893   -19795810.306 9 -15403720.18548  20741645.394    20741653.1414
  22705143.621   -12337593.898 8  -9596000.47046  22705148.559    22705158.0284
  22383514.400   -12997869.413 8 -10106977.29946  22383516.544    22383525.3094
 00  3 29  4  0  0.0000000  0  6 23 17 26 09 21 29
  20805410.007   -21955435.217 9 -17082644.83048  20805411.721    20805419.9434
  21116297.225   -20251570.869 9 -15761657.23547  21116298.459    21116307.7844
  23724275.283    -6644097.248 8  -5155002.81445  23724275.745    23724284.5834
  20742209.263   -19792837.230 9 -15401403.48948  20742211.062    20742218.7934
  22690315.860   -12415530.548 8  -9656730.26946  22690317.738    22690326.8324
  22370927.539   -13064008.958 8 -10158514.50046  22370930.045    22370939.6164
 00  3 29  4  0 30.0000000  0  6 23 17 26 09 21 29
  20801113.210   -21978013.332 9 -17100238.14648  20801115.231    20801123.6554
  21131586.013   -20171222.652 9 -15699048.28847  21131588.165    21131597.7334
  23742339.512    -6549170.076 8  -5081033.64045  23742338.636    23742348.4264
  20742900.123   -19789209.630 9 -15398576.76948  20742901.508    20742909.6804
  22675489.451   -12493436.879 8  -9717436.44646  22675492.987    22675501.1354
  22358387.673   -13129892.310 8 -10209852.06746  22358392.301    22358401.2514
 00  3 29  4  1  0.0000000  0  6 23 17 26 09 21 29
  20796854.959   -22000390.556 9 -17117674.92648  20796857.088    20796865.0504
  21146964.650   -20090401.211 9 -15636070.59747  21146968.315    21146977.6244
  23760394.266    -6454255.663 8  -5007074.41245  23760399.267    23760410.2114
  20743712.090   -19784936.959 9 -15395247.39548  20743714.318    20743722.7674
  22660673.013   -12571289.466 8  -9778100.74346  22660677.681    22660686.7024
  22345904.506   -13195508.980 8 -10260981.83246  22345905.611    22345914.8244
 00  3 29  4  1 30.0000000  0  6 23 17 26 09 21 29
  20792636.627   -22022554.150 9 -17134945.24048  20792638.984    20792647.5184
  21162432.994   -20009118.639 9 -15572733.58247  21162435.746    21162445.3294
  23778455.337    -6359362.859 8  -4933132.04345  23778458.141    23778468.9014
  20744647.530   -19780019.389 9 -15391415.49648  20744649.908    20744658.7374
  22645878.432   -12649047.778 8  -9838691.56846  22645880.475    22645889.9534
  22333462.621   -13260871.648 8 -10311913.69546  22333467.459    22333477.2074
 00  3 29  4  2  0.0000000  0  6 23 17 26 09 21 29
  20788463.059   -22044498.634 9 -17152044.81948  20788463.292    20788471.6704
  21177989.262   -19927371.027 9 -15509034.20047  21177991.759    21178001.7714
  23796509.773    -6264492.260 8  -4859206.96045  23796511.940    23796521.8164
  20745706.567   -19774457.413 9 -15387081.48348  20745708.323    20745716.3994
  22631098.483   -12726723.169 8  -9899217.79146  22631099.614    22631109.4434
  22321076.953   -13325991.130 8 -10362656.05046  22321076.580    22321085.4454
 00  3 29  4  2 30.0000000  0  6 23 17 26 09 21 29
  20784328.794   -22066216.620 9 -17168967.91148  20784330.740    20784338.9754
  21193634.141   -19845157.308 9 -15444971.62547  21193635.974    21193646.2134
  23814567.316    -6169622.633 8  -4785282.63945  23814564.379    23814574.9684
  20746884.679   -19768248.212 9 -15382243.13348  20746889.872    20746898.2164
  22616327.391   -12804326.088 8  -9959687.53446  22616332.711    22616340.9754
  22308726.039   -13390877.050 8 -10413216.42146  22308728.223    22308737.1664
 00  3 29  4  3  0.0000000  0  6 23 17 26 09 21 29
  20780242.263   -22087693.415 9 -17185703.05348  20780243.523    20780251.9284
  21209370.819   -19762468.113 9 -15380538.54447  21209371.833    21209381.5444
  23832613.993    -6074744.060 8  -4711351.32545  23832619.542    23832630.1714
  20748193.616   -19761383.955 9 -15376894.34148  20748196.210    20748204.5734
  22601575.736   -12881857.090 8 -10020101.24346  22601578.586    22601587.1974
  22296419.863   -13455539.348 8 -10463602.55046  22296422.357    22296431.6614
 00  3 29  4  3 30.0000000  0  6 23 17 26 09 21 29
  20776201.158   -22108921.936 9 -17202244.74448  20776204.238    20776212.5934
  21225199.186   -19679289.663 9 -15315724.23247  21225200.657    21225209.5164
  23850670.939    -5979860.533 8  -4637416.17345  23850674.902    23850685.5864
  20749623.216   -19753876.167 9 -15371044.10448  20749625.254    20749632.9204
  22586832.767   -12959334.769 8 -10080473.39746  22586834.733    22586843.7354
  22284159.185   -13519981.459 8 -10513817.11146  22284159.846    22284169.8184
 00  3 29  4  4  0.0000000  0  6 23 17 26 09 21 29
  20772208.575   -22129910.350 9 -17218599.32448  20772210.153    20772218.5794
  21241121.973   -19595618.483 9 -15250525.96647  21241122.166    21241131.7174
  23868733.921    -5884960.258 8  -4563467.98145  23868734.901    23868744.8814
  20751172.449   -19745736.102 9 -15364701.17948  20751174.078    20751182.1414
  22572094.996   -13036785.954 8 -10140824.92746  22572096.930    22572105.5274
  22271939.171   -13584191.826 8 -10563851.06946  22271941.420    22271950.8954
 00  3 29  4  4 30.0000000  0  6 23 17 26 09 21 29
  20768262.616   -22150649.192 9 -17234759.44348  20768263.879    20768272.0214
  21257133.518   -19511464.869 9 -15184951.77647  21257135.993    21257146.2004
  23886800.120    -5790037.380 8  -4489502.18545  23886798.059    23886806.8224
  20752839.217   -19736971.238 9 -15357871.40648  20752841.820    20752849.9454
  22557366.277   -13114197.725 8 -10201145.74746  22557365.902    22557374.5764
  22259767.105   -13648166.767 8 -10613701.59646  22259768.363    22259776.3534
 00  3 29  4  5  0.0000000  0  6 23 17 26 09 21 29
  20764364.380   -22171129.030 9 -17250717.74248  20764366.808    20764374.7724
  21273234.705   -19426846.063 9 -15119015.10847  21273238.272    21273248.2314
  23904857.084    -5695113.560 8  -4415535.63045  23904860.972    23904869.7634
  20754624.964   -19727588.033 9 -15350559.80048  20754627.272    20754635.6984
  22542640.129   -13191562.397 8 -10261429.86246  22542643.484    22542652.6524
  22247633.452   -13711914.509 8 -10663375.10046  22247636.995    22247645.3214
 00  3 29  4  5 30.0000000  0  6 23 17 26 09 21 29
  20760516.844   -22191349.703 9 -17266474.09848  20760518.911    20760526.8464
  21289421.184   -19341784.045 9 -15052733.08247  21289425.569    21289434.8794
  23922919.345    -5600199.298 8  -4341576.53345  23922921.175    23922932.0774
  20756527.517   -19717589.755 9 -15342768.92048  20756530.092    20756538.0504
  22527930.193   -13268879.123 8 -10321676.59946  22527930.157    22527939.2134
  22235547.467   -13775436.724 8 -10712872.83347  22235549.418    22235557.9504
 00  3 29  4  6  0.0000000  0  6 23 17 26 09 21 29
  20756718.866   -22211307.677 9 -17282025.74948  20756720.886    20756728.8604
  21305688.912   -19256298.093 9 -14986120.70347  21305693.184    21305702.0604
  23940983.014    -5505291.692 8  -4267622.62945  23940982.800    23940992.2184
  20758548.825   -19706957.639 9 -15334484.13748  20758553.135    20758561.2284
  22513230.531   -13346128.852 8 -10381871.13646  22513229.965    22513239.6834
  22223501.404   -13838730.386 8 -10762192.49946  22223504.125    22223512.6274
 00  3 29  4  6 30.0000000  0  6 23 17 26 09 21 29
  20752971.808   -22230996.407 9 -17297367.60248  20752974.177    20752982.4824
  21322037.076   -19170398.161 9 -14919185.74247  21322039.359    21322049.2164
  23959036.517    -5410411.571 8  -4193690.13845  23959038.082    23959048.1964
  20760700.013   -19695684.964 9 -15325700.22548  20760698.566    20760706.3194
  22498542.623   -13423300.295 8 -10442004.68446  22498544.929    22498554.4544
  22211501.171   -13901792.897 8 -10811332.02647  22211503.830    22211513.3244
 00  3 29  4  7  0.0000000  0  6 23 17 26 09 21 29
  20749273.251   -22250439.235 9 -17312517.84548  20749274.243    20749282.2824
  21338462.481   -19084080.431 9 -14851925.23747  21338465.034    21338474.6364
  23977086.522    -5315563.752 8  -4119782.81945  23977087.256    23977097.4254
  20762964.997   -19683765.584 9 -15316412.38148  20762966.633    20762974.6004
  22483874.851   -13500384.985 8 -10502070.65646  22483876.347    22483885.6484
  22199546.004   -13964618.408 8 -10860286.88847  22199548.806    22199557.1754
 00  3 29  4  7 30.0000000  0  6 23 17 26 09 21 29
  20745615.397   -22269660.066 9 -17327495.10448  20745616.810    20745624.5954
  21354973.031   -18997321.940 9 -14784321.27547  21354974.756    21354984.3624
  23995136.429    -5220728.846 8  -4045885.57645  23995134.726    23995143.0904
  20765354.160   -19671195.587 9 -15306617.56448  20765358.323    20765366.6434
  22469220.375   -13577380.418 8 -10562067.04246  22469224.122    22469234.2904
  22187638.418   -14027190.486 8 -10909044.29147  22187641.758    22187650.3204
 00  3 29  4  8  0.0000000  0  6 23 17 26 09 21 29
  20741995.524   -22288674.712 9 -17342311.69348  20741998.336    20742006.1014
  21371567.023   -18910113.479 8 -14716366.68447  21371569.596    21371579.4474
  24013177.138    -5125902.689 8  -3971995.10945  24013178.923    24013188.3024
  20767872.676   -19657977.380 9 -15296317.65448  20767873.855    20767882.1034
  22454589.260   -13654292.319 8 -10621998.36246  22454588.547    22454598.0344
  22175780.966   -14089504.336 8 -10957600.45846  22175783.131    22175791.4444
 00  3 29  4  8 30.0000000  0  6 23 17 26 09 21 29
  20738414.983   -22307490.824 9 -17356973.58048  20738417.688    20738425.3194
  21388250.216   -18822439.034 9 -14648048.99747  21388253.966    21388263.5904
  24031222.427    -5031098.659 8  -3898121.89145  24031219.559    24031229.6114
  20770507.554   -19644120.508 9 -15285520.08048  20770510.775    20770518.9824
  22439967.346   -13731124.728 8 -10681867.72947  22439967.936    22439977.7734
  22163972.076   -14151560.966 8 -11005956.19346  22163974.324    22163982.3984
 00  3 29  4  9  0.0000000  0  6 23 17 26 09 21 29
  20734873.063   -22326099.161 9 -17371473.56748  20734876.786    20734884.5764
  21405025.273   -18734280.552 8 -14579354.14147  21405029.684    21405039.8144
  24049245.510    -4936308.492 8  -3824259.49045  24049256.501    24049267.5444
  20773265.616   -19629635.067 9 -15274232.71448  20773266.988    20773275.3904
  22425360.774   -13807875.618 8 -10741673.57547  22425362.413    22425372.6454
  22152212.892   -14213368.803 8 -11054118.08747  22152212.958    22152221.5104
 00  3 29  4  9 30.0000000  0  6 23 17 26 09 21 29
  20731379.155   -22344469.499 9 -17385788.10248  20731381.011    20731388.7954
  21421895.079   -18645642.554 9 -14510285.64247  21421897.462    21421907.2684
  24067294.332    -4841534.963 8  -3750410.04945  24067291.139    24067302.7674
  20776139.267   -19614529.100 9 -15262461.82547  20776141.483    20776149.7284
  22410772.364   -13884556.349 8 -10801424.73647  22410771.027    22410780.7314
  22140495.760   -14274932.430 8 -11102089.67547  22140497.787    22140506.2104
 00  3 29  4 10  0.0000000  0  6 23 17 26 09 21 29
  20727933.561   -22362583.820 9 -17399903.15548  20727934.267    20727941.8674
  21438850.938   -18556542.856 9 -14440857.36847  21438852.591    21438862.1714
  24085318.699    -4746802.694 8  -3676592.75945  24085318.889    24085329.0024
  20779131.863   -19598798.729 9 -15250204.38647  20779134.708    20779143.2694
  22396191.458   -13961156.417 8 -10861113.08747  22396194.609    22396203.4584
  22128823.802   -14336262.948 8 -11149879.61847  22128826.335    22128834.5334
 00  3 29  4 10 30.0000000  0  6 23 17 26 09 21 29
  20724536.857   -22380428.308 9 -17413807.94348  20724538.754    20724546.4744
  21455892.761   -18466980.698 8 -14371068.73447  21455895.295    21455904.6004
  24103330.572    -4652102.737 8  -3602800.66345  24103338.861    24103348.8764
  20782243.672   -19582443.665 9 -15237460.17347  20782247.217    20782255.4264
  22381636.127   -14037657.887 8 -10920724.60147  22381636.987    22381645.7224
  22117196.718   -14397364.594 8 -11197491.22347  22117199.126    22117207.7634
 00  3 29  4 11  0.0000000  0  6 23 17 26 09 21 29
  20721192.413   -22397997.743 9 -17427498.39848  20721195.091    20721202.9824
  21473022.256   -18376972.666 8 -14300932.66947  21473023.056    21473033.0564
  24121355.711    -4557408.588 7  -3529013.08345  24121359.122    24121369.2404
  20785474.117   -19565461.584 9 -15224227.36647  20785478.835    20785487.2414
  22367095.890   -14114065.904 8 -10980263.29447  22367096.450    22367106.8434
  22105613.320   -14458240.779 8 -11244927.13047  22105614.870    22105623.5734
 00  3 29  4 11 30.0000000  0  6 23 17 26 09 21 29
  20717900.793   -22415306.379 9 -17440985.63948  20717901.271    20717909.2674
  21490229.246   -18286540.486 8 -14230466.10247  21490231.964    21490241.7154
  24139376.883    -4462725.911 8  -3455234.45345  24139377.508    24139386.8774
  20788830.767   -19547842.516 9 -15210498.21947  20788831.841    20788839.7284
  22352570.289   -14190385.335 8 -11039732.95247  22352573.985    22352582.9644
  22094070.285   -14518887.674 8 -11292184.37847  22094073.657    22094083.2864
 00  3 29  4 12  0.0000000  0  6 23 17 26 09 21 29
  20714652.225   -22432365.635 9 -17454278.56348  20714654.815    20714662.7684
  21507519.515   -18195680.030 8 -14159665.81047  21507522.391    21507532.3934
  24157393.963    -4368053.443 8  -3381463.73845  24157392.807    24157402.7464
  20792303.525   -19529585.001 9 -15196271.58147  20792305.577    20792314.2414
  22338065.010   -14266617.424 8 -11099134.55447  22338066.833    22338076.1964
  22082572.496   -14579313.191 8 -11339269.12847  22082575.374    22082583.8694
 00  3 29  4 12 30.0000000  0  6 23 17 26 09 21 29
  20711454.913   -22449171.826 9 -17467374.28548  20711456.686    20711464.8104
  21524889.940   -18104400.149 8 -14088538.70447  21524892.118    21524902.2814
  24175412.254    -4273374.527 8  -3307688.02245  24175410.958    24175419.2094
  20795897.093   -19510697.710 9 -15181554.20347  20795899.470    20795908.0394
  22323571.132   -14342781.708 8 -11158483.31847  22323573.258    22323582.2204
  22071116.976   -14639517.213 8 -11386181.28747  22071119.159    22071127.0474
 00  3 29  4 13  0.0000000  0  7 23 17 26 09 21 29 15
  20708307.350   -22465722.635 9 -17480271.01448  20708307.327    20708315.1954
  21542340.786   -18012715.060 9 -14017095.84447  21542339.655    21542349.3974
  24193412.699    -4178719.799 8  -3233931.16745  24193421.717    24193432.6194
  20799613.724   -19491170.130 9 -15166337.89448  20799615.773    20799624.8204
  22309089.841   -14418891.206 8 -11217789.38747  22309090.250    22309099.1134
  22059703.333   -14699495.432 8 -11432917.49147  22059705.394    22059713.5884
  24245167.975     -680954.89717   -513473.69355  24245166.004    24245178.3014
 00  3 29  4 13 30.0000000  0  7 23 17 26 09 21 29 15
  20705205.648   -22482018.614 9 -17492969.17948  20705206.431    20705214.3544
  21559860.976   -17920632.645 9 -13945343.39147  21559862.396    21559872.5084
  24211415.370    -4084114.152 8  -3160212.55545  24211424.740    24211435.4744
  20803450.968   -19470995.082 9 -15150617.07047  20803454.909    20803463.4914
  22294617.191   -14494945.606 9 -11277052.53647  22294618.448    22294627.2244
  22048331.692   -14759234.617 8 -11479467.45147  22048336.726    22048346.7524
  24225335.311     -785154.601 7   -594668.22645  24225337.275    24225349.4864
